[[{"header":{"parameterUnit":"m.s-1","parameterCategory":1,"la1":31.0,"la2":29.5877,"lo1":-88.7671,"lo2":-86.6584,"dy":0.0162,"dx":0.0185,"nx":115,"ny":88,"refTime":"2023-10-09T06:00:00:Z","depth":0,"parameterNumber":2,"parameterNumberName":"U-component_of_WINDS"},"data":[0.0,0.0,0.0,0.0,0.0,0.0,0.0,0.0,0.0,0.0,0.0,0.0,0.0,0.0,0.0,0.0,0.0,0.0,0.0,0.0,0.0,0.0,0.0,0.0,0.0,0.0,0.0,0.0,0.0,0.0,0.0,0.0,0.0,0.0,0.0,0.0,0.0,0.0,0.0,0.0,0.0,0.0,0.0,0.0,0.0,0.0,0.0,0.0,0.0,0.0,0.0,0.0,0.0,0.0,0.0,0.0,0.0,0.0,0.0,0.0,0.0,0.0,0.0,0.0,0.0,0.0,0.0,0.0,0.0,0.0,0.0,0.0,0.0,0.0,0.0,0.0,0.0,0.0,0.0,0.0,0.0,0.0,0.0,0.0,0.0,0.0,0.0,0.0,0.0,0.0,0.0,0.0,0.0,0.0,0.0,0.0,0.0,0.0,0.0,0.0,0.0,0.0,0.0,0.0,0.0,0.0,0.0,0.0,0.0,0.0,0.0,0.0,0.0,0.0,0.0,0.0,0.0,0.0,0.0,0.0,0.0,0.0,0.0,0.0,0.0,0.0,0.0,0.0,0.0,0.0,0.0,0.0,0.0,0.0,0.0,0.0,0.0,0.0,0.0,0.0,0.0,0.0,0.0,0.0,0.0,0.0,0.0,0.0,0.0,0.0,0.0,0.0,0.0,0.0,0.0,0.0,0.0,0.0,0.0,0.0,0.0,0.0,0.0,0.0,0.0,0.0,0.0,0.0,0.0,0.0,0.0,0.0,0.0,0.0,0.0,0.0,0.0,0.0,0.0,0.0,0.0,0.0,0.0,0.0,0.0,0.0,0.0,0.0,0.0,0.0,0.0,0.0,0.0,0.0,0.0,0.0,0.0,0.0,0.0,0.0,0.0,0.0,0.0,0.0,0.0,0.0,0.0,0.0,0.0,0.0,0.0,0.0,0.0,0.0,0.0,0.0,0.0,0.0,0.0,0.0,0.0,0.0,0.0,0.0,0.0,0.0,0.0,0.0,0.0,0.0,0.0,0.0,0.0,0.0,0.0,0.0,0.0,0.0,0.0,0.0,0.0,0.0,0.0,0.0,0.0,0.0,0.0,0.0,0.0,0.0,0.0,0.0,0.0,0.0,0.0,0.0,0.0,0.0,0.0,0.0,0.0,0.0,0.0,0.0,0.0,0.0,0.0,0.0,0.0,0.0,0.0,0.0,0.0,0.0,0.0,0.0,0.0,0.0,0.0,0.0,0.0,0.0,0.0,0.0,0.0,0.0,0.0,0.0,0.0,0.0,0.0,0.0,0.0,0.0,0.0,0.0,0.0,0.0,0.0,0.0,0.0,0.0,0.0,0.0,0.0,0.0,0.0,0.0,0.0,0.0,0.0,0.0,0.0,0.0,0.0,0.0,0.0,0.0,0.0,0.0,0.0,0.0,0.0,0.0,0.0,0.0,0.0,0.0,0.0,0.0,0.0,0.0,0.0,0.0,0.0,0.0,0.0,0.0,0.0,0.0,0.0,0.0,0.0,0.0,0.0,0.0,0.0,0.0,0.0,0.0,0.0,0.0,0.0,0.0,0.0,0.0,0.0,0.0,0.0,0.0,0.0,0.0,0.0,0.0,0.0,0.0,0.0,0.0,0.0,0.0,0.0,0.0,0.0,0.0,0.0,0.0,0.0,0.0,0.0,0.0,0.0,0.0,0.0,0.0,0.0,0.0,0.0,0.0,0.0,0.0,0.0,0.0,0.0,0.0,0.0,0.0,0.0,0.0,0.0,0.0,0.0,0.0,0.0,0.0,0.0,0.0,0.0,0.0,0.0,0.0,0.0,0.0,0.0,0.0,0.0,0.0,0.0,0.0,0.0,0.0,0.0,0.0,0.0,0.0,0.0,0.0,0.0,0.0,0.0,0.0,0.0,0.0,0.0,0.0,0.0,0.0,0.0,0.0,0.0,0.0,0.0,0.0,0.0,0.0,0.0,0.0,0.0,0.0,0.0,0.0,0.0,0.0,0.0,0.0,0.0,0.0,0.0,0.0,0.0,0.0,0.0,0.0,0.0,0.0,0.0,0.0,0.0,0.0,0.0,0.0,0.0,0.0,0.0,0.0,0.0,0.0,0.0,0.0,0.0,0.0,0.0,0.0,0.0,0.0,0.0,0.0,0.0,0.0,0.0,0.0,0.0,0.0,0.0,0.0,0.0,0.0,0.0,0.0,0.0,0.0,0.0,0.0,0.0,0.0,0.0,0.0,0.0,0.0,0.0,0.0,0.0,0.0,0.0,0.0,0.0,0.0,0.0,0.0,0.0,0.0,0.0,0.0,0.0,0.0,0.0,0.0,0.0,0.0,0.0,0.0,0.0,0.0,0.0,0.0,0.0,0.0,0.0,0.0,0.0,0.0,0.0,0.0,0.0,0.0,0.0,0.0,0.0,0.0,0.0,0.0,0.0,0.0,0.0,0.0,0.0,0.0,0.0,0.0,0.0,0.0,0.0,0.0,0.0,0.0,0.0,0.0,0.0,0.0,0.0,0.0,0.0,0.0,0.0,0.0,0.0,0.0,0.0,0.0,0.0,0.0,0.0,0.0,0.0,0.0,0.0,0.0,0.0,0.0,0.0,0.0,0.0,0.0,0.0,0.0,0.0,0.0,0.0,0.0,0.0,0.0,0.0,0.0,0.0,0.0,0.0,0.0,0.0,0.0,0.0,0.0,0.0,0.0,0.0,0.0,0.0,0.0,0.0,0.0,0.0,0.0,0.0,0.0,0.0,0.0,0.0,0.0,0.0,0.0,0.0,0.0,0.0,0.0,0.0,0.0,0.0,0.0,0.0,0.0,0.0,0.0,0.0,0.0,0.0,0.0,0.0,0.0,0.0,0.0,0.0,0.0,0.0,0.0,0.0,0.0,0.0,0.0,0.0,0.0,0.0,0.0,0.0,0.0,0.0,0.0,0.0,0.0,0.0,0.0,0.0,0.0,0.0,0.0,0.0,0.0,0.0,0.0,0.0,0.0,0.0,0.0,0.0,0.0,0.0,0.0,0.0,0.0,0.0,0.0,0.0,0.0,0.0,0.0,0.0,0.0,0.0,0.0,0.0,0.0,0.0,0.0,0.0,0.0,0.0,0.0,0.0,0.0,0.0,0.0,0.0,0.0,0.0,0.0,0.0,0.0,0.0,0.0,0.0,0.0,0.0,0.0,0.0,0.0,0.0,0.0,0.0,0.0,0.0,0.0,0.0,0.0,0.0,0.0,0.0,0.0,0.0,0.0,0.0,0.0,0.0,0.0,0.0,0.0,0.0,0.0,0.0,0.0,0.0,0.0,0.0,0.0,0.0,0.0,0.0,0.0,0.0,0.0,0.0,0.0,0.0,0.0,0.0,0.0,0.0,0.0,0.0,0.0,0.0,0.0,0.0,0.0,0.0,0.0,0.0,0.0,0.0,0.0,0.0,0.0,0.0,0.0,0.0,0.0,0.0,0.0,0.0,0.0,0.0,0.0,0.0,0.0,0.0,0.0,0.0,0.0,0.0,0.0,0.0,0.0,0.0,0.0,0.0,0.0,0.0,0.0,0.0,0.0,0.0,0.0,0.0,0.0,0.0,0.0,0.0,0.0,0.0,0.0,0.0,0.0,0.0,0.0,0.0,0.0,0.0,0.0,0.0,0.0,0.0,0.0,0.0,0.0,0.0,0.0,0.0,0.0,0.0,0.0,0.0,0.0,0.0,0.0,0.0,0.0,0.0,0.0,0.0,0.0,0.0,0.0,0.0,0.0,0.0,0.0,0.0,0.0,0.0,0.0,0.0,0.0,0.0,0.0,0.0,0.0,0.0,0.0,0.0,0.0,0.0,0.0,0.0,0.0,0.0,0.0,0.0,0.0,0.0,0.0,0.0,0.0,0.0,0.0,0.0,0.0,0.0,0.0,0.0,0.0,0.0,0.0,0.0,0.0,0.0,0.0,0.0,0.0,0.0,0.0,0.0,0.0,0.0,0.0,0.0,0.0,0.0,0.0,0.0,0.0,0.0,0.0,0.0,0.0,0.0,0.0,0.0,0.0,0.0,0.0,0.0,0.0,0.0,0.0,0.0,0.0,0.0,0.0,0.0,0.0,0.0,0.0,0.0,0.0,0.0,0.0,0.0,0.0,0.0,0.0,0.0,0.0,0.0,0.0,0.0,0.0,0.0,0.0,0.0,0.0,0.0,0.0,0.0,0.0,0.0,0.0,0.0,0.0,0.0,0.0,0.0,0.0,0.0,0.0,0.0,0.0,0.0,0.0,0.0,0.0,2.1109,0.0,0.0,0.0,0.0,0.0,0.0,0.0,0.0,0.0,0.0,0.0,0.0,0.0,0.0,0.0,0.0,0.0,0.0,0.0,0.0,0.0,0.0,0.0,0.0,0.0,0.0,0.0,0.0,0.0,0.0,0.0,0.0,0.0,0.0,0.0,0.0,0.0,0.0,0.0,0.0,0.0,0.0,0.0,0.0,0.0,0.0,0.0,0.0,0.0,0.0,0.0,0.0,0.0,0.0,0.0,0.0,0.0,0.0,0.0,0.0,0.0,0.0,0.0,0.0,0.0,0.0,0.0,0.0,0.0,0.0,0.0,0.0,0.0,0.0,0.0,0.0,0.0,0.0,0.0,0.0,0.0,0.0,0.0,0.0,0.0,0.0,0.0,0.0,0.0,0.0,0.0,0.0,0.0,0.0,0.0,0.0,0.0,0.0,0.0,0.0,0.0,0.0,0.0,0.0,0.0,0.0,0.0,0.0,0.0,0.0,2.1109,2.1109,2.1109,2.1109,2.1109,0.0,0.0,0.0,0.0,0.0,0.0,0.0,0.0,0.0,0.0,0.0,0.0,0.0,0.0,0.0,0.0,0.0,0.0,0.0,0.0,0.0,0.0,0.0,0.0,0.0,0.0,0.0,0.0,0.0,0.0,0.0,0.0,0.0,0.0,0.0,0.0,0.0,0.0,0.0,0.0,0.0,0.0,0.0,0.0,0.0,0.0,0.0,0.0,0.0,0.0,0.0,0.0,0.0,0.0,0.0,0.0,0.0,0.0,0.0,0.0,0.0,0.0,0.0,0.0,0.0,0.0,0.0,0.0,0.0,0.0,0.0,0.0,0.0,0.0,0.0,0.0,0.0,0.0,0.0,0.0,0.0,0.0,0.0,0.0,0.0,0.0,0.0,0.0,0.0,0.0,0.0,0.0,0.0,0.0,0.0,0.0,0.0,0.0,0.0,0.0,0.0,0.0,0.0,0.0,0.0,0.0,0.0,0.0,0.0,0.0,0.0,0.0,2.1109,2.1176,2.1323,0.0,0.0,0.0,0.0,0.0,0.0,0.0,0.0,0.0,0.0,0.0,0.0,0.0,0.0,0.0,0.0,0.0,0.0,0.0,0.0,0.0,0.0,0.0,0.0,0.0,0.0,0.0,0.0,0.0,0.0,0.0,0.0,0.0,0.0,0.0,0.0,0.0,0.0,0.0,0.0,0.0,0.0,0.0,0.0,0.0,0.0,0.0,0.0,0.0,0.0,0.0,0.0,0.0,0.0,0.0,0.0,0.0,0.0,0.0,0.0,0.0,0.0,0.0,0.0,0.0,0.0,0.0,0.0,0.0,0.0,0.0,0.0,0.0,0.0,0.0,0.0,0.0,0.0,0.0,0.0,0.0,0.0,0.0,0.0,0.0,0.0,0.0,0.0,0.0,0.0,0.0,0.0,0.0,0.0,0.0,0.0,0.0,0.0,0.0,0.0,0.0,0.0,0.0,0.0,0.0,0.0,0.0,0.0,0.0,0.0,2.1109,2.1109,2.1109,0.0,2.1871,0.0,0.0,0.0,0.0,0.0,0.0,0.0,0.0,0.0,0.0,0.0,0.0,0.0,0.0,0.0,0.0,0.0,0.0,0.0,0.0,0.0,0.0,0.0,0.0,0.0,0.0,0.0,0.0,0.0,0.0,0.0,0.0,0.0,0.0,0.0,0.0,0.0,0.0,0.0,0.0,0.0,0.0,0.0,0.0,0.0,0.0,0.0,0.0,0.0,0.0,0.0,0.0,0.0,0.0,0.0,0.0,0.0,0.0,0.0,0.0,0.0,0.0,0.0,0.0,0.0,0.0,0.0,0.0,0.0,0.0,0.0,0.0,0.0,0.0,0.0,0.0,0.0,0.0,0.0,0.0,0.0,0.0,0.0,0.0,0.0,0.0,0.0,0.0,0.0,0.0,0.0,0.0,0.0,0.0,0.0,0.0,0.0,0.0,0.0,0.0,0.0,0.0,0.0,0.0,0.0,0.0,0.0,0.0,0.0,0.0,2.1109,2.1109,2.1283,2.1563,0.0,0.0,0.0,0.0,0.0,0.0,0.0,0.0,0.0,0.0,0.0,0.0,0.0,0.0,0.0,0.0,0.0,0.0,0.0,0.0,0.0,0.0,0.0,0.0,0.0,0.0,0.0,0.0,0.0,0.0,0.0,0.0,0.0,0.0,0.0,0.0,0.0,0.0,0.0,0.0,0.0,0.0,0.0,0.0,0.0,0.0,0.0,0.0,0.0,0.0,0.0,0.0,0.0,0.0,0.0,0.0,0.0,0.0,0.0,0.0,0.0,0.0,0.0,0.0,0.0,0.0,0.0,0.0,0.0,0.0,0.0,0.0,0.0,0.0,0.0,0.0,0.0,0.0,0.0,0.0,0.0,0.0,0.0,0.0,0.0,0.0,0.0,0.0,0.0,0.0,0.0,0.0,0.0,0.0,0.0,0.0,0.0,0.0,0.0,0.0,0.0,0.0,0.0,0.0,0.0,0.0,0.0,0.0,0.0,0.0,2.1189,2.1269,2.1349,2.1563,2.1804,2.2098,0.0,0.0,0.0,0.0,0.0,0.0,0.0,0.0,0.0,0.0,0.0,0.0,0.0,0.0,0.0,0.0,0.0,0.0,0.0,0.0,0.0,0.0,0.0,0.0,0.0,0.0,0.0,0.0,0.0,0.0,0.0,0.0,0.0,0.0,0.0,0.0,0.0,0.0,0.0,0.0,0.0,0.0,0.0,0.0,0.0,0.0,0.0,0.0,0.0,0.0,0.0,0.0,0.0,0.0,0.0,0.0,0.0,0.0,0.0,0.0,0.0,0.0,0.0,0.0,0.0,0.0,0.0,0.0,0.0,0.0,0.0,0.0,0.0,0.0,0.0,0.0,0.0,0.0,0.0,0.0,0.0,0.0,0.0,0.0,0.0,0.0,0.0,0.0,0.0,0.0,0.0,0.0,0.0,0.0,0.0,0.0,0.0,0.0,0.0,0.0,0.0,0.0,0.0,0.0,0.0,0.0,0.0,0.0,2.1122,2.139,2.1735,2.1924,2.1951,2.2111,0.0,0.0,0.0,0.0,0.0,0.0,0.0,0.0,0.0,0.0,0.0,0.0,0.0,0.0,0.0,0.0,0.0,0.0,0.0,0.0,0.0,0.0,0.0,0.0,0.0,0.0,0.0,0.0,0.0,0.0,0.0,0.0,0.0,0.0,0.0,0.0,0.0,0.0,0.0,0.0,0.0,0.0,0.0,0.0,0.0,0.0,0.0,0.0,0.0,0.0,0.0,0.0,0.0,0.0,0.0,0.0,0.0,0.0,0.0,0.0,0.0,0.0,0.0,0.0,0.0,0.0,0.0,0.0,0.0,0.0,0.0,0.0,0.0,0.0,0.0,0.0,0.0,0.0,0.0,0.0,0.0,0.0,0.0,0.0,0.0,0.0,0.0,0.0,0.0,0.0,0.0,0.0,0.0,0.0,0.0,0.0,0.0,0.0,0.0,0.0,0.0,0.0,0.0,0.0,0.0,0.0,0.0,0.0,0.0,2.1403,2.1683,2.1884,2.1991,2.2164,2.2311,0.0,0.0,0.0,0.0,0.0,0.0,0.0,0.0,0.0,0.0,0.0,0.0,0.0,0.0,0.0,0.0,0.0,0.0,0.0,0.0,0.0,0.0,0.0,0.0,0.0,0.0,0.0,0.0,0.0,0.0,0.0,0.0,0.0,0.0,0.0,0.0,0.0,0.0,0.0,0.0,0.0,0.0,0.0,0.0,0.0,0.0,0.0,0.0,0.0,0.0,0.0,0.0,0.0,0.0,0.0,0.0,0.0,0.0,0.0,0.0,0.0,0.0,0.0,0.0,0.0,0.0,0.0,0.0,0.0,0.0,0.0,0.0,0.0,0.0,0.0,0.0,0.0,0.0,0.0,0.0,0.0,0.0,0.0,0.0,0.0,0.0,0.0,0.0,0.0,0.0,0.0,0.0,0.0,0.0,0.0,0.0,0.0,0.0,0.0,0.0,0.0,0.0,0.0,0.0,0.0,0.0,0.0,0.0,0.0,2.1817,0.0,2.2164,2.2271,2.2458,2.2565,0.0,0.0,0.0,0.0,0.0,0.0,0.0,0.0,0.0,0.0,0.0,0.0,0.0,0.0,0.0,0.0,0.0,0.0,0.0,0.0,0.0,0.0,0.0,0.0,0.0,0.0,0.0,0.0,0.0,0.0,0.0,0.0,0.0,0.0,0.0,0.0,0.0,0.0,0.0,0.0,0.0,0.0,0.0,0.0,0.0,0.0,0.0,0.0,0.0,0.0,0.0,0.0,0.0,0.0,0.0,0.0,0.0,0.0,0.0,0.0,0.0,0.0,0.0,0.0,0.0,0.0,0.0,0.0,0.0,0.0,0.0,0.0,0.0,0.0,0.0,0.0,0.0,0.0,0.0,0.0,0.0,0.0,0.0,0.0,0.0,0.0,0.0,0.0,0.0,0.0,0.0,0.0,0.0,0.0,0.0,0.0,0.0,0.0,0.0,0.0,0.0,0.0,0.0,0.0,0.0,0.0,0.0,0.0,2.1857,2.2392,2.2432,2.2579,2.2846,2.2928,2.2928,0.0,0.0,0.0,0.0,0.0,0.0,0.0,0.0,0.0,0.0,0.0,0.0,0.0,0.0,0.0,0.0,0.0,0.0,0.0,0.0,0.0,0.0,0.0,0.0,0.0,0.0,0.0,0.0,0.0,0.0,0.0,0.0,0.0,0.0,0.0,0.0,0.0,0.0,0.0,0.0,0.0,0.0,0.0,0.0,0.0,0.0,0.0,0.0,0.0,0.0,0.0,0.0,0.0,0.0,0.0,0.0,0.0,0.0,0.0,0.0,0.0,0.0,0.0,0.0,0.0,0.0,0.0,0.0,0.0,0.0,0.0,0.0,0.0,0.0,0.0,0.0,0.0,0.0,0.0,0.0,0.0,0.0,0.0,0.0,0.0,0.0,0.0,0.0,0.0,0.0,0.0,0.0,0.0,0.0,0.0,0.0,0.0,0.0,0.0,0.0,0.0,0.0,0.0,0.0,0.0,0.0,0.0,0.0,0.0,2.2726,2.2939,2.3086,2.318,2.318,2.3086,0.0,0.0,0.0,0.0,0.0,0.0,0.0,0.0,0.0,0.0,0.0,0.0,0.0,0.0,0.0,0.0,0.0,0.0,0.0,0.0,0.0,0.0,0.0,0.0,0.0,0.0,0.0,0.0,0.0,0.0,0.0,0.0,0.0,0.0,0.0,0.0,0.0,0.0,0.0,0.0,0.0,0.0,0.0,0.0,0.0,0.0,0.0,0.0,0.0,0.0,0.0,0.0,0.0,0.0,0.0,0.0,0.0,0.0,0.0,0.0,0.0,0.0,0.0,0.0,0.0,0.0,0.0,0.0,0.0,0.0,0.0,0.0,0.0,0.0,0.0,0.0,0.0,0.0,0.0,0.0,0.0,0.0,0.0,0.0,0.0,0.0,0.0,0.0,0.0,0.0,0.0,0.0,0.0,0.0,0.0,0.0,0.0,0.0,0.0,0.0,0.0,0.0,0.0,0.0,0.0,0.0,0.0,0.0,0.0,2.3527,2.35,2.35,2.3487,2.3487,2.3354,2.306,0.0,0.0,0.0,0.0,0.0,0.0,0.0,0.0,0.0,0.0,0.0,0.0,0.0,0.0,0.0,0.0,0.0,0.0,0.0,0.0,0.0,0.0,0.0,0.0,0.0,0.0,0.0,0.0,0.0,0.0,0.0,0.0,0.0,0.0,0.0,0.0,0.0,0.0,0.0,0.0,0.0,0.0,0.0,0.0,0.0,0.0,0.0,0.0,0.0,0.0,0.0,0.0,0.0,0.0,0.0,0.0,0.0,0.0,0.0,0.0,0.0,0.0,0.0,0.0,0.0,0.0,0.0,0.0,0.0,0.0,0.0,0.0,0.0,0.0,0.0,0.0,0.0,0.0,0.0,0.0,0.0,0.0,0.0,0.0,0.0,0.0,0.0,0.0,0.0,0.0,0.0,0.0,0.0,0.0,0.0,0.0,0.0,0.0,0.0,0.0,0.0,0.0,0.0,0.0,0.0,0.0,0.0,0.0,2.4703,2.4182,2.3888,2.3848,2.3834,2.3674,0.0,0.0,0.0,0.0,0.0,0.0,0.0,0.0,0.0,0.0,0.0,0.0,0.0,0.0,0.0,0.0,0.0,0.0,0.0,0.0,0.0,0.0,0.0,0.0,0.0,0.0,0.0,0.0,0.0,0.0,0.0,0.0,0.0,0.0,0.0,0.0,0.0,0.0,0.0,0.0,0.0,0.0,0.0,0.0,0.0,0.0,0.0,0.0,0.0,0.0,0.0,0.0,0.0,0.0,0.0,0.0,0.0,0.0,0.0,0.0,0.0,0.0,0.0,0.0,0.0,0.0,0.0,0.0,0.0,0.0,0.0,0.0,0.0,0.0,0.0,0.0,0.0,0.0,0.0,0.0,0.0,0.0,0.0,0.0,0.0,0.0,0.0,0.0,0.0,0.0,0.0,0.0,0.0,0.0,0.0,0.0,0.0,0.0,0.0,0.0,0.0,0.0,0.0,0.0,0.0,0.0,0.0,0.0,0.0,2.5571,2.5464,2.5259,2.4756,2.4529,2.4275,0.0,0.0,0.0,0.0,0.0,0.0,0.0,0.0,0.0,0.0,0.0,0.0,0.0,0.0,0.0,0.0,0.0,0.0,0.0,0.0,0.0,0.0,0.0,0.0,0.0,0.0,0.0,0.0,0.0,0.0,0.0,0.0,0.0,0.0,0.0,0.0,0.0,0.0,0.0,0.0,0.0,0.0,0.0,0.0,0.0,0.0,0.0,0.0,0.0,0.0,0.0,0.0,0.0,0.0,0.0,0.0,0.0,0.0,0.0,0.0,0.0,0.0,0.0,0.0,0.0,0.0,0.0,0.0,0.0,0.0,0.0,0.0,0.0,0.0,0.0,0.0,0.0,0.0,0.0,0.0,0.0,0.0,0.0,0.0,0.0,0.0,0.0,0.0,0.0,0.0,0.0,0.0,0.0,0.0,0.0,0.0,0.0,0.0,0.0,0.0,0.0,0.0,0.0,0.0,0.0,0.0,0.0,0.0,2.5625,2.6132,2.6465,2.6425,2.6012,2.5478,2.4943,0.0,0.0,0.0,0.0,0.0,0.0,0.0,0.0,0.0,0.0,0.0,0.0,0.0,0.0,0.0,0.0,0.0,0.0,0.0,0.0,0.0,0.0,0.0,0.0,0.0,0.0,0.0,0.0,0.0,0.0,0.0,0.0,0.0,0.0,0.0,0.0,0.0,0.0,0.0,0.0,0.0,0.0,0.0,0.0,0.0,0.0,0.0,0.0,0.0,0.0,0.0,0.0,0.0,0.0,0.0,0.0,0.0,0.0,0.0,0.0,0.0,0.0,0.0,0.0,0.0,0.0,0.0,0.0,0.0,0.0,0.0,0.0,0.0,0.0,0.0,0.0,0.0,0.0,0.0,0.0,0.0,0.0,0.0,0.0,0.0,0.0,0.0,0.0,0.0,0.0,0.0,0.0,0.0,0.0,0.0,0.0,0.0,0.0,0.0,0.0,0.0,0.0,0.0,0.0,0.0,0.0,0.0,0.0,2.6453,2.6573,2.7081,2.7348,2.7335,2.648,2.5638,0.0,0.0,0.0,0.0,0.0,0.0,0.0,0.0,0.0,0.0,0.0,0.0,0.0,0.0,0.0,0.0,0.0,0.0,0.0,0.0,0.0,0.0,0.0,0.0,0.0,0.0,0.0,0.0,0.0,0.0,0.0,0.0,0.0,0.0,0.0,0.0,0.0,0.0,0.0,0.0,0.0,0.0,0.0,0.0,0.0,0.0,0.0,0.0,0.0,0.0,0.0,0.0,0.0,0.0,0.0,0.0,0.0,0.0,0.0,0.0,0.0,0.0,0.0,0.0,0.0,0.0,0.0,0.0,0.0,0.0,0.0,0.0,0.0,0.0,0.0,0.0,0.0,0.0,0.0,0.0,0.0,0.0,0.0,0.0,0.0,0.0,0.0,0.0,0.0,0.0,0.0,0.0,0.0,0.0,0.0,0.0,0.0,0.0,0.0,0.0,0.0,0.0,0.0,0.0,0.0,0.0,0.0,0.0,2.6841,2.7832,2.798,2.8047,2.8033,2.6881,2.6213,0.0,0.0,0.0,0.0,0.0,0.0,0.0,0.0,0.0,0.0,0.0,0.0,0.0,0.0,0.0,0.0,0.0,0.0,0.0,0.0,0.0,0.0,0.0,0.0,0.0,0.0,0.0,0.0,0.0,0.0,0.0,0.0,0.0,0.0,0.0,0.0,0.0,0.0,0.0,0.0,0.0,0.0,0.0,0.0,0.0,0.0,0.0,0.0,2.6029,0.0,0.0,0.0,0.0,0.0,0.0,0.0,0.0,0.0,0.0,0.0,0.0,0.0,0.0,0.0,0.0,0.0,0.0,0.0,0.0,0.0,0.0,0.0,0.0,0.0,0.0,0.0,0.0,0.0,0.0,0.0,0.0,0.0,0.0,0.0,0.0,0.0,0.0,0.0,0.0,0.0,0.0,0.0,0.0,0.0,0.0,0.0,0.0,0.0,0.0,0.0,0.0,0.0,0.0,0.0,0.0,0.0,0.0,0.0,2.7375,2.8207,2.8417,2.8497,2.8337,2.7615,2.6947,0.0,0.0,0.0,0.0,0.0,0.0,0.0,0.0,0.0,0.0,0.0,0.0,0.0,0.0,0.0,0.0,0.0,0.0,0.0,0.0,0.0,0.0,0.0,0.0,0.0,0.0,0.0,0.0,0.0,0.0,0.0,0.0,0.0,0.0,0.0,0.0,0.0,0.0,0.0,0.0,0.0,0.0,0.0,0.0,0.0,0.0,0.0,0.0,0.0,0.0,0.0,0.0,0.0,0.0,0.0,0.0,0.0,0.0,0.0,0.0,0.0,0.0,0.0,0.0,0.0,0.0,0.0,0.0,0.0,0.0,0.0,0.0,0.0,0.0,0.0,0.0,0.0,0.0,0.0,0.0,0.0,0.0,0.0,0.0,0.0,0.0,0.0,0.0,0.0,0.0,0.0,0.0,0.0,0.0,0.0,0.0,0.0,0.0,0.0,0.0,0.0,0.0,0.0,0.0,0.0,0.0,0.0,2.7321,2.7936,2.8368,2.8831,2.8991,2.8738,2.8444,2.7749,2.664,0.0,0.0,0.0,0.0,0.0,0.0,0.0,0.0,0.0,0.0,0.0,0.0,0.0,0.0,0.0,0.0,0.0,0.0,0.0,0.0,0.0,0.0,0.0,0.0,0.0,0.0,0.0,0.0,0.0,0.0,0.0,0.0,0.0,0.0,0.0,0.0,0.0,0.0,2.4185,2.4102,0.0,0.0,0.0,0.0,0.0,0.0,0.0,0.0,2.4049,0.0,0.0,0.0,0.0,0.0,0.0,0.0,0.0,0.0,0.0,0.0,0.0,0.0,0.0,0.0,0.0,0.0,0.0,0.0,0.0,0.0,0.0,0.0,0.0,0.0,0.0,0.0,0.0,0.0,0.0,0.0,0.0,0.0,0.0,0.0,0.0,0.0,0.0,0.0,0.0,0.0,0.0,0.0,0.0,0.0,0.0,0.0,0.0,0.0,0.0,0.0,0.0,0.0,0.0,0.0,0.0,2.6747,2.7615,2.8337,2.8871,2.9232,2.9392,2.9339,2.9058,2.8444,2.7522,0.0,0.0,0.0,0.0,0.0,0.0,0.0,0.0,0.0,0.0,0.0,0.0,0.0,0.0,0.0,0.0,0.0,0.0,0.0,0.0,0.0,0.0,0.0,0.0,0.0,0.0,0.0,0.0,0.0,0.0,0.0,0.0,0.0,0.0,0.0,0.0,0.0,0.0,0.0,2.2632,2.2689,0.0,0.0,0.0,0.0,0.0,0.0,0.0,0.0,2.2077,0.0,0.0,0.0,0.0,0.0,0.0,0.0,0.0,0.0,0.0,0.0,0.0,0.0,0.0,0.0,0.0,0.0,0.0,0.0,0.0,0.0,0.0,0.0,0.0,0.0,0.0,0.0,0.0,0.0,0.0,0.0,0.0,0.0,0.0,0.0,0.0,0.0,0.0,0.0,0.0,0.0,0.0,0.0,0.0,0.0,0.0,0.0,0.0,0.0,0.0,0.0,0.0,0.0,0.0,0.0,2.7281,2.8003,2.8671,2.9259,2.9553,2.9633,2.9486,2.9192,2.8684,0.0,0.0,0.0,0.0,0.0,0.0,0.0,0.0,0.0,0.0,0.0,0.0,0.0,0.0,0.0,0.0,0.0,0.0,0.0,0.0,0.0,0.0,0.0,0.0,0.0,0.0,0.0,0.0,0.0,0.0,0.0,0.0,0.0,0.0,0.0,0.0,0.0,0.0,0.0,0.0,2.1443,2.1266,2.1289,0.0,0.0,0.0,0.0,0.0,0.0,2.0664,2.0336,0.0,0.0,0.0,0.0,0.0,0.0,0.0,0.0,0.0,0.0,0.0,0.0,0.0,0.0,0.0,0.0,0.0,0.0,0.0,0.0,0.0,0.0,0.0,0.0,0.0,0.0,0.0,0.0,0.0,0.0,0.0,0.0,0.0,0.0,0.0,0.0,0.0,0.0,0.0,0.0,0.0,0.0,0.0,0.0,0.0,0.0,0.0,0.0,0.0,0.0,0.0,0.0,0.0,0.0,0.0,2.7776,2.839,2.8978,2.9553,2.9793,2.9833,2.9659,2.9259,2.8791,0.0,0.0,0.0,0.0,0.0,0.0,0.0,0.0,0.0,0.0,0.0,0.0,0.0,0.0,0.0,0.0,0.0,0.0,0.0,0.0,0.0,0.0,0.0,0.0,0.0,0.0,0.0,0.0,0.0,0.0,0.0,0.0,0.0,0.0,0.0,0.0,0.0,0.0,0.0,0.0,0.0,1.9802,1.9959,1.9951,0.0,0.0,0.0,0.0,1.9261,1.9219,0.0,0.0,0.0,0.0,0.0,0.0,0.0,0.0,0.0,0.0,0.0,0.0,0.0,0.0,0.0,0.0,0.0,0.0,0.0,0.0,0.0,0.0,0.0,0.0,0.0,0.0,0.0,0.0,0.0,0.0,0.0,0.0,0.0,0.0,0.0,0.0,0.0,0.0,0.0,0.0,0.0,0.0,0.0,0.0,0.0,0.0,0.0,0.0,0.0,0.0,0.0,0.0,0.0,0.0,0.0,0.0,2.8167,2.8684,2.9272,2.9833,2.99,3.002,3.0234,2.9472,2.8885,0.0,0.0,0.0,0.0,0.0,0.0,0.0,0.0,0.0,0.0,0.0,0.0,0.0,0.0,0.0,0.0,0.0,0.0,0.0,0.0,0.0,0.0,0.0,0.0,0.0,0.0,0.0,0.0,0.0,0.0,0.0,0.0,0.0,0.0,0.0,0.0,0.0,0.0,0.0,0.0,0.0,1.8527,1.8544,1.8459,1.8382,0.0,0.0,1.8686,1.8168,1.8072,0.0,0.0,0.0,0.0,0.0,0.0,0.0,0.0,0.0,0.0,0.0,0.0,0.0,0.0,0.0,0.0,0.0,0.0,0.0,0.0,0.0,0.0,0.0,0.0,0.0,0.0,0.0,0.0,0.0,0.0,0.0,0.0,0.0,0.0,0.0,0.0,0.0,0.0,0.0,0.0,0.0,0.0,0.0,0.0,0.0,0.0,0.0,0.0,0.0,0.0,0.0,0.0,0.0,0.0,0.0,2.7642,2.839,2.8991,2.9579,3.014,3.0327,3.0394,3.0354,2.9833,2.9325,0.0,0.0,0.0,0.0,0.0,0.0,0.0,0.0,0.0,0.0,0.0,0.0,0.0,0.0,0.0,0.0,0.0,0.0,0.0,0.0,0.0,0.0,0.0,0.0,0.0,0.0,0.0,0.0,0.0,0.0,0.0,0.0,0.0,0.0,0.0,0.0,0.0,0.0,0.0,0.0,0.0,0.0,1.7529,1.7561,0.0,0.0,0.0,1.7596,1.7202,0.0,0.0,0.0,0.0,0.0,0.0,0.0,0.0,0.0,0.0,0.0,0.0,0.0,0.0,0.0,0.0,0.0,0.0,0.0,0.0,0.0,0.0,0.0,0.0,0.0,0.0,0.0,0.0,0.0,0.0,0.0,0.0,0.0,0.0,0.0,0.0,0.0,0.0,0.0,0.0,0.0,0.0,0.0,0.0,0.0,0.0,0.0,0.0,0.0,0.0,0.0,0.0,0.0,0.0,0.0,0.0,0.0,2.8711,2.9299,2.9873,3.0448,3.0675,3.0688,3.0474,3.0114,0.0,0.0,0.0,0.0,0.0,0.0,0.0,0.0,0.0,0.0,0.0,0.0,0.0,0.0,0.0,0.0,0.0,0.0,0.0,0.0,0.0,0.0,0.0,0.0,0.0,0.0,0.0,1.9157,0.0,0.0,0.0,0.0,0.0,0.0,0.0,0.0,0.0,0.0,0.0,0.0,0.0,0.0,1.6656,1.6781,1.678,1.6821,0.0,0.0,1.6875,1.6602,1.6616,1.6411,0.0,0.0,0.0,0.0,0.0,0.0,0.0,0.0,0.0,0.0,0.0,0.0,0.0,0.0,0.0,0.0,0.0,0.0,0.0,0.0,0.0,0.0,0.0,0.0,0.0,0.0,0.0,0.0,0.0,0.0,0.0,0.0,0.0,0.0,0.0,0.0,0.0,0.0,0.0,0.0,0.0,0.0,0.0,0.0,0.0,0.0,0.0,0.0,0.0,0.0,0.0,0.0,0.0,0.0,0.0,2.9005,2.9593,3.0167,3.0742,3.0782,3.0782,3.0755,3.0221,2.9646,0.0,0.0,0.0,0.0,0.0,0.0,0.0,0.0,0.0,0.0,0.0,0.0,0.0,0.0,0.0,0.0,0.0,0.0,0.0,0.0,0.0,0.0,0.0,0.0,0.0,0.0,0.0,0.0,0.0,0.0,0.0,0.0,0.0,0.0,0.0,0.0,0.0,0.0,0.0,0.0,0.0,1.6373,1.6387,1.6258,1.6155,0.0,1.6387,1.6564,1.6476,1.6476,1.6435,1.63,0.0,0.0,0.0,0.0,0.0,0.0,0.0,0.0,0.0,0.0,0.0,0.0,0.0,0.0,0.0,0.0,0.0,0.0,0.0,0.0,0.0,0.0,0.0,0.0,0.0,0.0,0.0,0.0,0.0,0.0,0.0,0.0,0.0,0.0,0.0,0.0,0.0,0.0,0.0,0.0,0.0,0.0,0.0,0.0,0.0,0.0,0.0,0.0,0.0,0.0,0.0,0.0,0.0,2.843,2.9032,2.9793,3.0381,3.0782,3.1142,3.1249,3.1062,3.0662,3.0,0.0,0.0,0.0,0.0,0.0,0.0,0.0,0.0,0.0,0.0,0.0,0.0,0.0,0.0,0.0,0.0,0.0,0.0,0.0,0.0,0.0,0.0,0.0,0.0,0.0,0.0,0.0,0.0,1.6065,1.56,1.544,0.0,0.0,0.0,0.0,0.0,0.0,0.0,0.0,0.0,0.0,1.6202,1.6202,1.6264,0.0,0.0,1.6449,1.6517,1.6517,1.6517,1.6503,1.6449,1.6395,0.0,0.0,0.0,0.0,0.0,0.0,0.0,0.0,0.0,0.0,0.0,0.0,0.0,0.0,0.0,0.0,0.0,0.0,0.0,0.0,0.0,0.0,0.0,0.0,0.0,0.0,0.0,0.0,0.0,0.0,0.0,0.0,0.0,0.0,0.0,0.0,0.0,0.0,0.0,0.0,0.0,0.0,0.0,0.0,0.0,0.0,0.0,0.0,0.0,0.0,0.0,0.0,2.8711,2.9211,3.0087,3.0543,3.0743,3.1221,3.1246,3.0754,3.0557,2.9991,0.0,0.0,0.0,0.0,0.0,0.0,0.0,0.0,0.0,0.0,0.0,0.0,0.0,0.0,0.0,0.0,0.0,0.0,0.0,0.0,0.0,0.0,0.0,0.0,0.0,0.0,0.0,0.0,1.5337,1.4944,1.4706,0.0,0.0,0.0,0.0,0.0,0.0,0.0,0.0,0.0,0.0,1.6212,1.6218,1.6429,1.6592,1.6592,1.6625,1.6659,1.6659,1.6659,1.6646,1.6598,0.0,0.0,0.0,0.0,0.0,0.0,0.0,0.0,0.0,0.0,0.0,0.0,0.0,0.0,0.0,0.0,0.0,0.0,0.0,0.0,0.0,0.0,0.0,0.0,0.0,0.0,0.0,2.7363,0.0,0.0,2.7295,0.0,0.0,0.0,0.0,0.0,0.0,0.0,0.0,0.0,0.0,0.0,0.0,0.0,0.0,0.0,0.0,0.0,0.0,0.0,0.0,0.0,0.0,2.9312,2.9887,3.0488,3.0664,3.0486,3.0773,3.0501,2.9746,2.9708,2.9161,2.8173,0.0,0.0,0.0,0.0,0.0,0.0,0.0,0.0,0.0,0.0,0.0,0.0,0.0,0.0,0.0,0.0,0.0,0.0,0.0,0.0,0.0,0.0,0.0,0.0,0.0,0.0,1.5447,1.4992,1.4719,0.0,0.0,0.0,0.0,0.0,0.0,0.0,0.0,0.0,1.6062,1.6327,1.651,1.651,1.6646,1.6748,1.6748,1.687,1.6965,1.6958,1.6965,1.6924,0.0,0.0,0.0,0.0,0.0,0.0,0.0,0.0,0.0,0.0,0.0,0.0,0.0,0.0,0.0,0.0,0.0,0.0,0.0,0.0,0.0,0.0,0.0,0.0,0.0,0.0,0.0,2.8444,2.8444,0.0,0.0,0.0,0.0,0.0,0.0,0.0,0.0,0.0,0.0,0.0,3.1517,3.1623,0.0,0.0,0.0,0.0,0.0,0.0,0.0,0.0,0.0,0.0,0.0,0.0,2.9535,2.9388,3.0319,3.0479,2.9728,3.0156,2.9979,2.9235,2.9039,2.821,2.6853,0.0,0.0,0.0,0.0,0.0,0.0,0.0,0.0,0.0,0.0,0.0,0.0,0.0,0.0,0.0,0.0,0.0,0.0,0.0,0.0,0.0,0.0,0.0,0.0,0.0,1.5317,0.0,0.0,0.0,0.0,0.0,0.0,0.0,0.0,0.0,0.0,0.0,1.6266,1.6361,1.6544,1.6673,1.6673,1.6802,1.6904,0.0,0.0,0.0,0.0,0.0,0.0,0.0,0.0,0.0,0.0,0.0,0.0,0.0,0.0,1.6164,1.5967,1.5689,1.5486,1.5486,0.0,0.0,0.0,0.0,0.0,0.0,0.0,0.0,0.0,0.0,0.0,0.0,0.0,0.0,2.9339,0.0,2.9352,0.0,0.0,0.0,0.0,0.0,0.0,0.0,0.0,3.1503,3.1891,3.2251,3.2265,3.2358,0.0,3.2151,3.1577,0.0,0.0,0.0,0.0,0.0,0.0,0.0,0.0,2.9339,2.9103,2.9909,2.9808,2.8753,2.9065,2.8816,2.7974,2.7404,2.6494,2.5436,2.4156,2.3058,0.0,0.0,0.0,0.0,0.0,0.0,0.0,0.0,0.0,0.0,0.0,0.0,0.0,0.0,0.0,0.0,0.0,0.0,0.0,0.0,0.0,0.0,0.0,1.5493,0.0,0.0,0.0,0.0,0.0,0.0,0.0,0.0,0.0,1.6259,1.6368,1.6497,1.6592,1.6734,1.6829,1.6829,0.0,0.0,0.0,0.0,0.0,0.0,0.0,1.6978,1.6978,1.6978,1.6978,1.6978,1.6897,1.6802,1.67,0.0,0.0,1.6279,1.6035,1.5872,1.5872,1.5832,1.5791,1.5791,1.5791,1.5764,0.0,0.0,0.0,0.0,0.0,0.0,0.0,0.0,3.0007,3.0007,0.0,2.9993,0.0,0.0,0.0,0.0,3.0474,3.1276,0.0,0.0,3.2305,3.2585,3.2599,3.2612,3.2612,3.2599,3.2012,3.1692,3.1627,3.0847,0.0,0.0,0.0,0.0,0.0,0.0,2.8816,2.886,2.9085,2.8668,2.7346,2.7509,2.7136,2.6029,2.4902,2.4085,2.3776,2.2606,2.1537,2.0864,2.0377,0.0,0.0,0.0,0.0,0.0,0.0,0.0,0.0,0.0,0.0,0.0,0.0,0.0,0.0,0.0,0.0,0.0,0.0,0.0,0.0,1.6008,0.0,0.0,0.0,0.0,0.0,0.0,0.0,0.0,0.0,0.0,1.6598,1.6686,1.6664,1.6775,0.0,0.0,0.0,0.0,1.6998,1.6893,1.6992,1.6998,1.6893,1.6998,1.6998,1.6998,0.0,0.0,1.6985,1.6985,1.6971,1.6978,1.6849,1.6707,1.6578,1.6408,1.6307,1.63,1.6185,1.6103,1.6096,1.611,1.611,3.332,0.0,0.0,0.0,0.0,3.1797,3.1797,3.177,3.157,3.1476,3.1463,3.1263,0.0,0.0,0.0,0.0,0.0,0.0,3.2211,3.2612,3.2986,3.328,3.3507,3.3316,3.3206,3.3193,3.2073,3.1365,3.1164,2.9649,2.908,2.9312,0.0,0.0,0.0,0.0,2.8235,2.7541,2.8136,2.7491,2.5655,2.5875,2.5409,2.4142,2.2819,2.2086,2.2031,2.0977,2.0125,1.9467,1.9367,0.0,0.0,0.0,0.0,0.0,0.0,0.0,0.0,0.0,0.0,0.0,0.0,0.0,0.0,0.0,0.0,0.0,0.0,0.0,1.6327,1.6368,1.6395,0.0,0.0,0.0,0.0,0.0,0.0,0.0,0.0,0.0,1.7175,1.7202,1.7229,0.0,0.0,1.6648,1.6641,1.6327,1.6005,1.6011,1.6011,0.0,1.6005,1.6327,1.6648,1.6648,1.6883,1.7134,1.7134,1.7053,1.6978,1.6978,1.6944,1.6931,1.6971,1.67,1.6483,1.6456,1.6422,1.6395,1.6402,1.6476,1.6558,3.5645,3.4643,3.3654,3.3253,3.3253,3.3253,3.3253,3.324,3.3066,3.2919,3.2799,3.2625,3.2478,3.2372,3.2358,0.0,0.0,0.0,3.2901,3.3034,3.3338,3.3475,3.3353,3.2995,3.2865,3.2749,3.1243,3.0454,3.0298,2.82,2.7291,2.765,0.0,0.0,2.7099,2.7398,2.7048,2.5994,2.6493,2.5753,2.3619,2.3409,2.2949,2.211,2.0995,2.0493,2.0493,1.9613,1.8869,1.8556,1.8353,1.8067,0.0,0.0,0.0,0.0,0.0,0.0,0.0,0.0,0.0,0.0,0.0,1.5988,1.5988,0.0,0.0,0.0,1.653,1.6707,1.67,1.6809,0.0,0.0,0.0,0.0,0.0,0.0,0.0,1.727,1.7203,1.7182,1.7182,1.7018,1.6903,1.7001,1.6766,1.6334,1.5902,0.0,1.5152,1.4935,1.4929,1.4935,1.4929,1.547,1.5902,1.6118,1.6593,1.6963,1.6956,1.6996,1.7154,1.7154,1.7154,1.7182,1.727,1.706,1.6876,1.6876,1.6876,1.6876,1.6876,1.6951,1.7019,3.7769,3.7328,3.5458,3.4616,3.4523,3.4509,3.4496,3.4482,3.4442,3.4269,3.4028,3.4002,3.3841,3.3587,3.346,0.0,3.346,3.3753,3.3465,3.2942,3.3253,3.3188,3.2565,3.1941,3.172,3.1604,2.9898,2.8932,2.8794,2.6578,2.5226,2.5026,2.5439,2.5692,2.5829,2.584,2.535,2.4337,2.4557,2.3648,2.1499,2.0638,2.0216,2.0111,1.9433,1.9037,1.903,1.8378,1.799,1.799,1.7588,1.7274,1.7267,0.0,0.0,0.0,0.0,0.0,0.0,0.0,0.0,0.0,0.0,0.0,0.0,0.0,0.0,1.6571,1.6842,0.0,1.7012,1.7256,0.0,0.0,0.0,1.7426,1.7331,1.7331,1.7338,1.7257,0.0,0.0,1.6711,1.6268,1.6028,1.6212,1.627,1.5939,1.4759,1.4548,1.4314,1.3689,1.3667,1.3662,1.3575,1.4113,1.4765,1.5313,1.6035,1.6347,1.6347,1.6867,1.7311,1.7291,1.7419,1.7419,1.7433,1.7419,1.7439,1.7433,1.7412,1.7399,1.7378,1.7392,1.7419,3.8865,3.837,3.7889,3.7155,3.6299,3.6072,3.5979,3.5952,3.5511,3.5284,3.5204,3.4977,3.4843,3.4776,3.4242,3.4137,3.4046,3.3692,3.3193,3.2679,3.2942,3.2747,3.213,3.1341,3.0897,3.0604,2.836,2.7118,2.6835,2.449,2.3202,2.3157,2.2425,2.2599,2.3644,2.3871,2.3441,2.2322,2.2521,2.1794,2.0031,1.935,1.9059,1.8955,1.8395,1.8171,1.8171,1.7621,1.7287,1.7287,1.7183,1.703,1.6803,1.67,0.0,0.0,0.0,0.0,0.0,0.0,0.0,0.0,0.0,1.6571,1.6583,0.0,1.6917,0.0,1.7202,1.7317,1.7317,1.7378,0.0,0.0,1.7419,1.725,1.6922,1.6935,1.6801,1.6577,1.607,1.5677,1.5777,1.5361,1.4677,1.3823,1.4341,1.4376,1.3339,1.2617,1.2154,1.1652,1.1501,1.1462,1.1568,1.2343,1.3333,1.4442,1.5023,1.5397,1.5397,1.6073,1.6766,1.6766,1.7096,1.7358,1.746,1.7595,1.7636,1.7717,1.7582,1.7419,1.7419,1.7514,1.7629,3.9987,3.968,3.9559,3.9038,3.8263,3.7582,3.7288,3.7248,3.6794,3.6527,3.6393,3.5774,3.536,3.4919,3.4368,3.3981,3.3867,3.333,3.2564,3.1713,3.1844,3.148,3.0608,2.9635,2.9084,2.8845,2.6404,2.52,2.4967,2.2813,2.1707,2.1624,2.0571,2.0513,2.1207,2.1804,2.1752,2.0812,2.0418,1.9765,1.8753,1.823,1.7915,1.7915,1.7601,1.7503,1.7398,1.7188,1.6978,1.6978,1.6978,1.6971,1.6951,1.6944,1.6944,0.0,0.0,0.0,0.0,0.0,0.0,0.0,0.0,0.0,0.0,0.0,1.7209,1.729,1.7433,1.7548,1.7609,1.7458,1.7305,1.7372,1.7157,1.6748,1.6268,1.6274,1.5994,1.5575,1.4796,1.4252,1.4321,1.3528,1.2501,1.1355,1.1611,1.1789,1.1149,1.0672,1.0208,0.9451,0.9196,0.9384,0.9805,1.0436,1.13,1.2525,1.3369,1.3869,1.3869,1.5029,1.5973,1.5973,1.6634,1.7206,1.7292,1.7525,1.7772,1.7812,1.7738,1.7629,1.7623,1.7738,1.7874,4.1096,4.1002,4.0748,4.036,4.0,3.8895,3.8362,3.8242,3.7936,3.7556,3.7191,3.6341,3.5399,3.4615,3.3912,3.3433,3.3225,3.2564,3.156,3.0442,3.0442,2.9777,2.8666,2.7439,2.686,2.6729,2.4461,2.3311,2.3182,2.1438,2.039,2.0244,1.955,1.9082,1.9058,2.0023,2.0192,1.9677,1.8572,1.7904,1.7769,1.7243,1.7039,1.7039,1.7039,1.7039,1.7039,1.7039,1.7039,1.7039,1.7039,1.7093,1.7216,1.7222,1.7283,0.0,1.7419,0.0,0.0,0.0,0.0,0.0,0.0,0.0,0.0,1.7399,1.7317,1.7317,1.7438,1.7565,1.7686,1.7255,1.704,1.7161,1.6613,1.5931,1.5242,1.5128,1.4906,1.4233,1.3091,1.2291,1.2314,1.1274,1.0016,0.9108,0.876,0.8641,0.8408,0.8504,0.8145,0.7013,0.6781,0.7205,0.8186,0.8469,0.8883,1.0116,1.1218,1.1987,1.1987,1.3531,1.4858,1.508,1.596,1.6748,1.6982,1.7418,1.7749,1.7867,1.7846,1.784,1.7853,1.7955,1.8091,4.2058,4.1617,4.1563,4.1004,4.0193,3.9487,3.8807,3.814,3.7852,3.7116,3.6099,3.572,3.5111,3.4348,3.3101,3.2527,3.2366,3.1349,3.0087,2.8925,2.8936,2.8243,2.7087,2.5802,2.514,2.4872,2.2875,2.1812,2.1677,2.0154,1.9501,1.9465,1.8769,1.8516,1.8488,0.0,0.0,0.0,1.793,1.7472,1.7445,1.7338,1.7338,1.7338,1.7338,0.0,1.7338,1.7338,1.7338,1.7338,1.7338,0.0,0.0,0.0,0.0,0.0,0.0,0.0,0.0,0.0,0.0,0.0,1.7399,1.7485,1.7812,1.7557,1.7134,1.669,1.6715,1.674,1.6765,1.6217,1.5787,1.5811,1.5356,1.4559,1.3528,1.33,1.2872,1.1926,1.0665,0.9877,0.9931,0.8895,0.7844,0.7143,0.656,0.5858,0.4922,0.5563,0.5645,0.4633,0.4388,0.4825,0.5845,0.6063,0.6505,0.7767,0.886,0.9617,0.9835,1.1575,1.3197,1.3647,1.4753,1.5874,1.6767,1.7099,1.7314,1.7867,1.786,1.786,1.7867,1.7982,1.8131,4.2571,4.1909,4.1764,4.0908,0.0,3.931,3.8186,3.6772,3.7066,3.6292,3.4726,3.4608,3.4005,3.2816,3.1371,3.0612,3.0505,2.9118,2.7912,2.6734,2.6617,2.6032,2.4859,2.3927,2.3406,2.3206,2.1587,2.0803,2.0604,1.9718,1.9184,1.9108,1.8762,1.8579,1.843,1.8355,1.8209,1.8079,1.7745,1.7568,1.7426,1.7419,1.7419,1.7419,1.7419,0.0,0.0,0.0,0.0,0.0,0.0,0.0,0.0,1.7202,0.0,1.7206,1.6943,1.6904,1.6982,1.7111,1.6996,1.6389,1.623,1.6344,1.6646,1.6533,1.6152,1.5589,1.5583,1.5612,1.567,1.476,1.4208,1.426,1.3578,1.2539,1.1378,1.1147,1.0584,0.9458,0.8186,0.7496,0.7523,0.6471,0.5423,0.4852,0.4382,0.3795,0.2735,0.3409,0.373,0.2924,0.279,0.3006,0.3814,0.4032,0.4367,0.5395,0.6408,0.7077,0.7189,0.9207,1.099,1.1663,1.3088,1.4736,1.5964,1.6589,1.721,1.7756,1.786,1.786,1.7874,1.8043,1.8247,4.2521,4.1792,4.1521,4.0299,3.8577,3.8297,3.6855,3.4512,3.549,0.0,0.0,3.3038,3.2311,3.079,2.9231,2.8444,2.8148,2.68,2.5552,2.4477,2.4468,2.3875,2.2687,2.2107,2.1876,2.1749,2.0646,2.0014,1.9993,1.9489,1.9169,1.904,1.9027,1.8898,1.866,1.8531,1.8342,1.807,1.7982,1.7826,1.7589,1.7582,1.7582,1.7582,1.7582,1.7568,1.7541,1.7541,1.7433,1.7426,1.7317,1.7391,1.7429,1.6879,1.6605,1.6719,1.6273,1.5996,1.5996,1.614,1.5905,1.5137,1.4623,1.4528,1.5011,1.5131,1.4798,1.4103,1.4103,1.4145,1.4228,1.3082,1.2299,1.2497,1.1436,1.0132,0.8954,0.8706,0.8227,0.7059,0.5882,0.5182,0.5189,0.425,0.3314,0.2741,0.2627,0.2034,0.1202,0.167,0.213,0.1657,0.1532,0.1758,0.2221,0.2444,0.2661,0.3353,0.4267,0.4951,0.5411,0.6895,0.8613,0.9629,1.1515,1.3172,1.4741,1.5919,1.6942,1.7686,1.7901,1.7907,1.7928,1.8124,1.8342,4.1822,4.0907,4.0645,3.9059,3.6753,3.651,3.4597,3.1876,3.2936,3.2554,3.0988,3.0793,2.9963,2.8692,2.7124,2.628,2.6254,2.5013,2.4024,2.3288,2.3288,2.2919,2.2066,2.145,2.1211,2.1196,2.0331,1.9834,1.9718,1.9468,1.9318,1.9196,1.9169,1.9156,1.9108,1.9088,1.8993,1.883,1.845,1.8233,1.8192,1.8192,1.8192,1.8192,1.8186,1.8131,1.8002,1.7996,1.7766,1.7321,1.7209,1.7057,1.6633,1.6062,1.5741,1.5645,1.5208,1.4873,1.4879,1.4962,1.4714,1.3714,1.2691,1.2417,1.3376,1.3685,1.3258,1.2069,1.1933,1.1954,1.1852,1.0767,0.9932,0.9946,0.8948,0.7608,0.6418,0.6148,0.5772,0.4597,0.3652,0.3191,0.3208,0.2618,0.2149,0.1923,0.1567,0.0964,0.0483,0.0241,0.0361,0.024,0.024,0.0479,0.107,0.1188,0.1418,0.1998,0.2685,0.3255,0.3719,0.5085,0.6561,0.816,0.9636,1.1338,1.3389,1.4976,1.6038,1.707,1.761,1.7945,1.8063,1.8206,1.8335,4.0442,3.9224,3.8975,3.7186,3.4317,3.2504,3.0678,2.9142,2.8892,2.8733,2.8664,2.8467,2.763,2.6339,2.5056,2.4442,2.4434,2.3354,2.2573,2.1953,2.1961,2.1589,2.0968,2.072,2.0596,2.0596,2.0154,1.9963,1.9895,1.9827,1.9759,1.9685,1.9535,1.9454,1.944,1.9284,1.9169,1.9101,1.8749,1.8518,1.8437,1.8362,1.8321,1.8321,1.8321,1.8061,1.7762,1.7762,1.7304,1.6288,1.6288,1.5979,1.5464,1.4559,1.3984,1.3989,1.324,1.2723,1.2779,1.2267,1.1818,1.1303,1.0151,0.9438,0.9161,1.0472,1.0712,0.9511,0.9391,0.9391,0.9391,0.819,0.7468,0.7468,0.6245,0.5156,0.4314,0.4064,0.3697,0.2864,0.2148,0.1793,0.1799,0.12,0.0843,0.0849,0.0,0.0,0.0,0.0,0.0,0.0,0.0,0.0,0.0,0.036,0.0598,0.0831,0.1301,0.1766,0.2229,0.3383,0.5008,0.6515,0.8001,0.9938,1.235,1.3792,1.4992,1.6426,1.7304,1.7762,1.812,1.8335,1.8457,3.8532,3.7058,3.6678,3.4789,3.1682,2.8606,2.7082,2.6687,2.5461,2.5364,2.5993,2.6168,2.5531,2.431,2.3424,2.2908,2.2862,2.1991,2.1441,2.0949,2.0949,2.07,2.02,2.02,2.02,2.02,2.02,2.0187,2.0153,2.0153,2.0132,2.0085,1.9875,1.9759,1.9759,1.9522,1.9286,1.9146,1.8905,1.8788,1.8687,1.8572,1.8403,1.8289,1.8295,1.7932,1.7206,1.7085,1.6398,1.5137,1.5022,1.4678,1.3873,1.2742,1.205,1.1921,1.0956,1.0345,1.0313,0.9351,0.8707,0.8617,0.7568,0.6373,0.5514,0.6944,0.776,0.6908,0.6787,0.6787,0.6668,0.5818,0.509,0.509,0.4114,0.3144,0.2538,0.2414,0.2171,0.1569,0.0965,0.0724,0.0605,0.0242,0.0,0.0,0.0,0.0,0.0,0.0,0.0,0.0,0.0,0.0,0.0,0.0,0.0,0.0,0.0358,0.0832,0.1182,0.2241,0.3649,0.4936,0.6553,0.8508,1.0824,1.2631,1.4067,1.5635,1.6769,1.768,1.8255,1.8443,1.8572,3.5764,3.442,3.4067,3.2091,2.8863,2.6212,2.5109,2.4914,2.4127,2.3399,2.3193,2.3823,2.3858,2.2951,2.2274,2.1924,2.1668,2.1013,2.0619,2.0612,2.0499,2.0499,2.0485,2.0492,2.0499,2.0492,2.0485,2.0417,2.0309,2.0309,2.0241,2.0119,2.0071,2.0058,2.0051,2.0024,1.9639,1.915,1.9,1.8964,1.9169,1.9128,1.8767,1.8293,1.8168,1.7526,1.6209,1.6221,1.5392,1.3621,1.3376,1.2914,1.1742,1.0502,0.9791,0.9728,0.8603,0.7955,0.8014,0.6937,0.6126,0.6079,0.5096,0.4106,0.3361,0.3483,0.3843,0.4069,0.4183,0.4302,0.4183,0.369,0.3319,0.3316,0.2569,0.1829,0.1341,0.109,0.0844,0.0241,0.0,0.0,0.0,0.0,0.0,0.0,0.0,0.0,0.0,0.0,0.0,0.0,0.0,0.0,0.0,0.0,0.0,0.0,0.0,0.0,0.0834,0.1066,0.1767,0.3784,0.495,0.6824,0.9276,1.1487,1.3435,1.4742,1.6217,1.7715,1.8282,1.8531,1.8606,3.3065,3.1456,3.1251,2.9489,2.6596,2.4683,2.3709,2.3532,2.2806,2.2195,2.1965,2.2221,2.2217,2.1808,2.1464,2.1211,2.1065,2.081,2.0627,2.0546,2.0539,2.0539,2.0539,2.0539,2.0539,2.0539,2.0539,2.0512,2.0465,2.0458,2.0424,2.0356,2.0282,1.9984,1.972,1.9522,1.8978,1.7851,1.7796,1.7688,1.7397,1.7894,1.7738,1.7192,1.7067,1.6203,1.472,1.4477,1.3406,1.1255,1.1017,1.042,0.9228,0.7938,0.7217,0.7199,0.6162,0.548,0.552,0.4685,0.4099,0.4142,0.3266,0.2512,0.1885,0.1885,0.1756,0.1625,0.2357,0.2714,0.2715,0.2222,0.1852,0.1728,0.1231,0.0,0.0495,0.0,0.0247,0.0,0.0,0.0,0.0,0.0,0.0,0.0,0.0,0.0,0.0,0.0,0.0,0.0,0.0,0.0,0.0,0.0,0.0,0.0,0.0,0.0,0.0,0.0,0.1434,0.2984,0.3936,0.5472,0.7941,0.9704,1.1566,1.3474,1.5994,1.7852,1.8083,1.8429,1.8701,3.0238,2.8918,2.8259,2.6793,2.476,2.3487,2.2807,2.2468,2.2016,2.1645,2.1509,2.1502,2.1421,2.1265,2.1123,2.0973,2.0845,2.0838,2.0777,2.0675,2.0668,2.0668,2.0668,2.0668,2.0661,2.0668,2.0675,2.0648,2.0607,2.056,2.0412,2.0272,2.0185,1.9626,1.8856,1.8762,1.784,1.6447,1.6321,1.5802,1.5112,1.5644,1.5822,1.5718,1.5702,1.4718,1.2508,1.2387,1.1282,0.8725,0.8484,0.787,0.6652,0.5574,0.4856,0.4625,0.3917,0.3449,0.3349,0.2745,0.2387,0.2403,0.1773,0.1266,0.0886,0.076,0.0506,0.0252,0.0875,0.149,0.1362,0.0991,0.0743,0.0743,0.0248,0.0,0.0,0.0,0.0,0.0,0.0,0.0,0.0,0.0,0.0,0.0,0.0,0.0,0.0,0.0,0.0,0.0,0.0,0.0,0.0,0.0,0.0,0.0,0.0,0.0,0.0,0.0,0.0844,0.1921,0.277,0.4092,0.6216,0.787,1.008,1.2718,1.5132,1.7116,1.7459,1.8052,1.8523,2.741,2.6369,2.4652,2.3869,2.3406,2.2585,2.2106,2.2188,2.1937,2.1794,2.1658,2.1652,2.157,2.1414,2.1265,2.1123,2.1001,2.0994,2.0973,2.0953,2.096,2.0973,2.098,2.098,2.0973,2.0939,2.0933,2.0878,2.075,2.0621,2.0165,1.9522,1.9509,1.8873,1.7721,1.7454,1.6567,1.4632,1.4377,1.3834,1.261,1.2454,1.3021,1.3683,1.4058,1.2747,1.0448,1.0069,0.8801,0.6158,0.6031,0.5524,0.4153,0.3438,0.2842,0.2239,0.2118,0.2126,0.2014,0.1513,0.1139,0.1019,0.0638,0.0,0.0,0.0,0.0,0.0,0.0,0.0,0.0,0.0,0.0,0.0,0.0,0.0,0.0,0.0,0.0,0.0,0.0,0.0,0.0,0.0,0.0,0.0,0.0,0.0,0.0,0.0,0.0,0.0,0.0,0.0,0.0,0.0,0.0,0.0,0.0,0.0,0.0,0.0121,0.0,0.0966,0.1694,0.2901,0.4575,0.6818,0.9252,1.1667,1.3859,1.5487,1.6541,1.7355,1.7943,2.5852,2.482,2.363,2.3035,2.2876,2.2461,2.2201,2.2106,2.2052,2.1896,2.1699,2.1672,2.1584,2.1435,2.1387,2.1272,2.1143,2.1136,2.1089,2.1014,2.1001,2.1001,2.1001,2.1001,2.1001,2.1001,2.1001,2.066,2.014,2.0075,1.9357,1.8388,1.8254,1.7355,1.5822,1.5567,1.4282,1.2103,1.1718,1.1062,0.9756,0.9625,0.9481,0.907,1.063,1.0189,0.7534,0.7406,0.6397,0.413,0.4112,0.3599,0.2725,0.211,0.1369,0.0874,0.0753,0.0757,0.0635,0.0508,0.0383,0.0385,0.0129,0.0,0.0,0.0,0.0,0.0,0.0,0.0,0.0,0.0,0.0,0.0,0.0,0.0,0.0,0.0,0.0,0.0,0.0,0.0,0.0,0.0,0.0,0.0,0.0,0.0,0.0,0.0,0.0,0.0,0.0,0.0,0.0,0.0,0.0,0.0,0.0,0.0,0.0,0.0,0.0,0.0,0.1221,0.1947,0.3637,0.5877,0.832,1.0371,1.2569,1.4209,1.5493,1.6541,1.7355,2.4424,2.3699,2.3121,2.2696,2.254,2.2398,2.2283,2.2188,2.2181,2.2018,2.1781,2.174,2.1631,2.1462,2.1441,2.1394,2.1292,2.1285,2.1231,2.115,2.1143,2.1143,2.1143,2.1143,2.1143,2.1136,2.0828,2.0234,1.9358,1.9141,1.827,1.665,1.6483,1.5306,1.3518,1.3129,1.1714,0.9534,0.902,0.8248,0.7092,0.6832,0.6317,0.5666,0.689,0.6973,0.5064,0.5062,0.4297,0.2649,0.2387,0.2004,0.1378,0.0877,0.0502,0.0,0.0,0.0,0.0,0.0,0.0,0.0,0.0,0.0,0.0,0.0,0.0,0.0,0.0,0.0,0.0,0.0,0.0,0.0,0.0,0.0,0.0,0.0,0.0,0.0,0.0,0.0,0.0,0.0,0.0,0.0,0.0,0.0,0.0,0.0,0.0,0.0,0.0,0.0,0.0,0.0,0.0,0.0,0.0,0.0,0.0,0.0,0.0,0.0,0.0,0.0,0.2921,0.5054,0.7029,0.9081,1.0934,1.269,1.4088,1.572,1.6657,2.3137,2.3008,2.2846,2.2703,2.2561,2.2405,2.2337,2.2323,2.233,2.2154,2.1903,2.1882,2.1733,2.1509,2.1496,2.1462,2.1462,2.1462,2.1448,2.1421,2.1435,2.1435,2.1421,2.1421,2.1275,2.1262,2.0488,1.9371,1.8008,1.7671,1.6506,1.4802,1.4324,1.2873,1.0305,1.0177,0.8891,0.6832,0.6317,0.5544,0.4257,0.4257,0.3999,0.3224,0.3349,0.3336,0.3061,0.3061,0.2544,0.1265,0.101,0.0757,0.0,0.0,0.0,0.0,0.0,0.0,0.0,0.0,0.0,0.0,0.0,0.0,0.0,0.0,0.0,0.0,0.0,0.0,0.0,0.0,0.0,0.0,0.0,0.0,0.0,0.0,0.0,0.0,0.0,0.0,0.0,0.0,0.0,0.0,0.0,0.0,0.0,0.0,0.0,0.0,0.0,0.0,0.0,0.0,0.0,0.0,0.0,0.0,0.0,0.0,0.0,0.0,0.0,0.0,0.0,0.3846,0.5251,0.7218,0.9088,1.1051,1.2569,1.4204,1.5842,2.3198,2.313,2.2886,2.2757,2.2676,2.2445,2.2344,2.2344,2.2344,2.2221,2.2065,2.2038,2.193,2.1781,2.1747,2.174,2.1747,2.174,2.1692,2.1631,2.1699,2.1686,2.1611,2.1597,2.1277,2.0525,1.9406,1.8003,1.6714,1.5916,1.4378,1.2227,1.1632,1.0177,0.7607,0.7476,0.6317,0.4384,0.4127,0.3612,0.2839,0.271,0.2322,0.1677,0.1677,0.1417,0.1029,0.1414,0.1156,0.0384,0.0255,0.0254,0.0,0.0,0.0,0.0,0.0,0.0,0.0,0.0,0.0,0.0,0.0,0.0,0.0,0.0,0.0,0.0,0.0,0.0,0.0,0.0,0.0,0.0,0.0,0.0,0.0,0.0,0.0,0.0,0.0,0.0,0.0,0.0,0.0,0.0,0.0,0.0,0.0,0.0,0.0,0.0,0.0,0.0,0.0,0.0,0.0,0.0,0.0,0.0,0.0,0.0,0.0,0.0,0.0,0.0,0.0,0.2406,0.3824,0.5334,0.7304,0.9055,1.093,1.2686,1.4554,2.3219,2.3185,2.2907,2.2778,2.2751,2.2466,2.2344,2.2344,2.2344,2.2255,2.2133,2.2106,2.2032,2.1903,2.1882,2.1882,2.1889,2.1937,2.1916,2.1842,2.1848,2.1693,2.1336,2.0746,2.0011,1.9122,1.7735,1.6071,1.4398,1.3511,1.1726,0.9315,0.8841,0.7506,0.5306,0.5035,0.4127,0.2579,0.2322,0.2064,0.1419,0.129,0.1032,0.0645,0.0645,0.0387,0.0,0.0387,0.0387,0.0,0.0,0.0,0.0,0.0,0.0,0.0,0.0,0.0,0.0,0.0,0.0,0.0,0.0,0.0,0.0,0.0,0.0,0.0,0.0,0.0,0.0,0.0,0.0,0.0,0.0,0.0,0.0,0.0,0.0,0.0,0.0,0.0,0.0,0.0,0.0,0.0,0.0,0.0,0.0,0.0,0.0,0.0,0.0,0.0,0.0,0.0,0.0,0.0,0.0,0.0,0.0,0.0,0.0,0.0,0.0,0.0,0.1091,0.1328,0.24,0.3924,0.5649,0.7646,0.9641,1.1754,1.3742,2.3212,2.3171,2.29,2.2771,2.2723,2.2459,2.2344,2.2344,2.2344,2.2262,2.2154,2.2147,2.2065,2.1943,2.1957,2.1957,2.1943,2.1922,2.1846,2.1799,2.1603,2.1115,2.0398,1.9057,1.8043,1.7191,1.5498,1.3706,1.1938,1.0796,0.9044,0.6635,0.6168,0.5087,0.3389,0.298,0.2459,0.1295,0.1035,0.0647,0.0,0.0,0.0,0.0,0.0,0.0,0.0,0.0,0.0,0.0,0.0,0.0,0.0,0.0,0.0,0.0,0.0,0.0,0.0,0.0,0.0,0.0,0.0,0.0,0.0,0.0,0.0,0.0,0.0,0.0,0.0,0.0,0.0,0.0,0.0,0.0,0.0,0.0,0.0,0.0,0.0,0.0,0.0,0.0,0.0,0.0,0.0,0.0,0.0,0.0,0.0,0.0,0.0,0.0,0.0,0.0,0.0,0.0,0.0,0.0,0.0,0.0,0.0,0.0,0.0,0.0,0.0,0.0,0.0,0.3079,0.4829,0.6589,0.8585,1.0813,1.3046,2.3158,2.3049,2.2859,2.2717,2.2595,2.2411,2.2344,2.2344,2.2344,2.2316,2.2276,2.2283,2.2249,2.2221,2.2208,2.194,2.1377,2.1416,2.1028,2.0608,2.0025,1.9665,1.9027,1.768,1.6492,1.5475,1.314,1.1345,1.0215,0.8415,0.6659,0.4925,0.4226,0.3155,0.1708,0.1574,0.1049,0.0393,0.0,0.0,0.0,0.0,0.0,0.0,0.0,0.0,0.0,0.0,0.0,0.0,0.0,0.0,0.0,0.0,0.0,0.0,0.0,0.0,0.0,0.0,0.0,0.0,0.0,0.0,0.0,0.0,0.0,0.0,0.0,0.0,0.0,0.0,0.0,0.0,0.0,0.0,0.0,0.0,0.0,0.0,0.0,0.0,0.0,0.0,0.0,0.0,0.0,0.0,0.0,0.0,0.0,0.0,0.0,0.0,0.0,0.0,0.0,0.0,0.0,0.0,0.0,0.0,0.0,0.0,0.0,0.0,0.0,0.0,0.0,0.0,0.3769,0.5413,0.7646,0.9876,1.2461,2.3083,2.2988,2.2778,2.2635,2.254,2.2398,2.2344,2.2344,2.2344,2.2344,2.2344,2.2344,2.206,2.1777,2.1777,2.1224,2.0381,2.0249,1.9833,1.9134,1.8158,1.7565,1.7077,1.5599,1.4283,1.3272,1.0484,0.8676,0.7694,0.5902,0.4416,0.3074,0.2525,0.1722,0.0662,0.0528,0.0,0.0,0.0,0.0,0.0,0.0,0.0,0.0,0.0,0.0,0.0,0.0,0.0,0.0,0.0,0.0,0.0,0.0,0.0,0.0,0.0,0.0,0.0,0.0,0.0,0.0,0.0,0.0,0.0,0.0,0.0,0.0,0.0,0.0,0.0,0.0,0.0,0.0,0.0,0.0,0.0,0.0,0.0,0.0,0.0,0.0,0.0,0.0,0.0,0.0,0.0,0.0,0.0,0.0,0.0,0.0,0.0,0.0,0.0,0.0,0.0,0.0,0.0,0.0,0.0,0.0,0.0,0.0,0.0,0.0,0.0,0.0,0.0,0.1903,0.2957,0.4711,0.7182,0.9776,1.2244,2.2988,2.294,2.2669,2.2547,2.2506,2.2398,2.2344,2.2344,2.2344,2.2199,2.2199,2.2199,2.1639,2.0941,2.0803,2.011,1.858,1.858,1.7747,1.6775,1.5662,1.4957,1.3966,1.2928,1.1634,1.0359,0.7664,0.613,0.5157,0.3782,0.2424,0.1613,0.1203,0.0667,0.0,0.0,0.0,0.0,0.0,0.0,0.0,0.0,0.0,0.0,0.0,0.0,0.0,0.0,0.0,0.0,0.0,0.0,0.0,0.0,0.0,0.0,0.0,0.0,0.0,0.0,0.0,0.0,0.0,0.0,0.0,0.0,0.0,0.0,0.0,0.0,0.0,0.0,0.0,0.0,0.0,0.0,0.0,0.0,0.0,0.0,0.0,0.0,0.0,0.0,0.0,0.0,0.0,0.0,0.0,0.0,0.0,0.0,0.0,0.0,0.0,0.0,0.0,0.0,0.0,0.0,0.0,0.0,0.0,0.0,0.0,0.0,0.0,0.0,0.0723,0.1914,0.3448,0.5323,0.7427,1.0268,1.2868,2.2873,2.2649,2.2581,2.2486,2.2391,2.235,2.2344,2.2344,2.2344,2.1922,2.1501,2.1362,2.0664,1.9412,1.9273,1.8441,1.6497,1.6079,1.5105,1.2732,1.2453,1.0636,0.9658,0.9637,0.9336,0.7633,0.5814,0.4398,0.3545,0.2309,0.1489,0.1078,0.0538,0.0,0.0,0.0,0.0,0.0,0.0,0.0,0.0,0.0,0.0,0.0,0.0,0.0,0.0,0.0,0.0,0.0,0.0,0.0,0.0,0.0,0.0,0.0,0.0,0.0,0.0,0.0,0.0,0.0,0.0,0.0,0.0,0.0,0.0,0.0,0.0,0.0,0.0,0.0,0.0,0.0,0.0,0.0,0.0,0.0,0.0,0.0,0.0,0.0,0.0,0.0,0.0,0.0,0.0,0.0,0.0,0.0,0.0,0.0,0.0,0.0,0.0,0.0,0.0,0.0,0.0,0.0,0.0,0.0,0.0,0.0,0.0,0.0,0.0,0.0488,0.1091,0.2528,0.4064,0.6073,0.8192,1.0915,1.3306,2.2703,2.2547,2.2479,2.2405,2.2205,2.1922,2.1777,2.1639,2.1362,2.0803,2.0249,2.011,1.9134,1.7475,1.733,1.6079,1.3852,1.2732,1.1337,0.9521,0.8962,0.7561,0.5744,0.6164,0.6151,0.4879,0.3612,0.2625,0.2061,0.1228,0.0679,0.0541,0.0,0.0,0.0,0.0,0.0,0.0,0.0,0.0,0.0,0.0,0.0,0.0,0.0,0.0,0.0,0.0,0.0,0.0,0.0,0.0,0.0,0.0,0.0,0.0,0.0,0.0,0.0,0.0,0.0,0.0,0.0,0.0,0.0,0.0,0.0,0.0,0.0,0.0,0.0,0.0,0.0,0.0,0.0,0.0,0.0,0.0,0.0,0.0,0.0,0.0,0.0,0.0,0.0,0.0,0.0,0.0,0.0,0.0,0.0,0.0,0.0,0.0,0.0,0.0,0.0,0.0,0.0,0.0,0.0,0.0,0.0,0.0,0.0,0.0,0.0,0.0,0.1464,0.279,0.4462,0.672,0.9093,1.1478,1.3782,2.254,2.2513,2.2246,2.2199,2.1922,2.1218,2.0803,2.0664,2.0116,1.9279,1.858,1.8441,1.7053,1.5384,1.4966,1.329,1.0779,0.9102,0.7564,0.6444,0.6304,0.5045,0.3646,0.3364,0.3224,0.2803,0.1954,0.1251,0.0968,0.0,0.0,0.0,0.0,0.0,0.0,0.0,0.0,0.0,0.0,0.0,0.0,0.0,0.0,0.0,0.0,0.0,0.0,0.0,0.0,0.0,0.0,0.0,0.0,0.0,0.0,0.0,0.0,0.0,0.0,0.0,0.0,0.0,0.0,0.0,0.0,0.0,0.0,0.0,0.0,0.0,0.0,0.0,0.0,0.0,0.0,0.0,0.0,0.0,0.0,0.0,0.0,0.0,0.0,0.0,0.0,0.0,0.0,0.0,0.0,0.0,0.0,0.0,0.0,0.0,0.0,0.0,0.0,0.0,0.0,0.0,0.0,0.0,0.0,0.0,0.0,0.0,0.0,0.0,0.1839,0.2931,0.4983,0.7371,0.9769,1.2052,1.4255,2.2479,2.2232,2.1646,2.1356,2.1218,1.9966,1.9273,1.9273,1.8447,1.7475,1.6358,1.6219,1.454,1.2585,1.1895,1.0217,0.7694,0.6162,0.4905,0.4065,0.3925,0.3085,0.1963,0.1683,0.1262,0.0841,0.0699,0.0697,0.0416,0.0,0.0,0.0,0.0,0.0,0.0,0.0,0.0,0.0,0.0,0.0,0.0,0.0,0.0,0.0,0.0,0.0,0.0,0.0,0.0,0.0,0.0,0.0,0.0,0.0,0.0,0.0,0.0,0.0,0.0,0.0,0.0,0.0,0.0,0.0,0.0,0.0,0.0,0.0,0.0,0.0,0.0,0.0,0.0,0.0,0.0,0.0,0.0,0.0,0.0,0.0,0.0,0.0,0.0,0.0,0.0,0.0,0.0,0.0,0.0,0.0,0.0,0.0,0.0,0.0,0.0,0.0,0.0,0.0,0.0,0.0,0.0,0.0,0.0,0.0,0.0,0.0,0.0,0.0,0.2223,0.3331,0.5639,0.8155,1.0586,1.2781,1.4929,2.1837,2.1639,2.0526,2.0104,1.9689,1.8025,1.733,1.7053,1.6079,1.4795,1.365,1.3221,1.167,0.957,0.8872,0.736,0.5296,0.3922,0.2945,0.2384,0.2103,0.1683,0.0,0.0,0.028,0.014,0.0419,0.0,0.0,0.0,0.0,0.0,0.0,0.0,0.0,0.0,0.0,0.0,0.0,0.0,0.0,0.0,0.0,0.0,0.0,0.0,0.0,0.0,0.0,0.0,0.0,0.0,0.0,0.0,0.0,0.0,0.0,0.0,0.0,0.0,0.0,0.0,0.0,0.0,0.0,0.0,0.0,0.0,0.0,0.0,0.0,0.0,0.0,0.0,0.0,0.0,0.0,0.0,0.0,0.0,0.0,0.0,0.0,0.0,0.0,0.0,0.0,0.0,0.0,0.0,0.0,0.0,0.0,0.0,0.0,0.0,0.0,0.0,0.0,0.0,0.0,0.0,0.0,0.0,0.0,0.0,0.0,0.1001,0.2374,0.3863,0.6073,0.8509,1.1199,1.3518,1.5435,2.0771,2.0583,1.8978,1.8274,1.7959,1.5763,1.4782,1.4495,1.3091,1.1666,1.0378,1.0096,0.8691,0.6601,0.55,0.4548,0.2911,0.2091,0.1395,0.1116,0.0977,0.0559,0.0,0.0,0.0,0.0,0.0,0.0,0.0,0.0,0.0,0.0,0.0,0.0,0.0,0.0,0.0,0.0,0.0,0.0,0.0,0.0,0.0,0.0,0.0,0.0,0.0,0.0,0.0,0.0,0.0,0.0,0.0,0.0,0.0,0.0,0.0,0.0,0.0,0.0,0.0,0.0,0.0,0.0,0.0,0.0,0.0,0.0,0.0,0.0,0.0,0.0,0.0,0.0,0.0,0.0,0.0,0.0,0.0,0.0,0.0,0.0,0.0,0.0,0.0,0.0,0.0,0.0,0.0,0.0,0.0,0.0,0.0,0.0,0.0,0.0,0.0,0.0,0.0,0.0,0.0,0.0,0.0,0.0,0.0,0.0,0.0,0.1137,0.239,0.4012,0.6259,0.8743,1.1327,1.3507,1.542,1.9144,1.8826,1.6831,1.5972,1.5419,1.2865,1.1754,1.1429,1.0052,0.8529,0.7286,0.7149,0.6046,0.4117,0.2471,0.1787,0.1239,0.0827,0.0,0.0,0.0,0.0,0.0,0.0,0.0,0.0,0.0,0.0,0.0,0.0,0.0,0.0,0.0,0.0,0.0,0.0,0.0,0.0,0.0,0.0,0.0,0.0,0.0,0.0,0.0,0.0,0.0,0.0,0.0,0.0,0.0,0.0,0.0,0.0,0.0,0.0,0.0,0.0,0.0,0.0,0.0,0.0,0.0,0.0,0.0,0.0,0.0,0.0,0.0,0.0,0.0,0.0,0.0,0.0,0.0,0.0,0.0,0.0,0.0,0.0,0.0,0.0,0.0,0.0,0.0,0.0,0.0,0.0,0.0,0.0,0.0,0.0,0.0,0.0,0.0,0.0,0.0,0.0,0.0,0.0,0.0,0.0,0.0,0.0,0.0,0.0,0.0,0.1144,0.2404,0.4166,0.631,0.882,1.1565,1.3503,1.5284,1.5703,1.6585,1.4075,1.3104,1.2629,0.9912,0.8672,0.8242,0.7003,0.5755,0.492,0.4782,0.3817,0.2177,0.0954,0.0547,0.0,0.0,0.0,0.0,0.0,0.0,0.0,0.0,0.0,0.0,0.0,0.0,0.0,0.0,0.0,0.0,0.0,0.0,0.0,0.0,0.0,0.0,0.0,0.0,0.0,0.0,0.0,0.0,0.0,0.0,0.0,0.0,0.0,0.0,0.0,0.0,0.0,0.0,0.0,0.0,0.0,0.0,0.0,0.0,0.0,0.0,0.0,0.0,0.0,0.0,0.0,0.0,0.0,0.0,0.0,0.0,0.0,0.0,0.0,0.0,0.0,0.0,0.0,0.0,0.0,0.0,0.0,0.0,0.0,0.0,0.0,0.0,0.0,0.0,0.0,0.0,0.0,0.0,0.0,0.0,0.0,0.0,0.0,0.0,0.0,0.0,0.0,0.0,0.0,0.0,0.0,0.1153,0.2427,0.4334,0.6236,0.8762,1.1276,1.3094,1.4518,1.2143,1.2959,1.0822,1.0002,0.9699,0.6981,0.5885,0.5603,0.4509,0.3544,0.2853,0.2578,0.1894,0.0944,0.0,0.0,0.0,0.0,0.0,0.0,0.0,0.0,0.0,0.0,0.0,0.0,0.0,0.0,0.0,0.0,0.0,0.0,0.0,0.0,0.0,0.0,0.0,0.0,0.0,0.0,0.0,0.0,0.0,0.0,0.0,0.0,0.0,0.0,0.0,0.0,0.0,0.0,0.0,0.0,0.0,0.0,0.0,0.0,0.0,0.0,0.0,0.0,0.0,0.0,0.0,0.0,0.0,0.0,0.0,0.0,0.0,0.0,0.0,0.0,0.0,0.0,0.0,0.0,0.0,0.0,0.0,0.0,0.0,0.0,0.0,0.0,0.0,0.0,0.0,0.0,0.0,0.0,0.0,0.0,0.0,0.0,0.0,0.0,0.0,0.0,0.0,0.0,0.0,0.0,0.0,0.0,0.0,0.0,0.258,0.424,0.6019,0.8444,1.0712,1.2547,1.321,0.875,0.7146,0.7102,0.695,0.6744,0.4479,0.3527,0.3511,0.2699,0.2024,0.1349,0.0,0.0,0.0,0.0,0.0,0.0,0.0,0.0,0.0,0.0,0.0,0.0,0.0,0.0,0.0,0.0,0.0,0.0,0.0,0.0,0.0,0.0,0.0,0.0,0.0,0.0,0.0,0.0,0.0,0.0,0.0,0.0,0.0,0.0,0.0,0.0,0.0,0.0,0.0,0.0,0.0,0.0,0.0,0.0,0.0,0.0,0.0,0.0,0.0,0.0,0.0,0.0,0.0,0.0,0.0,0.0,0.0,0.0,0.0,0.0,0.0,0.0,0.0,0.0,0.0,0.0,0.0,0.0,0.0,0.0,0.0,0.0,0.0,0.0,0.0,0.0,0.0,0.0,0.0,0.0,0.0,0.0,0.0,0.0,0.0,0.0,0.0,0.0,0.0,0.0,0.0,0.0,0.0,0.0,0.0,0.0,0.0,0.2322,0.3999,0.5796,0.7967,0.9746,1.1363,1.1257,0.6053,0.4444,0.3656,0.3651,0.4307,0.27,0.189,0.1751,0.1212,0.0673,0.0,0.0,0.0,0.0,0.0,0.0,0.0,0.0,0.0,0.0,0.0,0.0,0.0,0.0,0.0,0.0,0.0,0.0,0.0,0.0,0.0,0.0,0.0,0.0,0.0,0.0,0.0,0.0,0.0,0.0,0.0,0.0,0.0,0.0,0.0,0.0,0.0,0.0,0.0,0.0,0.0,0.0,0.0,0.0,0.0,0.0,0.0,0.0,0.0,0.0,0.0,0.0,0.0,0.0,0.0,0.0,0.0,0.0,0.0,0.0,0.0,0.0,0.0,0.0,0.0,0.0,0.0,0.0,0.0,0.0,0.0,0.0,0.0,0.0,0.0,0.0,0.0,0.0,0.0,0.0,0.0,0.0,0.0,0.0,0.0,0.0,0.0,0.0,0.0,0.0,0.0,0.0,0.0,0.0,0.0,0.0,0.0,0.0,0.1935,0.3354,0.5158,0.7087,0.8748,1.0147,0.9554,0.4039,0.2557,0.1481,0.1615,0.2423,0.1346,0.0808,0.0673,0.0269,0.0,0.0,0.0,0.0,0.0,0.0,0.0,0.0,0.0,0.0,0.0,0.0,0.0,0.0,0.0,0.0,0.0,0.0,0.0,0.0,0.0,0.0,0.0,0.0,0.0,0.0,0.0,0.0,0.0,0.0,0.0,0.0,0.0,0.0,0.0,0.0,0.0,0.0,0.0,0.0,0.0,0.0,0.0,0.0,0.0,0.0,0.0,0.0,0.0,0.0,0.0,0.0,0.0,0.0,0.0,0.0,0.0,0.0,0.0,0.0,0.0,0.0,0.0,0.0,0.0,0.0,0.0,0.0,0.0,0.0,0.0,0.0,0.0,0.0,0.0,0.0,0.0,0.0,0.0,0.0,0.0,0.0,0.0,0.0,0.0,0.0,0.0,0.0,0.0,0.0,0.0,0.0,0.0,0.0,0.0,0.0,0.0,0.0,0.0,0.1548,0.258,0.4513,0.6575,0.7087,0.8103,0.7564,0.3096,0.1211,0.1077,0.1077,0.1212,0.0404,0.0,0.0,0.0,0.0,0.0,0.0,0.0,0.0,0.0,0.0,0.0,0.0,0.0,0.0,0.0,0.0,0.0,0.0,0.0,0.0,0.0,0.0,0.0,0.0,0.0,0.0,0.0,0.0,0.0,0.0,0.0,0.0,0.0,0.0,0.0,0.0,0.0,0.0,0.0,0.0,0.0,0.0,0.0,0.0,0.0,0.0,0.0,0.0,0.0,0.0,0.0,0.0,0.0,0.0,0.0,0.0,0.0,0.0,0.0,0.0,0.0,0.0,0.0,0.0,0.0,0.0,0.0,0.0,0.0,0.0,0.0,0.0,0.0,0.0,0.0,0.0,0.0,0.0,0.0,0.0,0.0,0.0,0.0,0.0,0.0,0.0,0.0,0.0,0.0,0.0,0.0,0.0,0.0,0.0,0.0,0.0,0.0,0.0,0.0,0.0,0.0,0.0,0.129,0.2064,0.4128,0.5804,0.6059,0.6055,0.5526,0.1471,0.0401,0.0403,0.0404,0.0404,0.0,0.0,0.0,0.0,0.0,0.0,0.0,0.0,0.0,0.0,0.0,0.0,0.0,0.0,0.0,0.0,0.0,0.0,0.0,0.0,0.0,0.0,0.0,0.0,0.0,0.0,0.0,0.0,0.0,0.0,0.0,0.0,0.0,0.0,0.0,0.0,0.0,0.0,0.0,0.0,0.0,0.0,0.0,0.0,0.0,0.0,0.0,0.0,0.0,0.0,0.0,0.0,0.0,0.0,0.0,0.0,0.0,0.0,0.0,0.0,0.0,0.0,0.0,0.0,0.0,0.0,0.0,0.0,0.0,0.0,0.0,0.0,0.0,0.0,0.0,0.0,0.0,0.0,0.0,0.0,0.0,0.0,0.0,0.0,0.0,0.0,0.0,0.0,0.0,0.0,0.0,0.0,0.0,0.0,0.0,0.0,0.0,0.0,0.0,0.0,0.0,0.0,0.0,0.0,0.1677,0.3224,0.4127,0.4127,0.3998,0.3737,0.0664,0.0,0.0,0.0,0.0,0.0,0.0,0.0,0.0,0.0,0.0,0.0,0.0,0.0,0.0,0.0,0.0,0.0,0.0,0.0,0.0,0.0,0.0,0.0,0.0,0.0,0.0,0.0,0.0,0.0,0.0,0.0,0.0,0.0,0.0,0.0,0.0,0.0,0.0,0.0,0.0,0.0,0.0,0.0,0.0,0.0,0.0,0.0,0.0,0.0,0.0,0.0,0.0,0.0,0.0,0.0,0.0,0.0,0.0,0.0,0.0,0.0,0.0,0.0,0.0,0.0,0.0,0.0,0.0,0.0,0.0,0.0,0.0,0.0,0.0,0.0,0.0,0.0,0.0,0.0,0.0,0.0,0.0,0.0,0.0,0.0,0.0,0.0,0.0,0.0,0.0,0.0,0.0,0.0,0.0,0.0,0.0,0.0,0.0,0.0,0.0,0.0,0.0,0.0,0.0,0.0,0.0,0.0,0.0,0.0,0.129,0.1935,0.1936,0.2193,0.2193,0.0659,0.0,0.0,0.0,0.0,0.0,0.0,0.0,0.0,0.0,0.0,0.0,0.0,0.0,0.0,0.0,0.0,0.0,0.0,0.0,0.0,0.0,0.0,0.0,0.0,0.0,0.0,0.0,0.0,0.0,0.0,0.0,0.0,0.0,0.0,0.0,0.0,0.0,0.0,0.0,0.0,0.0,0.0,0.0,0.0,0.0,0.0,0.0,0.0,0.0,0.0,0.0,0.0,0.0,0.0,0.0,0.0,0.0,0.0,0.0,0.0,0.0,0.0,0.0,0.0,0.0,0.0,0.0,0.0,0.0,0.0,0.0,0.0,0.0,0.0,0.0,0.0,0.0,0.0,0.0,0.0,0.0,0.0,0.0,0.0,0.0,0.0,0.0,0.0,0.0,0.0,0.0,0.0,0.0,0.0,0.0,0.0,0.0,0.0,0.0,0.0,0.0,0.0,0.0,0.0,0.0,0.0,0.0,0.0,0.0,0.0,0.0774,0.129,0.1161,0.1161,0.0131,0.0,0.0,0.0,0.0,0.0,0.0,0.0,0.0,0.0,0.0,0.0,0.0,0.0,0.0,0.0,0.0,0.0,0.0,0.0,0.0,0.0,0.0,0.0,0.0,0.0,0.0,0.0,0.0,0.0,0.0,0.0,0.0,0.0,0.0,0.0,0.0,0.0,0.0,0.0,0.0,0.0,0.0,0.0,0.0,0.0,0.0,0.0,0.0,0.0,0.0,0.0,0.0,0.0,0.0,0.0,0.0,0.0,0.0,0.0,0.0,0.0,0.0,0.0,0.0,0.0,0.0,0.0,0.0,0.0,0.0,0.0,0.0,0.0,0.0,0.0,0.0,0.0,0.0,0.0,0.0,0.0,0.0,0.0,0.0,0.0,0.0,0.0,0.0,0.0,0.0,0.0,0.0,0.0,0.0,0.0,0.0,0.0,0.0,0.0,0.0,0.0,0.0,0.0,0.0,0.0,0.0,0.0,0.0,0.0,0.0,0.0,0.0387,0.0387,0.0129,0.0,0.0,0.0,0.0,0.0,0.0,0.0,0.0,0.0,0.0,0.0,0.0,0.0,0.0,0.0,0.0,0.0,0.0,0.0,0.0,0.0,0.0,0.0,0.0,0.0,0.0,0.0,0.0,0.0,0.0,0.0,0.0,0.0,0.0,0.0,0.0,0.0,0.0,0.0,0.0,0.0,0.0,0.0,0.0,0.0,0.0,0.0,0.0,0.0,0.0,0.0,0.0,0.0,0.0,0.0,0.0,0.0,0.0,0.0,0.0,0.0,0.0,0.0,0.0,0.0,0.0,0.0,0.0,0.0,0.0,0.0,0.0,0.0,0.0,0.0,0.0,0.0,0.0,0.0,0.0,0.0,0.0,0.0,0.0,0.0,0.0,0.0,0.0,0.0,0.0,0.0,0.0,0.0,0.0,0.0,0.0,0.0,0.0,0.0,0.0,0.0,0.0,0.0,0.0,0.0,0.0,0.0,0.0,0.0,0.0,0.0,0.0,-0.0129,-0.0387,-0.0645,0.0,0.0,0.0,0.0,0.0,0.0,0.0,0.0,0.0,0.0,0.0,0.0,0.0,0.0,0.0,0.0,0.0,0.0,0.0,0.0,0.0,0.0,0.0,0.0,0.0,0.0,0.0,0.0,0.0,0.0,0.0,0.0,0.0,0.0,0.0,0.0,0.0,0.0,0.0,0.0,0.0,0.0,0.0,0.0,0.0,0.0,0.0,0.0,0.0,0.0,0.0,0.0,0.0,0.0,0.0,0.0,0.0,0.0,0.0,0.0,0.0,0.0,0.0,0.0,0.0,0.0,0.0,0.0,0.0,0.0,0.0,0.0,0.0,0.0,0.0,0.0,0.0,0.0,0.0,0.0,0.0,0.0,0.0,0.0,0.0,0.0,0.0,0.0,0.0,0.0,0.0,0.0,0.0,0.0,0.0,0.0,0.0,0.0,0.0,0.0,0.0,0.0,0.0,0.0,0.0,0.0,0.0,0.0,0.0,0.0,0.0,0.0,-0.0774,-0.129,-0.1677,0.0,0.0,0.0,0.0,0.0,0.0,0.0,0.0,0.0,0.0,0.0,0.0,0.0,0.0,0.0,0.0,0.0,0.0,0.0,0.0,0.0,0.0,0.0,0.0,0.0,0.0,0.0,0.0,0.0,0.0,0.0,0.0,0.0,0.0,0.0,0.0,0.0,0.0,0.0,0.0,0.0,0.0,0.0,0.0,0.0,0.0,0.0,0.0,0.0,0.0,0.0,0.0,0.0,0.0,0.0,0.0,0.0,0.0,0.0,0.0,0.0,0.0,0.0,0.0,0.0,0.0,0.0,0.0,0.0,0.0,0.0,0.0,0.0,0.0,0.0,0.0,0.0,0.0,0.0,0.0,0.0,0.0,0.0,0.0,0.0,0.0,0.0,0.0,0.0,0.0,0.0,0.0,0.0,0.0,0.0,0.0,0.0,0.0,0.0,0.0,0.0,0.0,0.0,0.0,0.0,0.0,0.0,0.0,0.0,-0.0387,-0.1032,-0.1419,-0.2322,-0.2966,-0.3224,0.0,0.0,0.0,0.0,0.0,0.0,0.0,0.0,0.0,0.0,0.0,0.0,0.0,0.0,0.0,0.0,0.0,0.0,0.0,0.0,0.0,0.0,0.0,0.0,0.0,0.0,0.0,0.0,0.0,0.0,0.0,0.0,0.0,0.0,0.0,0.0,0.0,0.0,0.0,0.0,0.0,0.0,0.0,0.0,0.0,0.0,0.0,0.0,0.0,0.0,0.0,0.0,0.0,0.0,0.0,0.0,0.0,0.0,0.0,0.0,0.0,0.0,0.0,0.0,0.0,0.0,0.0,0.0,0.0,0.0,0.0,0.0,0.0,0.0,0.0,0.0,0.0,0.0,0.0,0.0,0.0,0.0,0.0,0.0,0.0,0.0,0.0,0.0,0.0,0.0,0.0,0.0,0.0,0.0,0.0,0.0,0.0,0.0,0.0,0.0,0.0,0.0,0.0,0.0,0.0,0.0,0.0,0.0,-0.0516,-0.0774,-0.1548,-0.245,-0.3482,-0.49,-0.5671,0.0,0.0,0.0,0.0,0.0,0.0,0.0,0.0,0.0,0.0,0.0,0.0,0.0,0.0,0.0,0.0,0.0,0.0,0.0,0.0,0.0,0.0,0.0,0.0,0.0,0.0,0.0,0.0,0.0,0.0,0.0,0.0,0.0,0.0,0.0,0.0,0.0,0.0,0.0,0.0,0.0,0.0,0.0,0.0,0.0,0.0,0.0,0.0,0.0,0.0,0.0,0.0,0.0,0.0,0.0,0.0,0.0,0.0,0.0,0.0,0.0,0.0,0.0,0.0,0.0,0.0,0.0,0.0,0.0,0.0,0.0,0.0,0.0,0.0,0.0,0.0,0.0,0.0,0.0,0.0,0.0,0.0,0.0,0.0,0.0,0.0,0.0,0.0,0.0,0.0,0.0,0.0,0.0,0.0,0.0,0.0,0.0,0.0,0.0,0.0,0.0,0.0,0.0,0.0,0.0,0.0,0.0,0.0,-0.1161,-0.1548,-0.2837,-0.4255,-0.5671,-0.7087,-0.8374,0.0,0.0,0.0,0.0,0.0,0.0,0.0,0.0,0.0,0.0,0.0,0.0,0.0,0.0,0.0,0.0,0.0,0.0,0.0,0.0,0.0,0.0,0.0,0.0,0.0,0.0,0.0,0.0,0.0,0.0,0.0,0.0,0.0,0.0,0.0,0.0,0.0,0.0,0.0,0.0,0.0,0.0,0.0,0.0,0.0,0.0,0.0,0.0,0.0,0.0,0.0,0.0,0.0,0.0,0.0,0.0,0.0,0.0,0.0,0.0,0.0,0.0,0.0,0.0,0.0,0.0,0.0,0.0,0.0,0.0,0.0,0.0,0.0,0.0,0.0,0.0,0.0,0.0,0.0,0.0,0.0,0.0,0.0,0.0,0.0,0.0,0.0,0.0,0.0,0.0,0.0,0.0,0.0,0.0,0.0,0.0,0.0,0.0,0.0,0.0,0.0,0.0,0.0,0.0,-0.0516,0.0,0.0,-0.1935,-0.2708,-0.3353,-0.4771,-0.6188,-0.7733,-0.9403,-1.0816]},{"header":{"parameterUnit":"m.s-1","parameterCategory":1,"la1":31.0,"la2":29.5877,"lo1":-88.7671,"lo2":-86.6584,"dy":0.0162,"dx":0.0185,"nx":115,"ny":88,"refTime":"2023-10-09T06:00:00:Z","depth":0,"parameterNumber":3,"parameterNumberName":"V-component_of_WINDS"},"data":[0.0,0.0,0.0,0.0,0.0,0.0,0.0,0.0,0.0,0.0,0.0,0.0,0.0,0.0,0.0,0.0,0.0,0.0,0.0,0.0,0.0,0.0,0.0,0.0,0.0,0.0,0.0,0.0,0.0,0.0,0.0,0.0,0.0,0.0,0.0,0.0,0.0,0.0,0.0,0.0,0.0,0.0,0.0,0.0,0.0,0.0,0.0,0.0,0.0,0.0,0.0,0.0,0.0,0.0,0.0,0.0,0.0,0.0,0.0,0.0,0.0,0.0,0.0,0.0,0.0,0.0,0.0,0.0,0.0,0.0,0.0,0.0,0.0,0.0,0.0,0.0,0.0,0.0,0.0,0.0,0.0,0.0,0.0,0.0,0.0,0.0,0.0,0.0,0.0,0.0,0.0,0.0,0.0,0.0,0.0,0.0,0.0,0.0,0.0,0.0,0.0,0.0,0.0,0.0,0.0,0.0,0.0,0.0,0.0,0.0,0.0,0.0,0.0,0.0,0.0,0.0,0.0,0.0,0.0,0.0,0.0,0.0,0.0,0.0,0.0,0.0,0.0,0.0,0.0,0.0,0.0,0.0,0.0,0.0,0.0,0.0,0.0,0.0,0.0,0.0,0.0,0.0,0.0,0.0,0.0,0.0,0.0,0.0,0.0,0.0,0.0,0.0,0.0,0.0,0.0,0.0,0.0,0.0,0.0,0.0,0.0,0.0,0.0,0.0,0.0,0.0,0.0,0.0,0.0,0.0,0.0,0.0,0.0,0.0,0.0,0.0,0.0,0.0,0.0,0.0,0.0,0.0,0.0,0.0,0.0,0.0,0.0,0.0,0.0,0.0,0.0,0.0,0.0,0.0,0.0,0.0,0.0,0.0,0.0,0.0,0.0,0.0,0.0,0.0,0.0,0.0,0.0,0.0,0.0,0.0,0.0,0.0,0.0,0.0,0.0,0.0,0.0,0.0,0.0,0.0,0.0,0.0,0.0,0.0,0.0,0.0,0.0,0.0,0.0,0.0,0.0,0.0,0.0,0.0,0.0,0.0,0.0,0.0,0.0,0.0,0.0,0.0,0.0,0.0,0.0,0.0,0.0,0.0,0.0,0.0,0.0,0.0,0.0,0.0,0.0,0.0,0.0,0.0,0.0,0.0,0.0,0.0,0.0,0.0,0.0,0.0,0.0,0.0,0.0,0.0,0.0,0.0,0.0,0.0,0.0,0.0,0.0,0.0,0.0,0.0,0.0,0.0,0.0,0.0,0.0,0.0,0.0,0.0,0.0,0.0,0.0,0.0,0.0,0.0,0.0,0.0,0.0,0.0,0.0,0.0,0.0,0.0,0.0,0.0,0.0,0.0,0.0,0.0,0.0,0.0,0.0,0.0,0.0,0.0,0.0,0.0,0.0,0.0,0.0,0.0,0.0,0.0,0.0,0.0,0.0,0.0,0.0,0.0,0.0,0.0,0.0,0.0,0.0,0.0,0.0,0.0,0.0,0.0,0.0,0.0,0.0,0.0,0.0,0.0,0.0,0.0,0.0,0.0,0.0,0.0,0.0,0.0,0.0,0.0,0.0,0.0,0.0,0.0,0.0,0.0,0.0,0.0,0.0,0.0,0.0,0.0,0.0,0.0,0.0,0.0,0.0,0.0,0.0,0.0,0.0,0.0,0.0,0.0,0.0,0.0,0.0,0.0,0.0,0.0,0.0,0.0,0.0,0.0,0.0,0.0,0.0,0.0,0.0,0.0,0.0,0.0,0.0,0.0,0.0,0.0,0.0,0.0,0.0,0.0,0.0,0.0,0.0,0.0,0.0,0.0,0.0,0.0,0.0,0.0,0.0,0.0,0.0,0.0,0.0,0.0,0.0,0.0,0.0,0.0,0.0,0.0,0.0,0.0,0.0,0.0,0.0,0.0,0.0,0.0,0.0,0.0,0.0,0.0,0.0,0.0,0.0,0.0,0.0,0.0,0.0,0.0,0.0,0.0,0.0,0.0,0.0,0.0,0.0,0.0,0.0,0.0,0.0,0.0,0.0,0.0,0.0,0.0,0.0,0.0,0.0,0.0,0.0,0.0,0.0,0.0,0.0,0.0,0.0,0.0,0.0,0.0,0.0,0.0,0.0,0.0,0.0,0.0,0.0,0.0,0.0,0.0,0.0,0.0,0.0,0.0,0.0,0.0,0.0,0.0,0.0,0.0,0.0,0.0,0.0,0.0,0.0,0.0,0.0,0.0,0.0,0.0,0.0,0.0,0.0,0.0,0.0,0.0,0.0,0.0,0.0,0.0,0.0,0.0,0.0,0.0,0.0,0.0,0.0,0.0,0.0,0.0,0.0,0.0,0.0,0.0,0.0,0.0,0.0,0.0,0.0,0.0,0.0,0.0,0.0,0.0,0.0,0.0,0.0,0.0,0.0,0.0,0.0,0.0,0.0,0.0,0.0,0.0,0.0,0.0,0.0,0.0,0.0,0.0,0.0,0.0,0.0,0.0,0.0,0.0,0.0,0.0,0.0,0.0,0.0,0.0,0.0,0.0,0.0,0.0,0.0,0.0,0.0,0.0,0.0,0.0,0.0,0.0,0.0,0.0,0.0,0.0,0.0,0.0,0.0,0.0,0.0,0.0,0.0,0.0,0.0,0.0,0.0,0.0,0.0,0.0,0.0,0.0,0.0,0.0,0.0,0.0,0.0,0.0,0.0,0.0,0.0,0.0,0.0,0.0,0.0,0.0,0.0,0.0,0.0,0.0,0.0,0.0,0.0,0.0,0.0,0.0,0.0,0.0,0.0,0.0,0.0,0.0,0.0,0.0,0.0,0.0,0.0,0.0,0.0,0.0,0.0,0.0,0.0,0.0,0.0,0.0,0.0,0.0,0.0,0.0,0.0,0.0,0.0,0.0,0.0,0.0,0.0,0.0,0.0,0.0,0.0,0.0,0.0,0.0,0.0,0.0,0.0,0.0,0.0,0.0,0.0,0.0,0.0,0.0,0.0,0.0,0.0,0.0,0.0,0.0,0.0,0.0,0.0,0.0,0.0,0.0,0.0,0.0,0.0,0.0,0.0,0.0,0.0,0.0,0.0,0.0,0.0,0.0,0.0,0.0,0.0,0.0,0.0,0.0,0.0,0.0,0.0,0.0,0.0,0.0,0.0,0.0,0.0,0.0,0.0,0.0,0.0,0.0,0.0,0.0,0.0,0.0,0.0,0.0,0.0,0.0,0.0,0.0,0.0,0.0,0.0,0.0,0.0,0.0,0.0,0.0,0.0,0.0,0.0,0.0,0.0,0.0,0.0,0.0,0.0,0.0,0.0,0.0,0.0,0.0,0.0,0.0,0.0,0.0,0.0,0.0,0.0,0.0,0.0,0.0,0.0,0.0,0.0,0.0,0.0,0.0,0.0,0.0,0.0,0.0,0.0,0.0,0.0,0.0,0.0,0.0,0.0,0.0,0.0,0.0,0.0,0.0,0.0,0.0,0.0,0.0,0.0,0.0,0.0,0.0,0.0,0.0,0.0,0.0,0.0,0.0,0.0,0.0,0.0,0.0,0.0,0.0,0.0,0.0,0.0,0.0,0.0,0.0,0.0,0.0,0.0,0.0,0.0,0.0,0.0,0.0,0.0,0.0,0.0,0.0,0.0,0.0,0.0,0.0,0.0,0.0,0.0,0.0,0.0,0.0,0.0,0.0,0.0,0.0,0.0,0.0,0.0,0.0,0.0,0.0,0.0,0.0,0.0,0.0,0.0,0.0,0.0,0.0,0.0,0.0,0.0,0.0,0.0,0.0,0.0,0.0,0.0,0.0,0.0,0.0,0.0,0.0,0.0,0.0,0.0,0.0,0.0,0.0,0.0,0.0,0.0,0.0,0.0,0.0,0.0,0.0,0.0,0.0,0.0,0.0,0.0,0.0,0.0,0.0,0.0,0.0,0.0,0.0,0.0,0.0,0.0,0.0,0.0,0.0,0.0,0.0,0.0,0.0,0.0,0.0,0.0,0.0,0.0,0.0,0.0,0.0,0.0,0.0,0.0,0.0,0.0,0.0,0.0,0.0,0.0,0.0,0.0,0.0,0.0,0.0,0.0,0.0,0.0,0.0,0.0,0.0,0.0,0.0,0.0,0.0,0.0,0.0,0.0,0.0,0.0,0.0,0.0,0.0,0.0,0.0,0.0,0.0,0.0,0.0,0.0,0.0,0.0,0.0,0.0,0.0,0.0,0.0,0.0,0.0,0.0,0.0,0.0,0.0,0.0,0.0,0.0,0.0,0.0,0.0,0.0,0.0,5.7997,0.0,0.0,0.0,0.0,0.0,0.0,0.0,0.0,0.0,0.0,0.0,0.0,0.0,0.0,0.0,0.0,0.0,0.0,0.0,0.0,0.0,0.0,0.0,0.0,0.0,0.0,0.0,0.0,0.0,0.0,0.0,0.0,0.0,0.0,0.0,0.0,0.0,0.0,0.0,0.0,0.0,0.0,0.0,0.0,0.0,0.0,0.0,0.0,0.0,0.0,0.0,0.0,0.0,0.0,0.0,0.0,0.0,0.0,0.0,0.0,0.0,0.0,0.0,0.0,0.0,0.0,0.0,0.0,0.0,0.0,0.0,0.0,0.0,0.0,0.0,0.0,0.0,0.0,0.0,0.0,0.0,0.0,0.0,0.0,0.0,0.0,0.0,0.0,0.0,0.0,0.0,0.0,0.0,0.0,0.0,0.0,0.0,0.0,0.0,0.0,0.0,0.0,0.0,0.0,0.0,0.0,0.0,0.0,0.0,0.0,5.7997,5.7997,5.7997,5.7997,5.7997,0.0,0.0,0.0,0.0,0.0,0.0,0.0,0.0,0.0,0.0,0.0,0.0,0.0,0.0,0.0,0.0,0.0,0.0,0.0,0.0,0.0,0.0,0.0,0.0,0.0,0.0,0.0,0.0,0.0,0.0,0.0,0.0,0.0,0.0,0.0,0.0,0.0,0.0,0.0,0.0,0.0,0.0,0.0,0.0,0.0,0.0,0.0,0.0,0.0,0.0,0.0,0.0,0.0,0.0,0.0,0.0,0.0,0.0,0.0,0.0,0.0,0.0,0.0,0.0,0.0,0.0,0.0,0.0,0.0,0.0,0.0,0.0,0.0,0.0,0.0,0.0,0.0,0.0,0.0,0.0,0.0,0.0,0.0,0.0,0.0,0.0,0.0,0.0,0.0,0.0,0.0,0.0,0.0,0.0,0.0,0.0,0.0,0.0,0.0,0.0,0.0,0.0,0.0,0.0,0.0,0.0,0.0,0.0,0.0,0.0,0.0,0.0,5.7997,5.818,5.8584,0.0,0.0,0.0,0.0,0.0,0.0,0.0,0.0,0.0,0.0,0.0,0.0,0.0,0.0,0.0,0.0,0.0,0.0,0.0,0.0,0.0,0.0,0.0,0.0,0.0,0.0,0.0,0.0,0.0,0.0,0.0,0.0,0.0,0.0,0.0,0.0,0.0,0.0,0.0,0.0,0.0,0.0,0.0,0.0,0.0,0.0,0.0,0.0,0.0,0.0,0.0,0.0,0.0,0.0,0.0,0.0,0.0,0.0,0.0,0.0,0.0,0.0,0.0,0.0,0.0,0.0,0.0,0.0,0.0,0.0,0.0,0.0,0.0,0.0,0.0,0.0,0.0,0.0,0.0,0.0,0.0,0.0,0.0,0.0,0.0,0.0,0.0,0.0,0.0,0.0,0.0,0.0,0.0,0.0,0.0,0.0,0.0,0.0,0.0,0.0,0.0,0.0,0.0,0.0,0.0,0.0,0.0,0.0,0.0,0.0,5.7997,5.7997,5.7997,0.0,6.0089,0.0,0.0,0.0,0.0,0.0,0.0,0.0,0.0,0.0,0.0,0.0,0.0,0.0,0.0,0.0,0.0,0.0,0.0,0.0,0.0,0.0,0.0,0.0,0.0,0.0,0.0,0.0,0.0,0.0,0.0,0.0,0.0,0.0,0.0,0.0,0.0,0.0,0.0,0.0,0.0,0.0,0.0,0.0,0.0,0.0,0.0,0.0,0.0,0.0,0.0,0.0,0.0,0.0,0.0,0.0,0.0,0.0,0.0,0.0,0.0,0.0,0.0,0.0,0.0,0.0,0.0,0.0,0.0,0.0,0.0,0.0,0.0,0.0,0.0,0.0,0.0,0.0,0.0,0.0,0.0,0.0,0.0,0.0,0.0,0.0,0.0,0.0,0.0,0.0,0.0,0.0,0.0,0.0,0.0,0.0,0.0,0.0,0.0,0.0,0.0,0.0,0.0,0.0,0.0,0.0,0.0,0.0,0.0,0.0,0.0,5.7997,5.7997,5.8474,5.9245,0.0,0.0,0.0,0.0,0.0,0.0,0.0,0.0,0.0,0.0,0.0,0.0,0.0,0.0,0.0,0.0,0.0,0.0,0.0,0.0,0.0,0.0,0.0,0.0,0.0,0.0,0.0,0.0,0.0,0.0,0.0,0.0,0.0,0.0,0.0,0.0,0.0,0.0,0.0,0.0,0.0,0.0,0.0,0.0,0.0,0.0,0.0,0.0,0.0,0.0,0.0,0.0,0.0,0.0,0.0,0.0,0.0,0.0,0.0,0.0,0.0,0.0,0.0,0.0,0.0,0.0,0.0,0.0,0.0,0.0,0.0,0.0,0.0,0.0,0.0,0.0,0.0,0.0,0.0,0.0,0.0,0.0,0.0,0.0,0.0,0.0,0.0,0.0,0.0,0.0,0.0,0.0,0.0,0.0,0.0,0.0,0.0,0.0,0.0,0.0,0.0,0.0,0.0,0.0,0.0,0.0,0.0,0.0,0.0,0.0,5.8217,5.8437,5.8657,5.9245,5.9905,6.0713,0.0,0.0,0.0,0.0,0.0,0.0,0.0,0.0,0.0,0.0,0.0,0.0,0.0,0.0,0.0,0.0,0.0,0.0,0.0,0.0,0.0,0.0,0.0,0.0,0.0,0.0,0.0,0.0,0.0,0.0,0.0,0.0,0.0,0.0,0.0,0.0,0.0,0.0,0.0,0.0,0.0,0.0,0.0,0.0,0.0,0.0,0.0,0.0,0.0,0.0,0.0,0.0,0.0,0.0,0.0,0.0,0.0,0.0,0.0,0.0,0.0,0.0,0.0,0.0,0.0,0.0,0.0,0.0,0.0,0.0,0.0,0.0,0.0,0.0,0.0,0.0,0.0,0.0,0.0,0.0,0.0,0.0,0.0,0.0,0.0,0.0,0.0,0.0,0.0,0.0,0.0,0.0,0.0,0.0,0.0,0.0,0.0,0.0,0.0,0.0,0.0,0.0,0.0,0.0,0.0,0.0,0.0,0.0,5.8033,5.8767,5.9515,6.0236,6.0309,6.075,0.0,0.0,0.0,0.0,0.0,0.0,0.0,0.0,0.0,0.0,0.0,0.0,0.0,0.0,0.0,0.0,0.0,0.0,0.0,0.0,0.0,0.0,0.0,0.0,0.0,0.0,0.0,0.0,0.0,0.0,0.0,0.0,0.0,0.0,0.0,0.0,0.0,0.0,0.0,0.0,0.0,0.0,0.0,0.0,0.0,0.0,0.0,0.0,0.0,0.0,0.0,0.0,0.0,0.0,0.0,0.0,0.0,0.0,0.0,0.0,0.0,0.0,0.0,0.0,0.0,0.0,0.0,0.0,0.0,0.0,0.0,0.0,0.0,0.0,0.0,0.0,0.0,0.0,0.0,0.0,0.0,0.0,0.0,0.0,0.0,0.0,0.0,0.0,0.0,0.0,0.0,0.0,0.0,0.0,0.0,0.0,0.0,0.0,0.0,0.0,0.0,0.0,0.0,0.0,0.0,0.0,0.0,0.0,0.0,5.8804,5.9575,6.0126,6.0419,6.0896,6.13,0.0,0.0,0.0,0.0,0.0,0.0,0.0,0.0,0.0,0.0,0.0,0.0,0.0,0.0,0.0,0.0,0.0,0.0,0.0,0.0,0.0,0.0,0.0,0.0,0.0,0.0,0.0,0.0,0.0,0.0,0.0,0.0,0.0,0.0,0.0,0.0,0.0,0.0,0.0,0.0,0.0,0.0,0.0,0.0,0.0,0.0,0.0,0.0,0.0,0.0,0.0,0.0,0.0,0.0,0.0,0.0,0.0,0.0,0.0,0.0,0.0,0.0,0.0,0.0,0.0,0.0,0.0,0.0,0.0,0.0,0.0,0.0,0.0,0.0,0.0,0.0,0.0,0.0,0.0,0.0,0.0,0.0,0.0,0.0,0.0,0.0,0.0,0.0,0.0,0.0,0.0,0.0,0.0,0.0,0.0,0.0,0.0,0.0,0.0,0.0,0.0,0.0,0.0,0.0,0.0,0.0,0.0,0.0,0.0,5.9942,0.0,6.0896,6.119,6.1704,6.1998,0.0,0.0,0.0,0.0,0.0,0.0,0.0,0.0,0.0,0.0,0.0,0.0,0.0,0.0,0.0,0.0,0.0,0.0,0.0,0.0,0.0,0.0,0.0,0.0,0.0,0.0,0.0,0.0,0.0,0.0,0.0,0.0,0.0,0.0,0.0,0.0,0.0,0.0,0.0,0.0,0.0,0.0,0.0,0.0,0.0,0.0,0.0,0.0,0.0,0.0,0.0,0.0,0.0,0.0,0.0,0.0,0.0,0.0,0.0,0.0,0.0,0.0,0.0,0.0,0.0,0.0,0.0,0.0,0.0,0.0,0.0,0.0,0.0,0.0,0.0,0.0,0.0,0.0,0.0,0.0,0.0,0.0,0.0,0.0,0.0,0.0,0.0,0.0,0.0,0.0,0.0,0.0,0.0,0.0,0.0,0.0,0.0,0.0,0.0,0.0,0.0,0.0,0.0,0.0,0.0,0.0,0.0,0.0,6.0052,6.152,6.163,6.2034,6.2768,6.278,6.278,0.0,0.0,0.0,0.0,0.0,0.0,0.0,0.0,0.0,0.0,0.0,0.0,0.0,0.0,0.0,0.0,0.0,0.0,0.0,0.0,0.0,0.0,0.0,0.0,0.0,0.0,0.0,0.0,0.0,0.0,0.0,0.0,0.0,0.0,0.0,0.0,0.0,0.0,0.0,0.0,0.0,0.0,0.0,0.0,0.0,0.0,0.0,0.0,0.0,0.0,0.0,0.0,0.0,0.0,0.0,0.0,0.0,0.0,0.0,0.0,0.0,0.0,0.0,0.0,0.0,0.0,0.0,0.0,0.0,0.0,0.0,0.0,0.0,0.0,0.0,0.0,0.0,0.0,0.0,0.0,0.0,0.0,0.0,0.0,0.0,0.0,0.0,0.0,0.0,0.0,0.0,0.0,0.0,0.0,0.0,0.0,0.0,0.0,0.0,0.0,0.0,0.0,0.0,0.0,0.0,0.0,0.0,0.0,0.0,6.2438,6.3025,6.3429,6.3686,6.3686,6.3429,0.0,0.0,0.0,0.0,0.0,0.0,0.0,0.0,0.0,0.0,0.0,0.0,0.0,0.0,0.0,0.0,0.0,0.0,0.0,0.0,0.0,0.0,0.0,0.0,0.0,0.0,0.0,0.0,0.0,0.0,0.0,0.0,0.0,0.0,0.0,0.0,0.0,0.0,0.0,0.0,0.0,0.0,0.0,0.0,0.0,0.0,0.0,0.0,0.0,0.0,0.0,0.0,0.0,0.0,0.0,0.0,0.0,0.0,0.0,0.0,0.0,0.0,0.0,0.0,0.0,0.0,0.0,0.0,0.0,0.0,0.0,0.0,0.0,0.0,0.0,0.0,0.0,0.0,0.0,0.0,0.0,0.0,0.0,0.0,0.0,0.0,0.0,0.0,0.0,0.0,0.0,0.0,0.0,0.0,0.0,0.0,0.0,0.0,0.0,0.0,0.0,0.0,0.0,0.0,0.0,0.0,0.0,0.0,0.0,6.464,6.4567,6.4567,6.453,6.453,6.4163,6.3356,0.0,0.0,0.0,0.0,0.0,0.0,0.0,0.0,0.0,0.0,0.0,0.0,0.0,0.0,0.0,0.0,0.0,0.0,0.0,0.0,0.0,0.0,0.0,0.0,0.0,0.0,0.0,0.0,0.0,0.0,0.0,0.0,0.0,0.0,0.0,0.0,0.0,0.0,0.0,0.0,0.0,0.0,0.0,0.0,0.0,0.0,0.0,0.0,0.0,0.0,0.0,0.0,0.0,0.0,0.0,0.0,0.0,0.0,0.0,0.0,0.0,0.0,0.0,0.0,0.0,0.0,0.0,0.0,0.0,0.0,0.0,0.0,0.0,0.0,0.0,0.0,0.0,0.0,0.0,0.0,0.0,0.0,0.0,0.0,0.0,0.0,0.0,0.0,0.0,0.0,0.0,0.0,0.0,0.0,0.0,0.0,0.0,0.0,0.0,0.0,0.0,0.0,0.0,0.0,0.0,0.0,0.0,0.0,6.7871,6.6439,6.5632,6.5521,6.5485,6.5044,0.0,0.0,0.0,0.0,0.0,0.0,0.0,0.0,0.0,0.0,0.0,0.0,0.0,0.0,0.0,0.0,0.0,0.0,0.0,0.0,0.0,0.0,0.0,0.0,0.0,0.0,0.0,0.0,0.0,0.0,0.0,0.0,0.0,0.0,0.0,0.0,0.0,0.0,0.0,0.0,0.0,0.0,0.0,0.0,0.0,0.0,0.0,0.0,0.0,0.0,0.0,0.0,0.0,0.0,0.0,0.0,0.0,0.0,0.0,0.0,0.0,0.0,0.0,0.0,0.0,0.0,0.0,0.0,0.0,0.0,0.0,0.0,0.0,0.0,0.0,0.0,0.0,0.0,0.0,0.0,0.0,0.0,0.0,0.0,0.0,0.0,0.0,0.0,0.0,0.0,0.0,0.0,0.0,0.0,0.0,0.0,0.0,0.0,0.0,0.0,0.0,0.0,0.0,0.0,0.0,0.0,0.0,0.0,0.0,7.0257,6.9963,6.9165,6.8017,6.7393,6.6696,0.0,0.0,0.0,0.0,0.0,0.0,0.0,0.0,0.0,0.0,0.0,0.0,0.0,0.0,0.0,0.0,0.0,0.0,0.0,0.0,0.0,0.0,0.0,0.0,0.0,0.0,0.0,0.0,0.0,0.0,0.0,0.0,0.0,0.0,0.0,0.0,0.0,0.0,0.0,0.0,0.0,0.0,0.0,0.0,0.0,0.0,0.0,0.0,0.0,0.0,0.0,0.0,0.0,0.0,0.0,0.0,0.0,0.0,0.0,0.0,0.0,0.0,0.0,0.0,0.0,0.0,0.0,0.0,0.0,0.0,0.0,0.0,0.0,0.0,0.0,0.0,0.0,0.0,0.0,0.0,0.0,0.0,0.0,0.0,0.0,0.0,0.0,0.0,0.0,0.0,0.0,0.0,0.0,0.0,0.0,0.0,0.0,0.0,0.0,0.0,0.0,0.0,0.0,0.0,0.0,0.0,0.0,0.0,7.0403,7.1798,7.2467,7.2357,7.1468,7.0,6.8531,0.0,0.0,0.0,0.0,0.0,0.0,0.0,0.0,0.0,0.0,0.0,0.0,0.0,0.0,0.0,0.0,0.0,0.0,0.0,0.0,0.0,0.0,0.0,0.0,0.0,0.0,0.0,0.0,0.0,0.0,0.0,0.0,0.0,0.0,0.0,0.0,0.0,0.0,0.0,0.0,0.0,0.0,0.0,0.0,0.0,0.0,0.0,0.0,0.0,0.0,0.0,0.0,0.0,0.0,0.0,0.0,0.0,0.0,0.0,0.0,0.0,0.0,0.0,0.0,0.0,0.0,0.0,0.0,0.0,0.0,0.0,0.0,0.0,0.0,0.0,0.0,0.0,0.0,0.0,0.0,0.0,0.0,0.0,0.0,0.0,0.0,0.0,0.0,0.0,0.0,0.0,0.0,0.0,0.0,0.0,0.0,0.0,0.0,0.0,0.0,0.0,0.0,0.0,0.0,0.0,0.0,0.0,0.0,7.2679,7.301,7.4404,7.5139,7.5102,7.2753,7.044,0.0,0.0,0.0,0.0,0.0,0.0,0.0,0.0,0.0,0.0,0.0,0.0,0.0,0.0,0.0,0.0,0.0,0.0,0.0,0.0,0.0,0.0,0.0,0.0,0.0,0.0,0.0,0.0,0.0,0.0,0.0,0.0,0.0,0.0,0.0,0.0,0.0,0.0,0.0,0.0,0.0,0.0,0.0,0.0,0.0,0.0,0.0,0.0,0.0,0.0,0.0,0.0,0.0,0.0,0.0,0.0,0.0,0.0,0.0,0.0,0.0,0.0,0.0,0.0,0.0,0.0,0.0,0.0,0.0,0.0,0.0,0.0,0.0,0.0,0.0,0.0,0.0,0.0,0.0,0.0,0.0,0.0,0.0,0.0,0.0,0.0,0.0,0.0,0.0,0.0,0.0,0.0,0.0,0.0,0.0,0.0,0.0,0.0,0.0,0.0,0.0,0.0,0.0,0.0,0.0,0.0,0.0,0.0,7.3744,7.6209,7.6613,7.6796,7.676,7.3854,7.2018,0.0,0.0,0.0,0.0,0.0,0.0,0.0,0.0,0.0,0.0,0.0,0.0,0.0,0.0,0.0,0.0,0.0,0.0,0.0,0.0,0.0,0.0,0.0,0.0,0.0,0.0,0.0,0.0,0.0,0.0,0.0,0.0,0.0,0.0,0.0,0.0,0.0,0.0,0.0,0.0,0.0,0.0,0.0,0.0,0.0,0.0,0.0,0.0,7.6679,0.0,0.0,0.0,0.0,0.0,0.0,0.0,0.0,0.0,0.0,0.0,0.0,0.0,0.0,0.0,0.0,0.0,0.0,0.0,0.0,0.0,0.0,0.0,0.0,0.0,0.0,0.0,0.0,0.0,0.0,0.0,0.0,0.0,0.0,0.0,0.0,0.0,0.0,0.0,0.0,0.0,0.0,0.0,0.0,0.0,0.0,0.0,0.0,0.0,0.0,0.0,0.0,0.0,0.0,0.0,0.0,0.0,0.0,0.0,7.5212,7.7237,7.8075,7.8295,7.7855,7.5873,7.4037,0.0,0.0,0.0,0.0,0.0,0.0,0.0,0.0,0.0,0.0,0.0,0.0,0.0,0.0,0.0,0.0,0.0,0.0,0.0,0.0,0.0,0.0,0.0,0.0,0.0,0.0,0.0,0.0,0.0,0.0,0.0,0.0,0.0,0.0,0.0,0.0,0.0,0.0,0.0,0.0,0.0,0.0,0.0,0.0,0.0,0.0,0.0,0.0,0.0,0.0,0.0,0.0,0.0,0.0,0.0,0.0,0.0,0.0,0.0,0.0,0.0,0.0,0.0,0.0,0.0,0.0,0.0,0.0,0.0,0.0,0.0,0.0,0.0,0.0,0.0,0.0,0.0,0.0,0.0,0.0,0.0,0.0,0.0,0.0,0.0,0.0,0.0,0.0,0.0,0.0,0.0,0.0,0.0,0.0,0.0,0.0,0.0,0.0,0.0,0.0,0.0,0.0,0.0,0.0,0.0,0.0,0.0,7.5065,7.6754,7.7677,7.9213,7.9653,7.8956,7.8148,7.624,7.3193,0.0,0.0,0.0,0.0,0.0,0.0,0.0,0.0,0.0,0.0,0.0,0.0,0.0,0.0,0.0,0.0,0.0,0.0,0.0,0.0,0.0,0.0,0.0,0.0,0.0,0.0,0.0,0.0,0.0,0.0,0.0,0.0,0.0,0.0,0.0,0.0,0.0,0.0,7.3342,7.5012,0.0,0.0,0.0,0.0,0.0,0.0,0.0,0.0,8.0223,0.0,0.0,0.0,0.0,0.0,0.0,0.0,0.0,0.0,0.0,0.0,0.0,0.0,0.0,0.0,0.0,0.0,0.0,0.0,0.0,0.0,0.0,0.0,0.0,0.0,0.0,0.0,0.0,0.0,0.0,0.0,0.0,0.0,0.0,0.0,0.0,0.0,0.0,0.0,0.0,0.0,0.0,0.0,0.0,0.0,0.0,0.0,0.0,0.0,0.0,0.0,0.0,0.0,0.0,0.0,0.0,7.3487,7.5873,7.7855,7.9323,8.0314,8.0755,8.0608,7.9837,7.8148,7.5616,0.0,0.0,0.0,0.0,0.0,0.0,0.0,0.0,0.0,0.0,0.0,0.0,0.0,0.0,0.0,0.0,0.0,0.0,0.0,0.0,0.0,0.0,0.0,0.0,0.0,0.0,0.0,0.0,0.0,0.0,0.0,0.0,0.0,0.0,0.0,0.0,0.0,0.0,0.0,7.6406,7.7529,0.0,0.0,0.0,0.0,0.0,0.0,0.0,0.0,8.1678,0.0,0.0,0.0,0.0,0.0,0.0,0.0,0.0,0.0,0.0,0.0,0.0,0.0,0.0,0.0,0.0,0.0,0.0,0.0,0.0,0.0,0.0,0.0,0.0,0.0,0.0,0.0,0.0,0.0,0.0,0.0,0.0,0.0,0.0,0.0,0.0,0.0,0.0,0.0,0.0,0.0,0.0,0.0,0.0,0.0,0.0,0.0,0.0,0.0,0.0,0.0,0.0,0.0,0.0,0.0,7.4955,7.6937,7.8772,8.0388,8.1195,8.1415,8.1012,8.0204,7.8809,0.0,0.0,0.0,0.0,0.0,0.0,0.0,0.0,0.0,0.0,0.0,0.0,0.0,0.0,0.0,0.0,0.0,0.0,0.0,0.0,0.0,0.0,0.0,0.0,0.0,0.0,0.0,0.0,0.0,0.0,0.0,0.0,0.0,0.0,0.0,0.0,0.0,0.0,0.0,0.0,7.8653,7.9712,8.015,0.0,0.0,0.0,0.0,0.0,0.0,8.3657,8.3899,0.0,0.0,0.0,0.0,0.0,0.0,0.0,0.0,0.0,0.0,0.0,0.0,0.0,0.0,0.0,0.0,0.0,0.0,0.0,0.0,0.0,0.0,0.0,0.0,0.0,0.0,0.0,0.0,0.0,0.0,0.0,0.0,0.0,0.0,0.0,0.0,0.0,0.0,0.0,0.0,0.0,0.0,0.0,0.0,0.0,0.0,0.0,0.0,0.0,0.0,0.0,0.0,0.0,0.0,0.0,7.6313,7.8002,7.9617,8.1195,8.1856,8.1966,8.1489,8.0388,7.9103,0.0,0.0,0.0,0.0,0.0,0.0,0.0,0.0,0.0,0.0,0.0,0.0,0.0,0.0,0.0,0.0,0.0,0.0,0.0,0.0,0.0,0.0,0.0,0.0,0.0,0.0,0.0,0.0,0.0,0.0,0.0,0.0,0.0,0.0,0.0,0.0,0.0,0.0,0.0,0.0,0.0,8.1697,8.2342,8.2706,0.0,0.0,0.0,0.0,8.5554,8.5803,0.0,0.0,0.0,0.0,0.0,0.0,0.0,0.0,0.0,0.0,0.0,0.0,0.0,0.0,0.0,0.0,0.0,0.0,0.0,0.0,0.0,0.0,0.0,0.0,0.0,0.0,0.0,0.0,0.0,0.0,0.0,0.0,0.0,0.0,0.0,0.0,0.0,0.0,0.0,0.0,0.0,0.0,0.0,0.0,0.0,0.0,0.0,0.0,0.0,0.0,0.0,0.0,0.0,0.0,0.0,0.0,7.7127,7.8809,8.0424,8.1966,8.215,8.248,8.3067,8.0975,7.936,0.0,0.0,0.0,0.0,0.0,0.0,0.0,0.0,0.0,0.0,0.0,0.0,0.0,0.0,0.0,0.0,0.0,0.0,0.0,0.0,0.0,0.0,0.0,0.0,0.0,0.0,0.0,0.0,0.0,0.0,0.0,0.0,0.0,0.0,0.0,0.0,0.0,0.0,0.0,0.0,0.0,8.2716,8.2792,8.4131,8.5108,0.0,0.0,8.744,8.7828,8.7848,0.0,0.0,0.0,0.0,0.0,0.0,0.0,0.0,0.0,0.0,0.0,0.0,0.0,0.0,0.0,0.0,0.0,0.0,0.0,0.0,0.0,0.0,0.0,0.0,0.0,0.0,0.0,0.0,0.0,0.0,0.0,0.0,0.0,0.0,0.0,0.0,0.0,0.0,0.0,0.0,0.0,0.0,0.0,0.0,0.0,0.0,0.0,0.0,0.0,0.0,0.0,0.0,0.0,0.0,0.0,7.5946,7.8002,7.9653,8.1269,8.281,8.3324,8.3508,8.3398,8.1966,8.0571,0.0,0.0,0.0,0.0,0.0,0.0,0.0,0.0,0.0,0.0,0.0,0.0,0.0,0.0,0.0,0.0,0.0,0.0,0.0,0.0,0.0,0.0,0.0,0.0,0.0,0.0,0.0,0.0,0.0,0.0,0.0,0.0,0.0,0.0,0.0,0.0,0.0,0.0,0.0,0.0,0.0,0.0,8.5208,8.6317,0.0,0.0,0.0,8.8462,8.9017,0.0,0.0,0.0,0.0,0.0,0.0,0.0,0.0,0.0,0.0,0.0,0.0,0.0,0.0,0.0,0.0,0.0,0.0,0.0,0.0,0.0,0.0,0.0,0.0,0.0,0.0,0.0,0.0,0.0,0.0,0.0,0.0,0.0,0.0,0.0,0.0,0.0,0.0,0.0,0.0,0.0,0.0,0.0,0.0,0.0,0.0,0.0,0.0,0.0,0.0,0.0,0.0,0.0,0.0,0.0,0.0,0.0,7.8883,8.0498,8.2076,8.3654,8.4278,8.4315,8.3728,8.2737,0.0,0.0,0.0,0.0,0.0,0.0,0.0,0.0,0.0,0.0,0.0,0.0,0.0,0.0,0.0,0.0,0.0,0.0,0.0,0.0,0.0,0.0,0.0,0.0,0.0,0.0,0.0,7.4409,0.0,0.0,0.0,0.0,0.0,0.0,0.0,0.0,0.0,0.0,0.0,0.0,0.0,0.0,8.6696,8.7348,8.8382,8.913,0.0,0.0,8.9954,9.068,9.0757,9.0754,0.0,0.0,0.0,0.0,0.0,0.0,0.0,0.0,0.0,0.0,0.0,0.0,0.0,0.0,0.0,0.0,0.0,0.0,0.0,0.0,0.0,0.0,0.0,0.0,0.0,0.0,0.0,0.0,0.0,0.0,0.0,0.0,0.0,0.0,0.0,0.0,0.0,0.0,0.0,0.0,0.0,0.0,0.0,0.0,0.0,0.0,0.0,0.0,0.0,0.0,0.0,0.0,0.0,0.0,0.0,7.969,8.1305,8.2884,8.4462,8.4572,8.4572,8.4499,8.303,8.1452,0.0,0.0,0.0,0.0,0.0,0.0,0.0,0.0,0.0,0.0,0.0,0.0,0.0,0.0,0.0,0.0,0.0,0.0,0.0,0.0,0.0,0.0,0.0,0.0,0.0,0.0,0.0,0.0,0.0,0.0,0.0,0.0,0.0,0.0,0.0,0.0,0.0,0.0,0.0,0.0,0.0,8.8339,8.8416,8.9909,9.1038,0.0,9.2346,9.3346,9.3441,9.3441,9.321,9.2441,0.0,0.0,0.0,0.0,0.0,0.0,0.0,0.0,0.0,0.0,0.0,0.0,0.0,0.0,0.0,0.0,0.0,0.0,0.0,0.0,0.0,0.0,0.0,0.0,0.0,0.0,0.0,0.0,0.0,0.0,0.0,0.0,0.0,0.0,0.0,0.0,0.0,0.0,0.0,0.0,0.0,0.0,0.0,0.0,0.0,0.0,0.0,0.0,0.0,0.0,0.0,0.0,0.0,7.8112,7.9764,8.1856,8.3471,8.4572,8.5563,8.5857,8.5343,8.4242,8.2986,0.0,0.0,0.0,0.0,0.0,0.0,0.0,0.0,0.0,0.0,0.0,0.0,0.0,0.0,0.0,0.0,0.0,0.0,0.0,0.0,0.0,0.0,0.0,0.0,0.0,0.0,0.0,0.0,7.8091,7.8424,7.8973,0.0,0.0,0.0,0.0,0.0,0.0,0.0,0.0,0.0,0.0,9.0157,9.0157,9.1654,0.0,0.0,9.3287,9.3672,9.3672,9.3672,9.3595,9.3287,9.2979,0.0,0.0,0.0,0.0,0.0,0.0,0.0,0.0,0.0,0.0,0.0,0.0,0.0,0.0,0.0,0.0,0.0,0.0,0.0,0.0,0.0,0.0,0.0,0.0,0.0,0.0,0.0,0.0,0.0,0.0,0.0,0.0,0.0,0.0,0.0,0.0,0.0,0.0,0.0,0.0,0.0,0.0,0.0,0.0,0.0,0.0,0.0,0.0,0.0,0.0,0.0,0.0,7.8883,8.053,8.2663,8.4202,8.5043,8.6366,8.673,8.5952,8.5401,8.44,0.0,0.0,0.0,0.0,0.0,0.0,0.0,0.0,0.0,0.0,0.0,0.0,0.0,0.0,0.0,0.0,0.0,0.0,0.0,0.0,0.0,0.0,0.0,0.0,0.0,0.0,0.0,0.0,7.9829,8.0142,8.0821,0.0,0.0,0.0,0.0,0.0,0.0,0.0,0.0,0.0,0.0,9.1941,9.1979,9.3172,9.4095,9.4095,9.4287,9.448,9.448,9.448,9.4403,9.4134,0.0,0.0,0.0,0.0,0.0,0.0,0.0,0.0,0.0,0.0,0.0,0.0,0.0,0.0,0.0,0.0,0.0,0.0,0.0,0.0,0.0,0.0,0.0,0.0,0.0,0.0,0.0,7.4925,0.0,0.0,7.4992,0.0,0.0,0.0,0.0,0.0,0.0,0.0,0.0,0.0,0.0,0.0,0.0,0.0,0.0,0.0,0.0,0.0,0.0,0.0,0.0,0.0,0.0,8.0534,8.2113,8.3765,8.5113,8.6089,8.69,8.7037,8.6389,8.6278,8.5599,8.4201,0.0,0.0,0.0,0.0,0.0,0.0,0.0,0.0,0.0,0.0,0.0,0.0,0.0,0.0,0.0,0.0,0.0,0.0,0.0,0.0,0.0,0.0,0.0,0.0,0.0,0.0,8.3346,8.3429,8.3478,0.0,0.0,0.0,0.0,0.0,0.0,0.0,0.0,0.0,9.1095,9.2595,9.3633,9.3633,9.4403,9.498,9.498,9.5672,9.6211,9.6172,9.6211,9.598,0.0,0.0,0.0,0.0,0.0,0.0,0.0,0.0,0.0,0.0,0.0,0.0,0.0,0.0,0.0,0.0,0.0,0.0,0.0,0.0,0.0,0.0,0.0,0.0,0.0,0.0,0.0,7.8148,7.8148,0.0,0.0,0.0,0.0,0.0,0.0,0.0,0.0,0.0,0.0,0.0,8.6591,8.6885,0.0,0.0,0.0,0.0,0.0,0.0,0.0,0.0,0.0,0.0,0.0,0.0,8.17,8.2417,8.5029,8.6672,8.7263,8.852,8.8951,8.8334,8.7741,8.6821,8.5491,0.0,0.0,0.0,0.0,0.0,0.0,0.0,0.0,0.0,0.0,0.0,0.0,0.0,0.0,0.0,0.0,0.0,0.0,0.0,0.0,0.0,0.0,0.0,0.0,0.0,8.5236,0.0,0.0,0.0,0.0,0.0,0.0,0.0,0.0,0.0,0.0,0.0,9.2249,9.2787,9.3826,9.4557,9.4557,9.5288,9.5865,0.0,0.0,0.0,0.0,0.0,0.0,0.0,0.0,0.0,0.0,0.0,0.0,0.0,0.0,9.1672,9.0556,8.8979,8.7825,8.7825,0.0,0.0,0.0,0.0,0.0,0.0,0.0,0.0,0.0,0.0,0.0,0.0,0.0,0.0,8.0608,0.0,8.0645,0.0,0.0,0.0,0.0,0.0,0.0,0.0,0.0,8.6554,8.7619,8.861,8.8647,8.8904,0.0,8.8937,8.7649,0.0,0.0,0.0,0.0,0.0,0.0,0.0,0.0,8.3139,8.3925,8.625,8.7813,8.8493,8.9788,9.036,9.0092,8.9287,8.838,8.7267,8.6738,8.643,0.0,0.0,0.0,0.0,0.0,0.0,0.0,0.0,0.0,0.0,0.0,0.0,0.0,0.0,0.0,0.0,0.0,0.0,0.0,0.0,0.0,0.0,0.0,8.7863,0.0,0.0,0.0,0.0,0.0,0.0,0.0,0.0,0.0,9.221,9.2826,9.3557,9.4095,9.4903,9.5441,9.5441,0.0,0.0,0.0,0.0,0.0,0.0,0.0,9.6288,9.6288,9.6288,9.6288,9.6288,9.5826,9.5288,9.4711,0.0,0.0,9.2326,9.0941,9.0017,9.0017,8.9787,8.9556,8.9556,8.9556,8.9402,0.0,0.0,0.0,0.0,0.0,0.0,0.0,0.0,8.2443,8.2443,0.0,8.2406,0.0,0.0,0.0,0.0,8.3728,8.593,0.0,0.0,8.8757,8.9528,8.9564,8.9601,8.9601,8.9564,8.9776,8.9806,8.9622,8.7412,0.0,0.0,0.0,0.0,0.0,0.0,8.4891,8.6566,8.7561,8.8561,8.9795,9.0685,9.1245,9.1527,9.0949,9.028,8.9513,8.901,8.8431,8.7749,8.7823,0.0,0.0,0.0,0.0,0.0,0.0,0.0,0.0,0.0,0.0,0.0,0.0,0.0,0.0,0.0,0.0,0.0,0.0,0.0,0.0,9.0787,0.0,0.0,0.0,0.0,0.0,0.0,0.0,0.0,0.0,0.0,9.4134,9.4634,9.5114,9.5134,0.0,0.0,0.0,0.0,9.6403,9.6422,9.6365,9.6403,9.6422,9.6403,9.6403,9.6403,0.0,0.0,9.6326,9.6326,9.6249,9.6288,9.5557,9.4749,9.4018,9.3056,9.2479,9.2441,9.1787,9.1325,9.1287,9.1364,9.1364,9.1546,0.0,0.0,0.0,0.0,8.7362,8.7362,8.7288,8.6738,8.6481,8.6444,8.5894,0.0,0.0,0.0,0.0,0.0,0.0,8.85,8.9601,9.0629,9.1436,9.206,9.2794,9.3124,9.3087,9.2818,9.2399,9.1808,9.0912,8.9167,8.6661,0.0,0.0,0.0,0.0,8.7223,8.8018,8.9919,9.1343,9.2119,9.2909,9.32,9.2931,9.2379,9.1995,9.1767,9.1774,9.1724,9.1586,9.1608,0.0,0.0,0.0,0.0,0.0,0.0,0.0,0.0,0.0,0.0,0.0,0.0,0.0,0.0,0.0,0.0,0.0,0.0,0.0,9.2595,9.2826,9.2979,0.0,0.0,0.0,0.0,0.0,0.0,0.0,0.0,0.0,9.7403,9.7557,9.7711,0.0,0.0,9.8168,9.813,9.8222,9.8275,9.8314,9.8314,0.0,9.8275,9.8222,9.8168,9.8168,9.7613,9.7173,9.7173,9.6711,9.6288,9.6288,9.6095,9.6019,9.6249,9.4711,9.348,9.3326,9.3133,9.2979,9.3018,9.3441,9.3903,9.7933,9.518,9.2464,9.1363,9.1363,9.1363,9.1363,9.1326,9.0849,9.0445,9.0115,8.9638,8.9234,8.894,8.8904,0.0,0.0,0.0,9.0701,9.1692,9.2537,9.3235,9.3859,9.4482,9.4776,9.4775,9.4747,9.4429,9.3946,9.37,9.2503,9.0438,0.0,0.0,8.7951,8.8921,8.9518,8.9911,9.1638,9.2862,9.3428,9.4326,9.468,9.4358,9.3732,9.3403,9.3403,9.3272,9.3266,9.3289,9.333,9.2948,0.0,0.0,0.0,0.0,0.0,0.0,0.0,0.0,0.0,0.0,0.0,9.0671,9.0671,0.0,0.0,0.0,9.3749,9.4749,9.4711,9.5326,0.0,0.0,0.0,0.0,0.0,0.0,0.0,9.7942,9.8826,9.9345,9.9345,9.969,9.967,9.894,9.8862,9.8934,9.9004,0.0,9.9161,9.9194,9.9156,9.9194,9.9156,9.9073,9.9004,9.8969,9.8495,9.8075,9.8036,9.7633,9.7288,9.7288,9.7288,9.7442,9.7942,9.6749,9.5711,9.5711,9.5711,9.5711,9.5711,9.6134,9.6519,10.377,10.2558,9.7419,9.5107,9.485,9.4813,9.4777,9.474,9.463,9.4153,9.3492,9.3418,9.2978,9.2281,9.2244,0.0,9.2244,9.3052,9.3529,9.3673,9.4558,9.5036,9.5251,9.5462,9.5494,9.5492,9.5917,9.6131,9.605,9.5836,9.5393,9.4637,9.2908,9.1865,9.1583,9.1621,9.1798,9.2032,9.2862,9.3541,9.4058,9.5051,9.5621,9.5643,9.4985,9.4627,9.4589,9.4001,9.3639,9.3639,9.3755,9.3774,9.3735,0.0,0.0,0.0,0.0,0.0,0.0,0.0,0.0,0.0,0.0,0.0,0.0,0.0,0.0,9.398,9.5518,0.0,9.648,9.7865,0.0,0.0,0.0,9.8827,9.8923,9.8923,9.8961,9.9134,0.0,0.0,10.0534,10.128,10.1199,9.9548,9.9221,9.9236,9.9497,9.9568,9.9483,9.9768,9.9613,9.9575,9.9744,9.963,9.9536,9.9492,9.9141,9.9011,9.9011,9.8805,9.8807,9.8692,9.8788,9.8788,9.8865,9.8788,9.8904,9.8865,9.875,9.8673,9.8557,9.8634,9.8788,10.678,10.5422,10.41,10.2081,9.9732,9.9108,9.8851,9.8778,9.7566,9.6942,9.6722,9.6098,9.5731,9.5547,9.5699,9.5736,9.581,9.6142,9.6398,9.6615,9.7392,9.787,9.8156,9.9026,9.9124,9.8561,9.8498,9.8199,9.7588,9.7317,9.711,9.692,9.6651,9.5045,9.2253,9.2718,9.315,9.3425,9.4261,9.4872,9.526,9.564,9.5818,9.5839,9.5749,9.5712,9.5712,9.5656,9.5598,9.5598,9.5617,9.5366,9.4692,9.4711,0.0,0.0,0.0,0.0,0.0,0.0,0.0,0.0,0.0,9.398,9.4652,0.0,9.5942,0.0,9.7557,9.8211,9.8211,9.8557,0.0,0.0,9.8788,9.9095,9.9786,9.9863,10.0401,10.1784,10.2181,10.2598,10.3254,10.3554,10.3614,10.3258,10.2044,10.1487,10.218,10.1838,10.1737,10.2268,10.1931,10.1582,10.153,10.1439,10.1274,10.1162,10.0524,10.0033,10.0033,9.9372,9.8862,9.8862,9.8845,9.9077,9.9654,9.9788,10.0019,10.0481,9.9712,9.8788,9.8788,9.9327,9.9981,10.9863,10.9019,10.8688,10.7257,10.5128,10.3256,10.2448,10.2338,10.109,10.0356,9.9989,9.9299,9.8825,9.8609,9.8761,9.8688,9.8356,9.8539,9.8754,9.9071,9.948,9.9842,10.0113,10.0853,10.1013,10.0594,10.0737,10.0603,10.0137,9.9809,9.9455,9.9074,9.8899,9.7554,9.5166,9.5391,9.5643,9.5852,9.6057,9.6074,9.5918,9.6019,9.6078,9.6078,9.6136,9.6194,9.6213,9.6251,9.6288,9.6288,9.6288,9.6249,9.6134,9.6095,9.6095,0.0,0.0,0.0,0.0,0.0,0.0,0.0,0.0,0.0,0.0,0.0,9.7596,9.8057,9.8865,9.9519,9.9865,10.0288,10.0711,10.1096,10.1172,10.1439,10.1992,10.203,10.243,10.3443,10.3636,10.387,10.4373,10.4519,10.4646,10.4738,10.3923,10.3471,10.3895,10.371,10.3639,10.4103,10.3812,10.3364,10.3011,10.2517,10.215,10.2007,10.1545,10.1084,10.1084,10.0563,10.014,10.014,10.0072,10.0134,10.0634,10.0673,10.0789,10.1019,10.0596,9.9981,9.9942,10.0596,10.1366,11.291,11.2653,11.1955,11.1265,11.0274,10.7226,10.5757,10.5427,10.4582,10.3889,10.3231,10.2622,10.2083,10.1609,10.1722,10.1388,10.0757,10.0972,10.125,10.1551,10.1551,10.1748,10.2066,10.2403,10.2476,10.2429,10.2874,10.302,10.2969,10.2509,10.1926,10.1198,10.0578,9.9913,9.9201,9.8971,9.8698,9.8363,9.7823,9.7193,9.6463,9.6558,9.6634,9.6634,9.6634,9.6634,9.6634,9.6634,9.6634,9.6634,9.6634,9.6942,9.7634,9.7673,9.8019,0.0,9.8788,0.0,0.0,0.0,0.0,0.0,0.0,0.0,0.0,9.9307,9.948,9.948,10.0173,10.0904,10.1597,10.2424,10.3212,10.3944,10.4152,10.4258,10.4322,10.4338,10.441,10.4583,10.4732,10.4829,10.5022,10.5061,10.5227,10.5427,10.5418,10.5388,10.5368,10.5125,10.4958,10.5235,10.5211,10.4674,10.4014,10.3286,10.282,10.2706,10.2434,10.2229,10.2229,10.1918,10.1693,10.1661,10.1487,10.1439,10.1479,10.1366,10.1308,10.1327,10.1212,10.1173,10.125,10.1827,10.2597,11.5553,11.4341,11.4194,11.3815,11.311,11.1122,10.9208,10.7331,10.6521,10.6284,10.6344,10.5607,10.5317,10.5322,10.4983,10.4754,10.464,10.499,10.5358,10.5643,10.568,10.5867,10.6169,10.6449,10.6246,10.5627,10.5357,10.4865,10.4215,10.3684,10.3332,10.314,10.315,10.3037,10.2883,0.0,0.0,0.0,9.8538,9.8462,9.8308,9.8327,9.8327,9.8327,9.8327,0.0,9.8327,9.8327,9.8327,9.8327,9.8327,0.0,0.0,0.0,0.0,0.0,0.0,0.0,0.0,0.0,0.0,0.0,10.2597,10.2424,10.1019,10.2174,10.3078,10.319,10.3344,10.3498,10.3653,10.3858,10.4083,10.4237,10.4305,10.4419,10.4519,10.4548,10.4837,10.5696,10.5909,10.6221,10.6805,10.7053,10.7135,10.7184,10.726,10.7301,10.7348,10.6143,10.5513,10.611,10.5807,10.5241,10.4954,10.4746,10.4485,10.4516,10.388,10.3421,10.3322,10.2591,10.1962,10.1942,10.1748,10.1659,10.1555,10.1499,10.1423,10.1327,10.1289,10.1289,10.1327,10.1981,10.2828,11.7361,11.6728,11.6323,11.5923,0.0,11.4164,11.2896,11.1515,10.9193,10.8464,10.8894,10.8521,10.8261,10.8179,10.763,10.7199,10.6823,10.6805,10.6965,10.7225,10.7254,10.7398,10.7675,10.7926,10.7801,10.7444,10.7303,10.702,10.6621,10.6391,10.6092,10.5669,10.5731,10.5366,10.452,10.4097,10.2615,9.998,10.0,9.9635,9.8827,9.8788,9.8788,9.8788,9.8788,0.0,0.0,0.0,0.0,0.0,0.0,0.0,0.0,9.9461,0.0,10.0134,10.0575,10.1017,10.1479,10.225,10.2942,10.3476,10.4687,10.4669,10.292,10.365,10.4185,10.431,10.4271,10.4465,10.4851,10.5022,10.5256,10.5643,10.5812,10.594,10.6032,10.6056,10.6271,10.6769,10.6992,10.7199,10.7589,10.7735,10.7989,10.8407,10.8505,10.8684,10.8989,10.7719,10.681,10.7186,10.6565,10.5973,10.5908,10.5548,10.53,10.5135,10.4765,10.4487,10.444,10.3929,10.348,10.3367,10.2882,10.2422,10.2237,10.1861,10.1481,10.1347,10.1289,10.1289,10.1366,10.2327,10.3482,11.9247,11.9256,11.8482,11.7871,11.7419,11.6565,11.6005,11.5582,11.2135,0.0,0.0,11.1089,11.0856,11.0558,11.0051,10.949,10.8841,10.8497,10.8516,10.8724,10.8686,10.8818,10.9072,10.927,10.9356,10.9342,10.9397,10.9316,10.92,10.9133,10.8713,10.7982,10.7905,10.7175,10.5828,10.5097,10.402,10.2481,10.1981,10.1096,9.975,9.9712,9.9712,9.9712,9.9712,9.9635,9.9481,9.9481,9.95,9.9461,9.948,9.9904,10.0769,10.0863,10.1265,10.1958,10.2742,10.3181,10.3181,10.4108,10.4855,10.5205,10.6579,10.675,10.5145,10.5167,10.5293,10.5349,10.5349,10.5659,10.6278,10.6543,10.6912,10.7597,10.7675,10.7688,10.7753,10.7617,10.7537,10.7698,10.773,10.7883,10.8039,10.8158,10.8465,10.9223,10.946,10.9668,11.0228,10.9323,10.8455,10.8464,10.7997,10.7407,10.7125,10.669,10.6021,10.5962,10.5656,10.547,10.5447,10.5204,10.5038,10.4793,10.4091,10.354,10.325,10.2679,10.1922,10.1597,10.152,10.1558,10.1673,10.2789,10.402,12.1892,12.1378,12.06,11.9768,11.882,11.8037,11.7268,11.6418,11.4863,11.3997,11.3664,11.2948,11.2807,11.2976,11.2438,11.2157,11.2043,11.2247,11.2422,11.2577,11.2577,11.2653,11.2863,11.2982,11.3066,11.299,11.2434,11.1769,11.1115,11.0406,10.956,10.8867,10.8713,10.8636,10.8367,10.8252,10.7713,10.679,10.4636,10.3405,10.3174,10.3174,10.3174,10.3174,10.3135,10.2828,10.2097,10.2058,10.2059,10.2135,10.2154,10.2615,10.3555,10.3606,10.3774,10.3907,10.409,10.4178,10.4216,10.5625,10.7237,10.8748,10.9265,10.8982,10.7963,10.8515,10.8962,10.91,10.8958,10.9152,10.932,10.9315,10.9394,10.9549,10.9126,10.8797,10.8834,10.8263,10.7892,10.7988,10.7946,10.8312,10.8898,10.907,10.9432,11.0178,11.0496,11.0503,11.0663,11.0429,11.0273,11.0234,11.0156,10.9764,10.9018,10.886,10.8311,10.7716,10.6997,10.6552,10.6497,10.5854,10.5382,10.5152,10.487,10.4582,10.4339,10.4084,10.3451,10.2692,10.2482,10.2424,10.2443,10.3251,10.3982,12.3549,12.2998,12.2217,12.163,12.1172,12.0255,11.9161,11.7977,11.7516,11.6871,11.6043,11.5247,11.5089,11.5231,11.4197,11.3771,11.3733,11.3521,11.348,11.3601,11.3639,11.3711,11.3827,11.3872,11.3895,11.3895,11.3577,11.3214,11.2829,11.2445,11.206,11.1637,11.0791,11.0329,11.0252,10.9367,10.8713,10.8329,10.6328,10.502,10.4559,10.4135,10.3905,10.3905,10.3905,10.3752,10.3368,10.3368,10.3406,10.3571,10.3571,10.3816,10.425,10.4419,10.4458,10.4497,10.4989,10.5525,10.599,10.7663,10.9009,10.9849,11.0472,11.0653,11.0245,11.001,10.9987,11.0097,11.0108,11.0108,11.0108,11.0204,11.0255,11.0255,10.9979,10.984,10.9798,10.9534,10.9273,10.9376,10.9393,10.9555,10.9907,10.9993,11.0348,11.1168,11.164,11.1953,11.1992,11.1953,11.164,11.0859,11.0586,11.0468,11.0078,10.9999,10.9647,10.8864,10.839,10.7915,10.7555,10.6899,10.6679,10.6519,10.6105,10.5627,10.5333,10.476,10.42,10.3707,10.3406,10.3368,10.3424,10.3982,10.4674,12.5057,12.4606,12.3822,12.3352,12.3057,12.2084,12.091,11.9758,11.9785,11.9326,11.8471,11.7432,11.6972,11.6873,11.5779,11.5165,11.4936,11.4469,11.4295,11.4426,11.4426,11.4471,11.4561,11.4561,11.4561,11.4561,11.4561,11.4484,11.4291,11.4291,11.4176,11.3907,11.2714,11.206,11.206,11.0714,11.0081,10.9986,10.8601,10.7234,10.5982,10.5328,10.504,10.506,10.5099,10.5043,10.4927,10.4907,10.5016,10.5205,10.5222,10.527,10.538,10.568,10.5761,10.5657,10.6469,10.7433,10.8338,10.9641,11.0634,11.1033,11.1736,11.2241,11.2247,11.1542,11.0979,11.0957,11.0964,11.0964,11.1011,11.1019,11.1016,11.1016,11.0861,11.0815,11.0791,11.0637,11.0564,11.0614,11.0581,11.0622,11.0857,11.0898,11.125,11.207,11.2773,11.3164,11.3203,11.3203,11.2578,11.1679,11.1172,11.1133,11.0976,11.0898,11.0547,10.9726,10.9374,10.8903,10.8392,10.8102,10.7868,10.766,10.7143,10.6614,10.6325,10.5732,10.5078,10.4619,10.4404,10.4253,10.4194,10.4597,10.5328,12.6811,12.6251,12.5497,12.4646,12.3789,12.266,12.2053,12.1774,12.1295,12.108,12.0722,11.9086,11.7923,11.7387,11.7318,11.6867,11.62,11.6201,11.6192,11.6154,11.6253,11.6253,11.6176,11.6215,11.6253,11.6215,11.6176,11.5792,11.5176,11.5176,11.4791,11.4099,11.383,11.3753,11.3714,11.356,11.3548,11.3671,11.2785,11.1088,10.8713,10.8482,10.8506,10.8587,10.8568,10.8357,10.7654,10.7731,10.7813,10.8011,10.7963,10.8098,10.831,10.9066,10.9171,10.8471,10.931,11.0299,11.1117,11.1425,11.2215,11.3626,11.387,11.4027,11.4091,11.4009,11.3607,11.2973,11.2735,11.2613,11.2735,11.2713,11.2646,11.2568,11.2119,11.1782,11.175,11.1049,11.0582,11.0585,11.1015,11.0937,11.1836,11.1992,11.2265,11.3086,11.3398,11.3515,11.3476,11.3359,11.332,11.3008,11.2929,11.2539,11.1992,11.1758,11.1406,11.0625,10.9843,10.9453,10.9176,10.8627,10.7993,10.8371,10.7972,10.7714,10.7373,10.7041,10.6539,10.5735,10.5361,10.5159,10.5022,10.5097,10.552,12.8429,12.7947,12.7113,12.5849,12.4455,12.4092,12.3407,12.2486,12.2306,12.1981,12.1467,12.0626,11.9872,11.9114,11.87,11.8031,11.7224,11.7269,11.6984,11.6522,11.6484,11.6484,11.6484,11.6484,11.6484,11.6484,11.6484,11.633,11.6061,11.6022,11.583,11.5445,11.5022,11.4797,11.4763,11.4361,11.4175,11.4318,11.397,11.3276,11.2214,11.0632,10.9668,10.932,10.93,10.9234,10.905,10.9043,10.918,10.9383,10.9407,10.9466,10.9612,11.0065,11.0115,10.9842,11.0649,11.1545,11.2364,11.295,11.3832,11.5003,11.511,11.5129,11.518,11.518,11.4986,11.4598,11.3686,11.3053,11.3092,11.3142,11.3149,11.3112,11.2845,11.2851,11.3397,11.3125,11.3046,11.3476,11.3593,11.3672,11.4062,11.4179,11.4336,11.4648,11.4687,11.4648,11.4687,11.4297,11.3984,11.3906,11.3554,11.3086,11.2695,11.2656,11.2265,11.1601,11.1093,11.0781,11.0117,10.9883,10.9522,10.9412,10.9304,10.8964,10.8459,10.8198,10.7779,10.6849,10.6224,10.5968,10.5928,10.5869,10.6059,12.9685,12.9105,12.8131,12.673,12.5192,12.5199,12.457,12.348,12.3284,12.2754,12.1985,12.1947,12.1485,12.06,11.9792,11.8946,11.8215,11.8177,11.783,11.7253,11.7215,11.7215,11.7215,11.7215,11.7176,11.7215,11.7253,11.71,11.6869,11.6599,11.6506,11.6452,11.5951,11.573,11.5779,11.5201,11.507,11.5199,11.5217,11.5171,11.479,11.3103,11.1697,11.0962,11.0846,11.0863,11.0859,11.0872,11.0833,11.0868,11.0887,11.0814,11.0738,11.0993,11.1222,11.1505,11.2158,11.2877,11.3661,11.4381,11.5131,11.5912,11.608,11.6048,11.6051,11.6052,11.5936,11.5585,11.4528,11.3818,11.3507,11.3511,11.3552,11.3552,11.3749,11.4218,11.4726,11.4843,11.4961,11.5586,11.539,11.5703,11.5703,11.5664,11.5586,11.5586,11.5664,11.5781,11.5703,11.5195,11.4843,11.4804,11.4101,11.3515,11.3281,11.3125,11.2851,11.2461,11.2031,11.1523,11.0976,11.0859,11.0582,11.0061,11.0395,11.0275,10.9472,10.913,10.8399,10.7453,10.6824,10.6564,10.6468,10.6449,10.6407,13.0352,12.961,12.8317,12.7233,12.6287,12.5682,12.537,12.5038,12.4409,12.3601,12.2831,12.2793,12.2331,12.1447,12.06,11.9792,11.91,11.9061,11.8946,11.8831,11.8869,11.8946,11.8985,11.8985,11.8946,11.8754,11.8715,11.8407,11.7677,11.6946,11.6589,11.6659,11.6582,11.6686,11.6827,11.6789,11.6957,11.7058,11.7089,11.6879,11.631,11.6052,11.54,11.4537,11.4491,11.4095,11.37,11.3656,11.3409,11.2801,11.2729,11.2442,11.1915,11.2525,11.3245,11.4001,11.4199,11.4628,11.5373,11.5615,11.601,11.6753,11.6951,11.6953,11.6953,11.6953,11.664,11.582,11.5664,11.5234,11.4648,11.4492,11.4453,11.4492,11.5156,11.5547,11.5625,11.5664,11.5664,11.582,11.5976,11.6093,11.5937,11.5742,11.5898,11.5898,11.5781,11.5859,11.5976,11.582,11.5703,11.5508,11.4961,11.414,11.3437,11.3203,11.3164,11.2929,11.2422,11.1953,11.1601,11.125,11.0937,11.0738,11.0885,11.0782,11.0296,10.9514,10.8473,10.7611,10.7075,10.6813,10.6694,10.6565,10.6507,13.071,12.9955,12.9065,12.8181,12.7297,12.6577,12.5909,12.537,12.5063,12.4178,12.3062,12.2908,12.2408,12.1562,12.1293,12.0639,11.9908,11.9869,11.96,11.9177,11.91,11.91,11.91,11.91,11.91,11.91,11.91,11.8684,11.7981,11.7595,11.7241,11.6922,11.6903,11.7001,11.7218,11.7252,11.7376,11.7621,11.766,11.7566,11.7408,11.7379,11.7195,11.6875,11.5684,11.5018,11.4948,11.4918,11.4861,11.4691,11.4184,11.3732,11.3522,11.3769,11.4054,11.4489,11.4997,11.5661,11.6404,11.6522,11.6913,11.7694,11.7851,11.7812,11.7812,11.7812,11.7695,11.7343,11.6797,11.6367,11.6093,11.5625,11.5273,11.5312,11.5586,11.6054,11.6406,11.6523,11.6718,11.7226,11.7383,11.7422,11.7304,11.7343,11.7383,11.7383,11.7343,11.7304,11.7226,11.6953,11.6562,11.6406,11.582,11.5,11.414,11.3515,11.3203,11.3125,11.289,11.2773,11.25,11.2383,11.2148,11.2031,11.1946,11.1545,11.1112,10.9843,10.8744,10.7705,10.7195,10.7029,10.6851,10.6694,10.6565,13.0984,13.0244,12.9475,12.8717,12.7832,12.7025,12.6371,12.5832,12.5794,12.487,12.3524,12.3293,12.2678,12.1716,12.16,12.1331,12.0754,12.0716,12.0408,11.9946,11.9908,11.9908,11.9908,11.9908,11.9908,11.9869,11.9646,11.9312,11.8863,11.8345,11.785,11.7537,11.7285,11.7247,11.7506,11.7511,11.7621,11.7857,11.7897,11.7954,11.8068,11.8044,11.8073,11.795,11.6828,11.608,11.5983,11.5944,11.5818,11.5633,11.5131,11.4826,11.4796,11.484,11.496,11.5312,11.5859,11.6562,11.7265,11.7422,11.7656,11.8203,11.8281,11.8281,11.8281,11.8281,11.8281,11.8164,11.7812,11.7422,11.7304,11.6875,11.6445,11.625,11.6406,11.6797,11.7343,11.7422,11.7656,11.8047,11.8164,11.8242,11.8281,11.8242,11.8242,11.8281,11.8281,11.8281,11.8203,11.7851,11.7422,11.7343,11.6679,11.5859,11.5,11.4297,11.3515,11.332,11.3125,11.3164,11.3203,11.3203,11.3203,11.3203,11.2968,11.2461,11.1563,11.0236,10.907,10.786,10.7413,10.722,10.7006,10.6778,10.6676,13.1218,13.0487,12.9563,12.8756,12.7948,12.7063,12.6678,12.6601,12.664,12.564,12.4216,12.4101,12.3255,12.1985,12.1908,12.1716,12.1716,12.1716,12.1639,12.1485,12.1562,12.1562,12.1485,12.1485,12.1431,12.1354,12.0814,12.0602,12.0497,11.9126,11.8386,11.8414,11.7725,11.7539,11.7792,11.7803,11.7907,11.8044,11.8073,11.8112,11.8204,11.8204,11.8213,11.8198,11.8038,11.7609,11.6913,11.6913,11.6613,11.5969,11.5777,11.57,11.5625,11.5664,11.6054,11.6679,11.6953,11.7422,11.8086,11.8203,11.8164,11.8281,11.8281,11.8281,11.8281,11.8281,11.8281,11.8281,11.8242,11.8203,11.8203,11.8086,11.7773,11.7265,11.7578,11.8047,11.8164,11.8242,11.8281,11.8281,11.8281,11.8281,11.8281,11.8281,11.8281,11.8281,11.8281,11.8281,11.8281,11.8164,11.8242,11.8086,11.75,11.6718,11.5859,11.5039,11.4218,11.3554,11.3281,11.3203,11.3203,11.3203,11.3203,11.3203,11.3203,11.2695,11.1328,11.0128,10.9327,10.8314,10.7938,10.7401,10.7195,10.6991,10.68,13.1564,13.1179,12.9794,12.9063,12.8602,12.7294,12.6717,12.6717,12.6717,12.6024,12.514,12.4986,12.437,12.3524,12.3332,12.3293,12.3332,12.3293,12.3024,12.2678,12.3062,12.2985,12.2562,12.2485,12.2224,12.1838,12.1665,12.1367,12.0841,11.9885,11.9253,11.8825,11.81,11.7803,11.8036,11.8005,11.8073,11.8161,11.817,11.8226,11.8286,11.8289,11.8258,11.8269,11.8269,11.8116,11.7886,11.7843,11.7767,11.7421,11.6914,11.6328,11.5937,11.6289,11.6718,11.6992,11.7578,11.7968,11.8242,11.832,11.832,11.832,11.832,11.8281,11.8281,11.8281,11.832,11.832,11.8281,11.8281,11.8281,11.8281,11.8203,11.7929,11.8125,11.8281,11.8281,11.8281,11.8281,11.8281,11.8281,11.8281,11.8281,11.8281,11.8281,11.8281,11.8281,11.8281,11.8281,11.8281,11.8281,11.8203,11.7812,11.7461,11.6562,11.5781,11.5078,11.414,11.3593,11.3242,11.3203,11.3203,11.3203,11.3203,11.3203,11.2539,11.1172,11.0247,10.9503,10.858,10.7839,10.7549,10.7375,10.7181,10.6944,13.1679,13.1487,12.991,12.9179,12.9025,12.7409,12.6717,12.6717,12.6717,12.6217,12.5524,12.537,12.4947,12.4216,12.4101,12.4101,12.4139,12.4409,12.4293,12.387,12.3909,12.3817,12.3364,12.3147,12.2873,12.2461,12.2314,12.2071,12.1651,12.0927,12.0407,12.0029,11.8969,11.8473,11.8553,11.8291,11.817,11.8214,11.8219,11.8263,11.8272,11.8274,11.8276,11.8279,11.8279,11.828,11.8281,11.828,11.828,11.8203,11.7734,11.7226,11.6758,11.7187,11.7461,11.7578,11.7968,11.8437,11.8711,11.8828,11.8945,11.914,11.8984,11.8789,11.8711,11.8554,11.8398,11.8711,11.8789,11.8945,11.9218,11.9297,11.914,11.8789,11.8476,11.832,11.8281,11.8281,11.8281,11.8281,11.8281,11.8281,11.8281,11.8281,11.8281,11.8281,11.8281,11.8281,11.8281,11.8281,11.8281,11.8281,11.8164,11.7695,11.707,11.6484,11.5937,11.4922,11.3945,11.3476,11.3203,11.3203,11.3203,11.3203,11.3203,11.2383,11.1127,11.0695,11.0013,10.8953,10.7782,10.7658,10.7498,10.7327,10.709,13.1641,13.141,12.9871,12.914,12.8871,12.7371,12.6717,12.6717,12.6717,12.6255,12.564,12.5601,12.514,12.4447,12.4524,12.4524,12.4447,12.5125,12.5495,12.5226,12.4903,12.4511,12.4393,12.3815,12.3493,12.3299,12.2894,12.2674,12.2584,12.1866,12.1695,12.1537,12.0193,11.9501,11.9444,11.8751,11.8607,11.8704,11.8628,11.8592,11.8476,11.8437,11.8359,11.832,11.8281,11.8281,11.8281,11.8281,11.8281,11.8281,11.8203,11.8125,11.8203,11.8281,11.8203,11.832,11.8398,11.8906,11.9453,11.9687,11.9922,12.0508,12.0039,11.9648,11.9609,11.914,11.9023,11.9609,11.9687,11.9961,12.0547,12.0664,12.0351,11.9726,11.8867,11.8359,11.8281,11.8281,11.8281,11.8281,11.8281,11.8281,11.8281,11.8281,11.8281,11.8281,11.8281,11.8281,11.8281,11.8281,11.8281,11.8281,11.8281,11.8047,11.7461,11.6914,11.6406,11.5898,11.4843,11.414,11.3476,11.332,11.3203,11.3203,11.3086,11.2187,11.1367,11.082,10.9883,10.855,10.79,10.7728,10.7587,10.7386,10.7217,13.1333,13.0718,12.964,12.8833,12.814,12.7101,12.6717,12.6717,12.6717,12.6563,12.6332,12.6371,12.6178,12.6024,12.5947,12.6034,12.6052,12.6283,12.6506,12.6536,12.6432,12.5935,12.544,12.4808,12.4222,12.3802,12.3718,12.3464,12.2935,12.225,12.1967,12.1971,12.102,12.0466,12.0456,12.0224,12.023,12.0233,12.0195,11.9843,11.9336,11.9258,11.8906,11.832,11.832,11.832,11.8281,11.8281,11.8281,11.8281,11.8281,11.8281,11.8281,11.832,11.8633,11.9101,11.9258,11.9648,12.0351,12.0547,12.0664,12.082,12.0742,12.0547,12.0547,12.0351,12.0351,12.0547,12.0547,12.0664,12.0898,12.0937,12.0742,12.0429,11.9336,11.8437,11.8359,11.8281,11.8281,11.8281,11.8281,11.8281,11.8281,11.8281,11.8281,11.8281,11.8281,11.8281,11.8281,11.8281,11.8281,11.8281,11.8281,11.8203,11.789,11.7343,11.6914,11.664,11.5898,11.5039,11.4258,11.3593,11.3398,11.3203,11.3203,11.2578,11.1484,11.0625,10.9375,10.8398,10.7942,10.7794,10.7658,10.7477,10.7286,13.091,13.0371,12.9179,12.8371,12.7832,12.7025,12.6717,12.6717,12.6717,12.6717,12.6717,12.6717,12.6727,12.6736,12.6736,12.683,12.6889,12.695,12.7015,12.7083,12.7187,12.6994,12.6509,12.5912,12.5361,12.4961,12.452,12.4072,12.3589,12.2866,12.2616,12.25,12.1809,12.1433,12.1404,12.1053,12.0937,12.0898,12.0898,12.0625,12.0195,12.0156,11.9687,11.9023,11.8828,11.8711,11.8398,11.8281,11.8281,11.8281,11.8281,11.8281,11.832,11.8672,11.9062,11.9609,11.9922,12.0547,12.125,12.1445,12.164,12.1836,12.1718,12.1484,12.1367,12.1172,12.0976,12.1406,12.1406,12.164,12.1875,12.1679,12.1484,12.1289,12.0195,11.9258,11.8906,11.8515,11.832,11.8281,11.8281,11.8281,11.8281,11.8281,11.8281,11.8281,11.8281,11.8281,11.8281,11.8281,11.8281,11.8281,11.8281,11.8242,11.8203,11.7773,11.7578,11.7304,11.664,11.5859,11.4922,11.4023,11.3476,11.3242,11.3203,11.2851,11.1758,11.0742,10.9883,10.9046,10.8397,10.7905,10.7769,10.7682,10.7469,13.0371,13.0102,12.8563,12.7871,12.764,12.7025,12.6717,12.6717,12.6717,12.6703,12.6703,12.6703,12.676,12.6837,12.686,12.6972,12.7165,12.7165,12.7284,12.7416,12.7557,12.7563,12.7518,12.7,12.6615,12.6334,12.5312,12.4771,12.4346,12.377,12.3452,12.3192,12.2572,12.2381,12.2226,12.164,12.125,12.1367,12.1484,12.1328,12.1093,12.1015,12.0586,11.9843,11.9492,11.9023,11.8515,11.8281,11.8359,11.8476,11.8437,11.8515,11.8593,11.9258,11.9804,12.0117,12.0742,12.1406,12.2148,12.2343,12.2734,12.3203,12.2773,12.2422,12.2383,12.1953,12.1718,12.2304,12.2343,12.2656,12.3008,12.2695,12.2383,12.2187,12.1484,12.0664,11.9922,11.9023,11.8437,11.8398,11.8398,11.8281,11.8281,11.8281,11.8281,11.8281,11.8281,11.8281,11.8281,11.8281,11.8281,11.8281,11.8281,11.8281,11.8281,11.8203,11.8164,11.7968,11.7226,11.6406,11.5468,11.4531,11.3711,11.3281,11.3203,11.2812,11.1992,11.1093,11.0427,10.9631,10.8969,10.8346,10.7909,10.7872,10.771,12.9717,12.8448,12.8063,12.7525,12.6986,12.6755,12.6717,12.6717,12.6717,12.6751,12.6783,12.6807,12.6883,12.7041,12.7062,12.7185,12.7452,12.7505,12.7625,12.7844,12.7871,12.7996,12.8074,12.7801,12.751,12.7075,12.682,12.5939,12.4949,12.451,12.4053,12.3472,12.328,12.3203,12.3125,12.289,12.2929,12.2929,12.289,12.2461,12.1992,12.1875,12.1523,12.0664,11.9961,11.9179,11.8515,11.8281,11.8633,11.9101,11.9375,11.9414,11.9492,12.0156,12.0859,12.1445,12.1797,12.2343,12.3047,12.332,12.3593,12.4297,12.3867,12.3515,12.414,12.3398,12.3047,12.3203,12.3242,12.3242,12.3398,12.3359,12.3164,12.2929,12.2422,12.1836,12.1445,12.0234,11.9414,11.914,11.8711,11.8281,11.8281,11.8281,11.8281,11.8281,11.8281,11.8281,11.8281,11.8281,11.8281,11.8281,11.8281,11.8281,11.8281,11.8281,11.8281,11.8281,11.7695,11.6992,11.6054,11.5273,11.4492,11.3789,11.3203,11.2695,11.2226,11.1796,11.1166,11.0322,10.9534,10.905,10.8637,10.8397,10.8366,12.8756,12.7871,12.7486,12.7063,12.6741,12.6751,12.6736,12.676,12.6807,12.686,12.695,12.6972,12.7083,12.7361,12.7341,12.7505,12.7767,12.7844,12.7975,12.8123,12.8163,12.8214,12.8348,12.8328,12.8055,12.7719,12.7331,12.6652,12.5959,12.5111,12.449,12.4022,12.3711,12.3476,12.3515,12.3515,12.3437,12.3437,12.3515,12.3242,12.289,12.2773,12.2383,12.1406,12.0351,11.9453,11.9531,11.9101,11.9453,12.0078,12.0586,12.0625,12.0429,12.1015,12.1914,12.2656,12.3242,12.3789,12.4414,12.4687,12.4883,12.5273,12.4883,12.5,12.5078,12.4609,12.4179,12.4023,12.3789,12.3515,12.3515,12.3515,12.3515,12.3437,12.3125,12.2812,12.2539,12.1289,12.0,11.9687,11.9218,11.8711,11.8515,11.8398,11.8281,11.8281,11.8281,11.8281,11.8281,11.8281,11.8281,11.8281,11.8281,11.8281,11.8281,11.8281,11.8281,11.8242,11.8047,11.7422,11.6718,11.6015,11.5351,11.4531,11.3672,11.3125,11.2695,11.2265,11.1865,11.1176,11.0496,10.9873,10.9427,10.9203,10.929,12.7832,12.7678,12.6972,12.6703,12.6751,12.6791,12.686,12.6883,12.701,12.7101,12.7165,12.7185,12.7379,12.7591,12.7641,12.7787,12.8023,12.8153,12.8253,12.8315,12.8322,12.8416,12.8503,12.8471,12.8475,12.8446,12.7914,12.7415,12.6793,12.5859,12.4961,12.4648,12.3906,12.3554,12.3515,12.3515,12.3515,12.3515,12.3515,12.3476,12.3437,12.3359,12.2929,12.1992,12.1054,12.0351,12.0468,12.0195,12.0273,12.1211,12.1992,12.207,12.207,12.2187,12.2968,12.3867,12.4531,12.5078,12.5508,12.582,12.5898,12.6133,12.5976,12.6054,12.5976,12.5508,12.5078,12.4726,12.4375,12.3711,12.3554,12.3515,12.3515,12.3515,12.3515,12.3515,12.3242,12.2109,12.1172,12.0273,11.9726,11.914,11.875,11.8515,11.8398,11.8281,11.8281,11.8281,11.8281,11.8281,11.8281,11.8281,11.8281,11.8281,11.8281,11.8281,11.8281,11.8281,11.8203,11.7851,11.7304,11.6718,11.5976,11.5,11.4218,11.3711,11.3203,11.2773,11.2368,11.1914,11.1334,11.0614,11.0271,11.0045,11.0136,12.7486,12.6895,12.6798,12.6768,12.6791,12.6955,12.7062,12.7062,12.7224,12.7361,12.747,12.7488,12.7612,12.778,12.7924,12.803,12.8089,12.8289,12.8422,12.8451,12.8455,12.8517,12.8539,12.8582,12.8548,12.8552,12.824,12.7849,12.7226,12.6328,12.539,12.4765,12.3945,12.3515,12.3515,12.3515,12.3515,12.3515,12.3515,12.3515,12.3515,12.3476,12.3164,12.2383,12.1758,12.1445,12.1015,12.0937,12.1406,12.2851,12.3164,12.3945,12.4531,12.4531,12.4765,12.5312,12.5664,12.5976,12.625,12.6133,12.6445,12.6718,12.6562,12.6523,12.6718,12.6328,12.582,12.5508,12.5,12.4336,12.3593,12.3633,12.3515,12.3515,12.3515,12.3515,12.3437,12.3086,12.25,12.1679,12.0625,11.9609,11.9336,11.8945,11.8672,11.8515,11.8398,11.8359,11.8281,11.8281,11.8281,11.8281,11.8281,11.8281,11.8281,11.8281,11.8281,11.8281,11.8242,11.8242,11.7773,11.7304,11.6562,11.5898,11.5078,11.4414,11.3906,11.3476,11.322,11.3076,11.228,11.1381,11.1216,11.1103,11.0598,12.7083,12.676,12.6905,12.6933,12.6998,12.7245,12.7341,12.7379,12.7505,12.7386,12.7199,12.7127,12.7004,12.6905,12.6877,12.717,12.7702,12.8377,12.8521,12.8532,12.8537,12.8543,12.8554,12.8554,12.8281,12.8047,12.789,12.7734,12.7265,12.6406,12.5586,12.4765,12.3906,12.3515,12.3515,12.3515,12.3515,12.3515,12.3515,12.3515,12.3515,12.3515,12.3203,12.2929,12.2461,12.2226,12.2265,12.1718,12.2422,12.3789,12.414,12.5117,12.6015,12.6406,12.625,12.6562,12.6679,12.6914,12.7226,12.7343,12.7617,12.7851,12.75,12.7539,12.7617,12.7226,12.6523,12.6015,12.5781,12.5078,12.4336,12.4179,12.3945,12.3593,12.3515,12.3554,12.3515,12.3515,12.3203,12.2812,12.1875,12.0937,12.0195,11.9726,11.914,11.8828,11.8554,11.8476,11.8398,11.8281,11.8281,11.8281,11.8281,11.8281,11.8281,11.8281,11.8281,11.8281,11.8281,11.8281,11.8203,11.7734,11.7578,11.7265,11.6406,11.5351,11.5039,11.4722,11.4506,11.4192,11.3509,11.2843,11.2451,11.2117,11.1594,12.6667,12.6382,12.6988,12.7012,12.6781,12.723,12.7269,12.7223,12.7219,12.6965,12.6567,12.6512,12.6263,12.596,12.5973,12.6285,12.7037,12.7756,12.7883,12.7885,12.7887,12.8006,12.8047,12.8008,12.7656,12.7109,12.7031,12.7031,12.6797,12.6054,12.539,12.4726,12.3945,12.3515,12.3515,12.3515,12.3515,12.3515,12.3515,12.3515,12.3515,12.3515,12.3515,12.3476,12.2812,12.2812,12.3164,12.3047,12.3554,12.4687,12.5351,12.6015,12.7226,12.7578,12.7578,12.7578,12.7539,12.7968,12.832,12.8476,12.8359,12.8437,12.8554,12.8593,12.8437,12.7851,12.7226,12.6484,12.625,12.5937,12.5234,12.5039,12.4609,12.4062,12.3828,12.3711,12.3554,12.3515,12.3515,12.3125,12.2734,12.2109,12.125,12.0508,11.9922,11.9609,11.9375,11.8945,11.8828,11.8398,11.832,11.8281,11.8281,11.8281,11.8281,11.8281,11.8281,11.8281,11.8281,11.8281,11.8281,11.8164,11.8086,11.789,11.7422,11.6523,11.6211,11.5775,11.5287,11.4891,11.4634,11.4275,11.3734,11.3063,11.2384,12.6212,12.5036,12.6778,12.6653,12.558,12.6378,12.6408,12.5888,12.5966,12.5922,12.5883,12.5891,12.587,12.5753,12.5835,12.6003,12.6165,12.6403,12.664,12.6679,12.6601,12.6601,12.6406,12.6289,12.6445,12.6172,12.6172,12.6172,12.5937,12.5273,12.4922,12.4531,12.3945,12.3515,12.3515,12.3515,12.3515,12.3515,12.3515,12.3515,12.3515,12.3515,12.3515,12.3476,12.3359,12.3398,12.3672,12.3945,12.4804,12.5742,12.6562,12.7422,12.8242,12.8437,12.8437,12.8437,12.8437,12.8476,12.8593,12.8593,12.8593,12.8593,12.8593,12.8593,12.8515,12.8476,12.7968,12.7265,12.7148,12.6758,12.6093,12.5898,12.5429,12.4922,12.4531,12.414,12.3828,12.3515,12.3515,12.3476,12.3086,12.2734,12.2148,12.1406,12.0742,12.0429,12.0117,11.9687,11.9179,11.8672,11.832,11.8281,11.8281,11.8281,11.8281,11.8281,11.8281,11.8281,11.8281,11.8281,11.8281,11.8281,11.8281,11.8047,11.7695,11.7461,11.7031,11.6518,11.5951,11.5667,11.557,11.5288,11.4849,11.4086,11.3231,12.5624,12.4919,12.5974,12.6,12.542,12.5938,12.5991,12.5746,12.5742,12.5532,12.5216,12.5182,12.4941,12.4746,12.4996,12.5311,12.5429,12.5742,12.5976,12.5937,12.5937,12.5976,12.6054,12.5976,12.5859,12.5351,12.5234,12.4922,12.4765,12.4765,12.4609,12.4062,12.3711,12.3515,12.3515,12.3515,12.3515,12.3515,12.3515,12.3515,12.3515,12.3515,12.3515,12.3515,12.3515,12.375,12.4218,12.4531,12.5508,12.6445,12.7187,12.7695,12.8359,12.8593,12.8593,12.8593,12.8593,12.8593,12.8593,12.8633,12.8633,12.8633,12.8633,12.8593,12.8593,12.8593,12.8515,12.8086,12.8047,12.7617,12.6953,12.6758,12.6211,12.5703,12.5156,12.4687,12.4218,12.3711,12.3515,12.3515,12.3476,12.3125,12.2773,12.2226,12.164,12.1445,12.0859,12.0195,11.9492,11.875,11.8476,11.8281,11.8281,11.8281,11.8281,11.8281,11.8281,11.8281,11.8281,11.8281,11.8281,11.8281,11.8281,11.8281,11.8086,11.7851,11.7656,11.7455,11.7084,11.6794,11.6552,11.6193,11.578,11.492,11.4119,12.4683,12.4601,12.5275,12.5343,12.4976,12.5352,12.5369,12.5187,12.5192,12.491,12.4537,12.4387,12.4009,12.3668,12.414,12.4453,12.4531,12.5117,12.5312,12.539,12.539,12.5273,12.5156,12.5195,12.5,12.4492,12.4453,12.4218,12.4023,12.3984,12.4062,12.3515,12.3554,12.3515,12.3515,12.3515,12.3515,12.3515,12.3515,12.3515,12.3515,12.3515,12.3515,12.3515,12.3593,12.3906,12.4687,12.5078,12.5937,12.6914,12.7578,12.8047,12.8515,12.8593,12.8789,12.8945,12.9062,12.9218,12.9258,12.9258,12.8984,12.8867,12.8633,12.8593,12.8593,12.8593,12.8593,12.8515,12.8515,12.8164,12.7812,12.7617,12.7148,12.6445,12.5664,12.5234,12.4687,12.3984,12.3515,12.3515,12.3515,12.3515,12.3164,12.2851,12.2539,12.2422,12.1758,12.0781,11.9883,11.9023,11.8633,11.8437,11.8281,11.8281,11.8281,11.8281,11.8281,11.8281,11.8281,11.8281,11.8281,11.8281,11.8281,11.8281,11.8281,11.8203,11.7968,11.8125,11.8253,11.7736,11.7306,11.7078,11.6579,11.5728,11.4828,12.3205,12.3465,12.5072,12.4806,12.3527,12.4372,12.4325,12.3778,12.3681,12.3694,12.3664,12.3593,12.3633,12.3554,12.3593,12.3711,12.3672,12.3672,12.3906,12.3906,12.3711,12.3945,12.4023,12.3984,12.3867,12.3711,12.3789,12.3711,12.3554,12.3633,12.3672,12.3515,12.3515,12.3515,12.3515,12.3515,12.3515,12.3515,12.3515,12.3515,12.3515,12.3515,12.3515,12.3515,12.3593,12.3906,12.4804,12.5547,12.6367,12.7422,12.8008,12.832,12.8554,12.875,12.9062,12.9453,12.9765,13.0117,13.0508,13.0195,12.9804,12.957,12.9179,12.8711,12.8593,12.8593,12.8593,12.8593,12.8593,12.8554,12.8437,12.8398,12.789,12.7226,12.6367,12.5586,12.4922,12.3984,12.3593,12.3515,12.3515,12.3515,12.3515,12.3164,12.3086,12.2929,12.2265,12.1328,12.0312,11.9453,11.8906,11.8593,11.8359,11.8281,11.8281,11.8281,11.8281,11.8281,11.8281,11.8281,11.8281,11.8281,11.8281,11.8281,11.8281,11.8281,11.8281,11.8281,11.8258,11.8213,11.7982,11.7621,11.7291,11.6674,11.5586,12.321,12.3396,12.4086,12.393,12.3323,12.372,12.3735,12.3464,12.3431,12.3474,12.3476,12.3476,12.3515,12.3515,12.3515,12.3515,12.3515,12.3515,12.3515,12.3515,12.3515,12.3515,12.3515,12.3515,12.3515,12.3515,12.3515,12.3515,12.3515,12.3515,12.3515,12.3515,12.3515,12.3515,12.3515,12.3515,12.3515,12.3515,12.3515,12.3515,12.3515,12.3515,12.3515,12.3515,12.414,12.4687,12.5547,12.6367,12.7187,12.789,12.8398,12.8554,12.8789,12.9101,12.957,13.0039,13.0429,13.1133,13.164,13.1172,13.0508,12.9922,12.957,12.9218,12.8867,12.8633,12.8633,12.8593,12.8593,12.8593,12.8593,12.8554,12.832,12.7812,12.7031,12.6015,12.5156,12.4258,12.3593,12.3515,12.3515,12.3515,12.3515,12.3476,12.3476,12.3398,12.2617,12.1797,12.0742,11.9843,11.9297,11.8633,11.8359,11.8281,11.8281,11.8281,11.8281,11.8281,11.8281,11.8281,11.8281,11.8281,11.8281,11.8281,11.8281,11.8281,11.8281,11.8281,11.8265,11.8233,11.8129,11.799,11.7722,11.7453,11.6523,12.3371,12.3372,12.3389,12.3388,12.3374,12.343,12.3435,12.3435,12.3476,12.3515,12.3515,12.3515,12.3515,12.3515,12.3515,12.3515,12.3515,12.3515,12.3515,12.3515,12.3515,12.3515,12.3515,12.3515,12.3515,12.3515,12.3515,12.3515,12.3515,12.3515,12.3515,12.3515,12.3515,12.3515,12.3515,12.3515,12.3515,12.3515,12.3515,12.3515,12.3515,12.3515,12.3515,12.3633,12.4258,12.5078,12.5898,12.6718,12.7617,12.8203,12.8633,12.875,12.9101,12.9531,13.0117,13.0664,13.125,13.1953,13.2383,13.207,13.1328,13.0976,13.0468,13.0039,12.9531,12.9179,12.9101,12.9023,12.8867,12.8633,12.8633,12.8593,12.8593,12.8125,12.6836,12.582,12.5312,12.457,12.3945,12.3515,12.3515,12.3515,12.3515,12.3515,12.3515,12.3515,12.3203,12.2226,12.1015,12.0195,11.957,11.8906,11.832,11.8281,11.8281,11.8281,11.8281,11.8281,11.8281,11.8281,11.8281,11.8281,11.8281,11.8281,11.8281,11.8281,11.8281,11.8281,11.8271,11.8253,11.8156,11.8059,11.799,11.7729,11.7373,12.3359,12.3392,12.3393,12.3393,12.3431,12.3476,12.3515,12.3476,12.3476,12.3515,12.3515,12.3515,12.3515,12.3515,12.3515,12.3515,12.3515,12.3515,12.3515,12.3515,12.3515,12.3515,12.3515,12.3515,12.3515,12.3515,12.3515,12.3515,12.3515,12.3515,12.3515,12.3515,12.3515,12.3515,12.3515,12.3515,12.3515,12.3515,12.3515,12.3515,12.3515,12.3515,12.3515,12.3711,12.4492,12.5429,12.6015,12.707,12.789,12.8476,12.8593,12.8945,12.9609,12.9883,13.0703,13.2031,13.2304,13.289,13.3554,13.2851,13.2422,13.2031,13.1406,13.1015,13.0859,13.0429,12.9883,12.9843,12.9258,12.8828,12.8672,12.8593,12.8633,12.8164,12.6875,12.5898,12.5429,12.4531,12.3828,12.3515,12.3515,12.3515,12.3515,12.3515,12.3515,12.3515,12.3515,12.2656,12.1289,12.0547,11.9922,11.8945,11.8281,11.8281,11.8281,11.8281,11.8281,11.8281,11.8281,11.8281,11.8281,11.8281,11.8281,11.8281,11.8281,11.8281,11.8281,11.8281,11.8274,11.8263,11.8209,11.8139,11.8087,11.8009,11.7722,12.2608,12.2655,12.3202,12.3476,12.3476,12.3515,12.3515,12.3515,12.3515,12.3515,12.3515,12.3515,12.3515,12.3515,12.3515,12.3515,12.3515,12.3515,12.3515,12.3515,12.3515,12.3515,12.3515,12.3515,12.3515,12.3515,12.3515,12.3515,12.3515,12.3515,12.3515,12.3515,12.3515,12.3515,12.3515,12.3515,12.3515,12.3515,12.3515,12.3515,12.3515,12.3515,12.3515,12.3554,12.4765,12.5625,12.6054,12.7226,12.8125,12.8554,12.8633,12.914,12.9922,13.0312,13.1328,13.2461,13.289,13.3437,13.375,13.3398,13.3086,13.2656,13.2265,13.1836,13.1289,13.1015,13.0781,13.0547,12.9843,12.9492,12.9492,12.8867,12.8633,12.8242,12.7265,12.6328,12.5547,12.4336,12.3515,12.3515,12.3515,12.3515,12.3515,12.3515,12.3515,12.3398,12.3359,12.25,12.1211,12.0742,12.0234,11.9023,11.8281,11.8281,11.8281,11.8281,11.8281,11.8281,11.8281,11.8281,11.8281,11.8281,11.8281,11.8281,11.8281,11.8281,11.8281,11.8281,11.8281,11.8269,11.8198,11.817,11.817,11.8174,11.8105,12.1756,12.1836,12.2695,12.3047,12.3086,12.3359,12.3515,12.3515,12.3515,12.3515,12.3515,12.3515,12.3515,12.3515,12.3515,12.3515,12.3515,12.3515,12.3515,12.3515,12.3515,12.3515,12.3515,12.3515,12.3515,12.3515,12.3515,12.3515,12.3515,12.3515,12.3515,12.3515,12.3515,12.3515,12.3515,12.3515,12.3515,12.3515,12.3515,12.3515,12.3515,12.3515,12.3515,12.3867,12.4687,12.5664,12.6289,12.7226,12.832,12.8554,12.8945,12.9414,13.0273,13.1172,13.2031,13.289,13.3359,13.3789,13.3789,13.3789,13.3437,13.3086,13.2968,13.2695,13.2109,13.1914,13.1718,13.1367,13.0586,13.0078,12.9765,12.9062,12.8515,12.8164,12.7265,12.6328,12.5586,12.4414,12.3515,12.3515,12.3515,12.3515,12.3515,12.3515,12.3515,12.3359,12.3203,12.2148,12.1133,12.0664,12.0156,11.9023,11.8281,11.8281,11.8281,11.8281,11.8281,11.8281,11.8281,11.8281,11.8281,11.8281,11.8281,11.8281,11.8281,11.8281,11.8281,11.8281,11.8281,11.8281,11.8274,11.8265,11.8304,11.8261,11.8261,12.0857,12.0976,12.1797,12.2148,12.2304,12.289,12.332,12.3476,12.3437,12.3437,12.3515,12.3515,12.3515,12.3515,12.3515,12.3515,12.3515,12.3515,12.3515,12.3515,12.3515,12.3515,12.3515,12.3515,12.3515,12.3515,12.3515,12.3515,12.3515,12.3515,12.3515,12.3515,12.3515,12.3515,12.3515,12.3515,12.3515,12.3515,12.3515,12.3515,12.3515,12.3515,12.3515,12.3828,12.4453,12.5312,12.6054,12.6953,12.7812,12.8515,12.9375,13.0234,13.1133,13.2031,13.289,13.3515,13.375,13.3789,13.3789,13.3789,13.3789,13.3554,13.3632,13.3711,13.3437,13.2812,13.25,13.1914,13.1054,13.039,12.9804,12.914,12.8515,12.7773,12.6875,12.6172,12.5625,12.4726,12.3828,12.3515,12.3515,12.3515,12.3515,12.3515,12.3476,12.3164,12.2812,12.1914,12.0937,12.0195,11.9648,11.8828,11.8281,11.8281,11.8281,11.8281,11.8281,11.8281,11.8281,11.8281,11.8281,11.8281,11.8281,11.8281,11.8281,11.8281,11.8281,11.8281,11.8281,11.8281,11.8281,11.8278,11.8274,11.8275,11.8275,11.9961,12.0078,12.0937,12.1289,12.1328,12.1562,12.2343,12.3359,12.289,12.2851,12.3515,12.3515,12.3398,12.3515,12.3515,12.3515,12.3515,12.3515,12.3515,12.3515,12.3515,12.3515,12.3515,12.3515,12.3515,12.3515,12.3515,12.3515,12.3515,12.3515,12.3515,12.3515,12.3515,12.3515,12.3515,12.3515,12.3515,12.3515,12.3515,12.3515,12.3515,12.3515,12.3515,12.375,12.4258,12.5039,12.5859,12.6758,12.7617,12.8515,12.9414,13.0312,13.1172,13.2031,13.2851,13.3632,13.3789,13.3789,13.3789,13.3789,13.3789,13.3789,13.3789,13.3789,13.3711,13.3437,13.3047,13.2265,13.1445,13.0664,12.9883,12.914,12.8437,12.7578,12.6679,12.5976,12.5351,12.4492,12.3633,12.3515,12.3515,12.3515,12.3515,12.3515,12.3437,12.3047,12.25,12.164,12.0703,11.9961,11.9297,11.8515,11.8281,11.8281,11.8281,11.8281,11.8281,11.8281,11.8281,11.8281,11.8281,11.8281,11.8281,11.8281,11.8281,11.8281,11.8281,11.8281,11.8281,11.8281,11.8281,11.8281,11.828,11.828,11.8281,11.9101,11.9218,12.0039,12.0586,12.082,12.0547,12.1211,12.2226,12.1914,12.2031,12.2461,12.2812,12.3008,12.3047,12.3281,12.3515,12.3515,12.3515,12.3515,12.3515,12.3515,12.3515,12.3515,12.3515,12.3515,12.3515,12.3515,12.3515,12.3515,12.3515,12.3515,12.3515,12.3515,12.3515,12.3515,12.3515,12.3515,12.3515,12.3515,12.3515,12.3515,12.3515,12.3515,12.3593,12.414,12.4726,12.5547,12.6406,12.7226,12.8203,12.9101,13.0312,13.1289,13.2304,13.3086,13.3789,13.3789,13.3789,13.3789,13.3789,13.3789,13.3789,13.375,13.3554,13.3515,13.3359,13.3047,13.2539,13.1679,13.0859,12.9961,12.9101,12.8242,12.7383,12.6562,12.5703,12.4883,12.4062,12.3711,12.3554,12.3515,12.3515,12.3515,12.3515,12.3437,12.3164,12.2617,12.1718,12.0664,11.9609,11.9023,11.8398,11.8281,11.8281,11.8281,11.8281,11.8281,11.8281,11.8281,11.8281,11.8281,11.8281,11.8281,11.8281,11.8281,11.8281,11.8281,11.8281,11.8281,11.8281,11.8281,11.8281,11.8281,11.828,11.8279,11.832,11.8398,11.914,11.9922,12.0508,11.9804,11.9961,12.0664,12.0625,12.082,12.1133,12.1758,12.2109,12.2226,12.2617,12.3086,12.3125,12.3164,12.332,12.3476,12.3515,12.3515,12.3515,12.3515,12.3515,12.3515,12.3515,12.3515,12.3515,12.3515,12.3515,12.3515,12.3515,12.3515,12.3515,12.3515,12.3515,12.3515,12.3515,12.3515,12.3515,12.3515,12.3515,12.3515,12.3672,12.3984,12.4804,12.5625,12.6406,12.7578,12.8867,13.0273,13.1601,13.2773,13.3515,13.3789,13.3789,13.3789,13.3789,13.3789,13.3632,13.3632,13.3672,13.3125,13.289,13.3125,13.2851,13.1914,13.0937,13.0312,12.9531,12.8945,12.8203,12.7265,12.6328,12.539,12.4414,12.3828,12.3633,12.3515,12.3515,12.3515,12.3515,12.3515,12.3515,12.3281,12.2695,12.1797,12.082,11.9609,11.8906,11.8437,11.832,11.8281,11.8281,11.8281,11.8281,11.8281,11.8281,11.8281,11.8281,11.8281,11.8281,11.8281,11.8281,11.8281,11.8281,11.8281,11.8281,11.8281,11.8281,11.8281,11.8278,11.8274,11.8269,11.8281,11.832,11.8515,11.875,11.8906,11.8711,11.875,11.8945,11.8945,11.9687,12.0742,12.1093,12.1211,12.1289,12.1562,12.1992,12.2422,12.2539,12.2929,12.3125,12.3281,12.3242,12.3437,12.3359,12.3437,12.3515,12.3515,12.3515,12.3515,12.3515,12.3515,12.3515,12.3515,12.3515,12.3515,12.3515,12.3515,12.3515,12.3515,12.3515,12.3515,12.3515,12.3515,12.3515,12.3593,12.3906,12.4726,12.5547,12.6406,12.7422,12.8984,13.0547,13.2148,13.3203,13.3711,13.3789,13.3789,13.3789,13.375,13.3672,13.3398,13.3008,13.2734,13.2226,13.2109,13.2539,13.2226,13.1093,13.0273,12.9726,12.9179,12.8672,12.8047,12.7031,12.6054,12.5039,12.4023,12.375,12.3515,12.3515,12.3515,12.3515,12.3515,12.3515,12.3515,12.3164,12.2617,12.1875,12.1093,12.0078,11.9258,11.875,11.8398,11.832,11.8281,11.8281,11.8281,11.8281,11.8281,11.8281,11.8281,11.8281,11.8281,11.8281,11.8281,11.8281,11.8281,11.8281,11.8281,11.828,11.8276,11.8272,11.8219,11.8205,11.8198,11.8281,11.8281,11.8281,11.8281,11.8281,11.8281,11.8281,11.8281,11.8281,11.8828,11.9726,12.0117,12.0312,12.0468,12.0703,12.1015,12.1562,12.164,12.1797,12.2187,12.2539,12.2578,12.2734,12.2968,12.3242,12.3359,12.3476,12.3515,12.3515,12.3515,12.3515,12.3515,12.3515,12.3515,12.3515,12.3515,12.3515,12.3515,12.3515,12.3515,12.3515,12.3515,12.3515,12.3515,12.3633,12.3906,12.4414,12.5234,12.6133,12.7422,12.9101,13.0547,13.1953,13.3047,13.3672,13.3789,13.3789,13.3789,13.3711,13.3437,13.3008,13.2539,13.1992,13.1562,13.0859,13.1133,13.1133,13.0195,13.0156,12.9687,12.8867,12.8281,12.7422,12.6484,12.5625,12.4726,12.4023,12.3593,12.3515,12.3515,12.3515,12.3515,12.3515,12.3515,12.3515,12.3476,12.2851,12.2383,12.1523,12.0664,11.9843,11.9062,11.8711,11.8398,11.8281,11.8281,11.8281,11.8281,11.8281,11.8281,11.8281,11.8281,11.8281,11.8281,11.8281,11.8281,11.8281,11.8281,11.828,11.8278,11.8271,11.8217,11.8191,11.814,11.8067,11.8281,11.8281,11.8281,11.8281,11.8281,11.8281,11.8281,11.8281,11.8281,11.8281,11.8515,11.9179,11.9414,11.9726,12.0156,12.0508,12.0703,12.0742,12.082,12.1054,12.1133,12.1562,12.1953,12.2226,12.2812,12.3281,12.3476,12.3515,12.3515,12.3515,12.3515,12.3515,12.3515,12.3515,12.3515,12.3515,12.3515,12.3515,12.3515,12.3515,12.3515,12.3515,12.3515,12.3515,12.3515,12.3515,12.4023,12.4883,12.582,12.7343,12.914,13.0625,13.1758,13.2851,13.3515,13.3789,13.3789,13.3711,13.3476,13.2968,13.25,13.1992,13.1406,13.0742,13.0039,12.9765,12.9765,12.9765,12.9726,12.9414,12.8593,12.7812,12.6953,12.6015,12.5195,12.4453,12.3945,12.3515,12.3515,12.3515,12.3515,12.3515,12.3515,12.3515,12.3515,12.3515,12.332,12.2851,12.2304,12.1445,12.0625,11.9726,11.9062,11.875,11.8398,11.8281,11.8281,11.8281,11.8281,11.8281,11.8281,11.8281,11.8281,11.8281,11.8281,11.8281,11.8281,11.8281,11.8275,11.8271,11.8208,11.8165,11.8067,11.799,11.7906,11.8281,11.8281,11.8281,11.8281,11.8281,11.8281,11.8281,11.8281,11.8281,11.8281,11.8359,11.8398,11.8554,11.8554,11.8672,11.9101,11.9843,11.9843,12.039,12.0859,12.0547,12.0859,12.1328,12.1914,12.2695,12.3125,12.3437,12.3515,12.3515,12.3515,12.3515,12.3515,12.3515,12.3515,12.3515,12.3515,12.3515,12.3515,12.3515,12.3515,12.3515,12.3515,12.3515,12.3515,12.3515,12.3515,12.3945,12.5156,12.5781,12.7031,12.9062,13.0625,13.1718,13.2656,13.3437,13.3711,13.3711,13.3359,13.2968,13.2422,13.1875,13.082,13.0273,12.9883,12.9336,12.9023,12.9023,12.9023,12.8984,12.8984,12.832,12.7617,12.6758,12.5664,12.4726,12.414,12.3593,12.3515,12.3515,12.3515,12.3515,12.3515,12.3515,12.3515,12.3515,12.3515,12.3515,12.3086,12.2617,12.1953,12.1328,12.0429,11.9492,11.8906,11.8476,11.832,11.8281,11.8281,11.8281,11.8281,11.8281,11.8281,11.8281,11.8281,11.828,11.8281,11.8281,11.8226,11.8211,11.8194,11.8146,11.808,11.7989,11.7828,11.7707]}]]